[[{"header":{"parameterUnit":"m.s-1","parameterCategory":1,"la1":30.6,"la2":29.2853,"lo1":-89.7004,"lo2":-87.6739,"dy":0.0162,"dx":0.0183,"nx":112,"ny":82,"refTime":"2025-07-31T00:00:00:Z","depth":0,"parameterNumber":2,"parameterNumberName":"U-component_of_WINDS"},"data":[0.0,0.0,0.0,0.0,0.0,0.0,0.0,0.0,0.0,0.0,0.0,0.0,0.0,0.0,0.0,0.0,0.0,0.0,0.0,0.0,0.0,0.0,0.0,0.0,0.0,0.0,0.0,0.0,0.0,0.0,0.0,0.0,0.0,0.0,0.0,0.0,0.0,0.0,0.0,0.0,0.0,0.0,0.0,0.0,0.0,0.0,0.0,0.0,0.0,0.0,0.0,0.0,0.0,0.0,0.0,0.0,0.0,0.0,0.0,0.0,0.0,0.0,0.0,0.0,0.0,0.0,0.0,0.0,0.0,0.0,0.0,0.0,0.0,0.0,0.0,0.0,0.0,0.0,0.0,0.0,0.0,0.0,0.0,0.0,0.0,0.0,0.0,0.0,0.0,0.0,1.8014,1.8895,1.9587,2.0061,2.027,2.0304,1.9584,1.7982,0.0,0.0,0.0,0.0,0.0,0.0,0.0,0.0,0.0,0.0,0.0,0.0,0.0,0.0,0.0,0.0,0.0,0.0,0.0,0.0,0.0,0.0,0.0,0.0,0.0,0.0,0.0,0.0,0.0,0.0,0.0,0.0,0.0,0.0,0.0,0.0,0.0,0.0,0.0,0.0,0.0,0.0,0.0,0.0,0.0,0.0,0.0,0.0,0.0,0.0,0.0,0.0,0.0,0.0,0.0,0.0,0.0,0.0,0.0,0.0,0.0,0.0,0.0,0.0,0.0,0.0,0.0,0.0,0.0,0.0,0.0,0.0,0.0,0.0,0.0,0.0,0.0,0.0,0.0,0.0,0.0,0.0,0.0,0.0,0.0,0.0,0.0,0.0,0.0,0.0,0.0,0.0,0.0,0.0,0.0,0.0,0.0,0.0,0.0,0.0,0.0,0.0,0.0,0.0,1.8227,1.9682,1.9945,2.0061,2.027,2.0304,1.9685,1.8236,0.0,0.0,0.0,0.0,0.0,0.0,0.0,0.0,0.0,0.0,0.0,0.0,0.0,0.0,0.0,0.0,0.0,0.0,0.0,0.0,0.0,0.0,0.0,0.0,0.0,0.0,0.0,0.0,0.0,0.0,0.0,0.0,0.0,0.0,0.0,0.0,0.0,0.0,0.0,0.0,0.0,0.0,0.0,0.0,0.0,0.0,0.0,0.0,0.0,0.0,0.0,0.0,0.0,0.0,0.0,0.0,0.0,0.0,0.0,0.0,0.0,0.0,0.0,0.0,0.0,0.0,0.0,0.0,0.0,0.0,0.0,0.0,0.0,0.0,0.0,0.0,0.0,0.0,0.0,0.0,0.0,0.0,0.0,0.0,0.0,0.0,0.0,0.0,0.0,0.0,0.0,0.0,0.0,0.0,0.0,0.0,0.0,0.0,0.0,0.0,0.0,0.0,0.0,1.8007,1.8661,1.9778,1.9955,2.0061,2.0185,2.027,1.9685,1.8299,1.8207,0.0,0.0,0.0,0.0,0.0,0.0,0.0,0.0,0.0,0.0,0.0,0.0,0.0,0.0,0.0,0.0,0.0,0.0,0.0,0.0,0.0,0.0,0.0,0.0,0.0,0.0,0.0,0.0,0.0,0.0,0.0,0.0,0.0,0.0,0.0,0.0,0.0,0.0,0.0,0.0,0.0,0.0,0.0,0.0,0.0,0.0,0.0,0.0,0.0,0.0,0.0,0.0,0.0,0.0,0.0,0.0,0.0,0.0,0.0,0.0,0.0,0.0,0.0,0.0,0.0,0.0,0.0,0.0,0.0,0.0,0.0,0.0,0.0,0.0,0.0,0.0,0.0,0.0,0.0,0.0,0.0,0.0,0.0,0.0,0.0,0.0,0.0,0.0,0.0,0.0,0.0,0.0,0.0,0.0,0.0,0.0,0.0,0.0,0.0,0.0,0.0,0.0,1.8644,1.9136,1.9752,1.9919,2.0025,2.01,2.0081,1.9549,1.8315,1.8238,0.0,0.0,0.0,0.0,0.0,0.0,0.0,0.0,0.0,0.0,0.0,0.0,0.0,0.0,0.0,0.0,0.0,0.0,0.0,0.0,0.0,0.0,0.0,0.0,0.0,0.0,0.0,0.0,0.0,0.0,0.0,0.0,0.0,0.0,0.0,0.0,0.0,0.0,0.0,0.0,0.0,0.0,0.0,0.0,0.0,0.0,0.0,0.0,0.0,0.0,0.0,0.0,0.0,0.0,0.0,0.0,0.0,0.0,0.0,0.0,0.0,0.0,0.0,0.0,0.0,0.0,0.0,0.0,0.0,0.0,0.0,0.0,0.0,0.0,0.0,0.0,0.0,0.0,0.0,0.0,0.0,0.0,0.0,0.0,0.0,0.0,0.0,0.0,0.0,0.0,0.0,0.0,0.0,0.0,0.0,0.0,0.0,0.0,0.0,0.0,0.0,0.0,1.8778,1.9588,1.9762,1.9919,2.0025,2.01,1.9651,1.9088,1.8439,1.7817,0.0,0.0,0.0,0.0,0.0,0.0,0.0,0.0,0.0,0.0,0.0,0.0,0.0,0.0,0.0,0.0,0.0,0.0,0.0,0.0,0.0,0.0,0.0,0.0,0.0,0.0,0.0,0.0,0.0,0.0,0.0,0.0,0.0,0.0,0.0,0.0,0.0,0.0,0.0,0.0,0.0,0.0,0.0,0.0,0.0,0.0,0.0,0.0,0.0,0.0,0.0,0.0,0.0,0.0,0.0,0.0,0.0,0.0,0.0,0.0,0.0,0.0,0.0,0.0,0.0,0.0,0.0,0.0,0.0,0.0,0.0,0.0,0.0,0.0,0.0,0.0,0.0,0.0,0.0,0.0,0.0,0.0,0.0,0.0,0.0,0.0,0.0,0.0,0.0,0.0,0.0,0.0,0.0,0.0,0.0,0.0,0.0,0.0,0.0,0.0,0.0,0.0,1.8332,1.9165,1.9639,1.9812,1.9919,2.0025,1.9886,1.9423,1.8455,0.0,0.0,0.0,0.0,0.0,0.0,0.0,0.0,0.0,0.0,0.0,0.0,0.0,0.0,0.0,0.0,0.0,0.0,0.0,0.0,0.0,0.0,0.0,0.0,0.0,0.0,0.0,0.0,0.0,0.0,0.0,0.0,0.0,0.0,0.0,0.0,0.0,0.0,0.0,0.0,0.0,0.0,0.0,0.0,0.0,0.0,0.0,0.0,0.0,0.0,0.0,0.0,0.0,0.0,0.0,0.0,0.0,0.0,0.0,0.0,0.0,0.0,0.0,0.0,0.0,0.0,0.0,0.0,0.0,0.0,0.0,0.0,0.0,0.0,0.0,0.0,0.0,0.0,0.0,0.0,0.0,0.0,0.0,0.0,0.0,0.0,0.0,0.0,0.0,0.0,0.0,0.0,0.0,0.0,0.0,0.0,0.0,0.0,0.0,0.0,0.0,0.0,1.7324,1.8234,1.9013,1.9493,1.9669,1.9797,1.9919,1.9847,1.9387,1.8501,0.0,0.0,0.0,0.0,0.0,0.0,0.0,0.0,0.0,0.0,0.0,0.0,0.0,0.0,0.0,0.0,0.0,0.0,0.0,0.0,0.0,0.0,0.0,0.0,0.0,0.0,0.0,0.0,0.0,0.0,0.0,0.0,0.0,0.0,0.0,0.0,0.0,0.0,0.0,0.0,0.0,0.0,0.0,0.0,0.0,0.0,0.0,0.0,0.0,0.0,0.0,0.0,0.0,0.0,0.0,0.0,0.0,0.0,0.0,0.0,0.0,0.0,0.0,0.0,0.0,0.0,0.0,0.0,0.0,0.0,0.0,0.0,0.0,0.0,0.0,0.0,0.0,0.0,0.0,0.0,0.0,0.0,0.0,0.0,0.0,0.0,0.0,0.0,0.0,0.0,0.0,0.0,0.0,0.0,0.0,0.0,0.0,0.0,0.0,0.0,0.0,0.0,1.7382,1.8511,1.9339,1.9376,1.9581,1.9726,1.9797,1.9368,1.8944,0.0,0.0,0.0,0.0,0.0,0.0,0.0,0.0,0.0,0.0,0.0,0.0,0.0,0.0,0.0,0.0,0.0,0.0,0.0,0.0,0.0,0.0,0.0,0.0,0.0,0.0,0.0,0.0,0.0,0.0,0.0,0.0,0.0,0.0,0.0,0.0,0.0,0.0,0.0,0.0,0.0,0.0,0.0,0.0,0.0,0.0,0.0,0.0,0.0,0.0,0.0,0.0,0.0,0.0,0.0,0.0,0.0,0.0,0.0,0.0,0.0,0.0,0.0,0.0,0.0,0.0,0.0,0.0,0.0,0.0,0.0,0.0,0.0,0.0,0.0,0.0,0.0,0.0,0.0,0.0,0.0,0.0,0.0,0.0,0.0,0.0,0.0,0.0,0.0,0.0,0.0,0.0,0.0,0.0,0.0,0.0,0.0,0.0,0.0,0.0,0.0,0.0,0.0,1.7248,1.8461,1.9302,1.9339,1.9523,1.9683,1.9797,1.9773,1.9385,1.8532,0.0,0.0,0.0,0.0,0.0,0.0,0.0,0.0,0.0,0.0,0.0,0.0,0.0,0.0,0.0,0.0,0.0,0.0,0.0,0.0,0.0,0.0,0.0,0.0,0.0,0.0,0.0,0.0,0.0,0.0,0.0,0.0,0.0,0.0,0.0,0.0,0.0,0.0,0.0,0.0,0.0,0.0,0.0,0.0,0.0,0.0,0.0,0.0,0.0,0.0,0.0,0.0,0.0,0.0,0.0,0.0,0.0,0.0,0.0,0.0,0.0,0.0,0.0,0.0,0.0,0.0,0.0,0.0,0.0,0.0,0.0,0.0,0.0,0.0,0.0,0.0,0.0,0.0,0.0,0.0,0.0,0.0,0.0,0.0,0.0,0.0,0.0,0.0,0.0,0.0,0.0,0.0,0.0,0.0,0.0,0.0,0.0,0.0,0.0,0.0,0.0,0.0,1.7132,1.8353,1.9213,1.9213,1.9413,1.9574,1.9705,1.9884,1.9531,1.8439,0.0,0.0,0.0,0.0,0.0,0.0,0.0,0.0,0.0,0.0,0.0,0.0,0.0,0.0,0.0,0.0,0.0,0.0,0.0,0.0,0.0,0.0,0.0,0.0,0.0,0.0,0.0,0.0,0.0,0.0,0.0,0.0,0.0,0.0,0.0,0.0,0.0,0.0,0.0,0.0,0.0,0.0,0.0,0.0,0.0,0.0,0.0,0.0,0.0,0.0,0.0,0.0,0.0,0.0,0.0,0.0,0.0,0.0,0.0,0.0,0.0,0.0,0.0,0.0,0.0,0.0,0.0,0.0,0.0,0.0,0.0,0.0,0.0,0.0,0.0,0.0,0.0,0.0,0.0,0.0,0.0,0.0,0.0,0.0,0.0,0.0,0.0,0.0,0.0,0.0,0.0,0.0,0.0,0.0,0.0,0.0,0.0,0.0,0.0,0.0,0.0,0.0,1.7067,1.8238,1.9064,1.9101,1.9265,1.9465,1.9574,1.9827,1.9478,1.8344,0.0,0.0,0.0,0.0,0.0,0.0,0.0,0.0,0.0,0.0,0.0,0.0,0.0,0.0,0.0,0.0,0.0,0.0,0.0,0.0,0.0,0.0,0.0,0.0,0.0,0.0,0.0,0.0,0.0,0.0,0.0,0.0,0.0,0.0,0.0,0.0,0.0,0.0,0.0,0.0,0.0,0.0,0.0,0.0,0.0,0.0,0.0,0.0,0.0,0.0,0.0,0.0,0.0,0.0,0.0,0.0,0.0,0.0,0.0,0.0,1.884,1.8783,0.0,0.0,0.0,0.0,0.0,0.0,0.0,0.0,0.0,0.0,0.0,0.0,0.0,0.0,0.0,0.0,0.0,0.0,0.0,0.0,0.0,0.0,0.0,0.0,0.0,0.0,0.0,0.0,0.0,0.0,0.0,0.0,0.0,0.0,0.0,0.0,0.0,0.0,0.0,0.0,1.7562,1.835,1.8898,1.9064,1.9228,1.9413,1.9574,1.9705,1.9556,1.9019,1.8038,0.0,0.0,0.0,0.0,0.0,0.0,0.0,0.0,0.0,0.0,0.0,0.0,0.0,0.0,0.0,0.0,0.0,0.0,0.0,0.0,0.0,0.0,0.0,0.0,0.0,0.0,0.0,0.0,0.0,0.0,0.0,0.0,0.0,0.0,0.0,0.0,0.0,0.0,0.0,0.0,0.0,0.0,0.0,0.0,0.0,0.0,0.0,0.0,0.0,0.0,0.0,0.0,0.0,0.0,0.0,0.0,0.0,0.0,0.0,1.9136,1.9017,0.0,0.0,0.0,0.0,0.0,0.0,0.0,0.0,0.0,0.0,0.0,0.0,0.0,0.0,0.0,0.0,0.0,0.0,0.0,0.0,0.0,0.0,0.0,0.0,0.0,0.0,0.0,0.0,0.0,0.0,0.0,0.0,0.0,0.0,0.0,0.0,0.0,0.0,0.0,0.0,1.7588,1.8361,1.886,1.9064,1.9213,1.9376,1.9501,1.9617,1.9512,1.9019,1.7884,0.0,0.0,0.0,0.0,0.0,0.0,0.0,0.0,0.0,0.0,0.0,0.0,0.0,0.0,0.0,0.0,0.0,0.0,0.0,0.0,0.0,0.0,0.0,0.0,0.0,0.0,0.0,0.0,0.0,0.0,0.0,0.0,0.0,0.0,0.0,0.0,0.0,0.0,0.0,0.0,0.0,0.0,0.0,0.0,0.0,0.0,0.0,0.0,0.0,0.0,0.0,0.0,0.0,1.9966,1.9916,2.041,1.9836,1.9898,2.033,1.9229,1.9139,1.9703,1.9092,0.0,0.0,0.0,0.0,0.0,0.0,0.0,0.0,0.0,0.0,0.0,0.0,0.0,0.0,0.0,0.0,0.0,0.0,0.0,0.0,0.0,0.0,0.0,0.0,1.9273,1.9074,1.8347,0.0,0.0,0.0,0.0,0.0,0.0,0.0,0.0,0.0,0.0,0.0,1.7646,1.8356,1.8822,1.9064,1.9176,1.9302,1.9376,1.9545,1.9465,1.8981,1.8049,1.7211,0.0,0.0,0.0,0.0,0.0,0.0,0.0,0.0,0.0,0.0,0.0,0.0,0.0,0.0,0.0,0.0,0.0,0.0,0.0,0.0,0.0,0.0,0.0,0.0,0.0,0.0,0.0,0.0,0.0,0.0,0.0,0.0,1.8139,1.8814,0.0,0.0,0.0,0.0,0.0,0.0,0.0,0.0,0.0,0.0,0.0,0.0,0.0,2.0099,2.0685,2.0563,2.0373,2.0185,2.0177,2.0143,2.0061,1.9969,1.9984,2.0061,1.9893,0.0,2.0371,2.026,0.0,0.0,0.0,0.0,0.0,0.0,0.0,0.0,0.0,0.0,0.0,0.0,0.0,0.0,0.0,0.0,0.0,0.0,0.0,0.0,0.0,0.0,1.9692,1.9624,1.9654,1.9522,0.0,1.8455,1.7835,1.72,1.6964,0.0,0.0,0.0,0.0,0.0,0.0,0.0,1.8268,1.8461,1.8697,1.9064,1.9101,1.9176,1.9302,1.9376,1.9515,1.9641,1.9004,1.8604,1.8709,1.7456,0.0,0.0,0.0,0.0,0.0,0.0,0.0,0.0,0.0,0.0,0.0,0.0,0.0,0.0,0.0,0.0,0.0,0.0,0.0,0.0,0.0,0.0,0.0,0.0,0.0,0.0,0.0,0.0,0.0,1.8461,1.8817,1.8788,1.8883,1.8778,0.0,0.0,0.0,0.0,0.0,0.0,0.0,0.0,0.0,1.9844,1.997,2.0198,2.0527,2.022,2.003,1.9945,1.996,1.9955,1.9884,1.9884,2.0131,2.0567,2.0567,2.0874,2.1274,2.0542,2.0373,2.0545,0.0,0.0,0.0,0.0,1.9606,1.9524,1.9589,1.9524,1.9315,1.8883,0.0,0.0,0.0,0.0,0.0,0.0,0.0,0.0,0.0,0.0,1.9309,1.9362,1.9142,1.8959,1.9064,1.8682,1.8182,0.0,1.763,1.7436,1.6819,0.0,0.0,0.0,0.0,1.732,1.8198,1.8439,1.862,1.8912,1.9026,1.9139,1.9302,1.9339,1.9413,1.956,1.9041,1.8736,1.8755,1.7934,1.7209,0.0,0.0,0.0,0.0,0.0,0.0,0.0,0.0,0.0,0.0,0.0,0.0,0.0,0.0,0.0,0.0,0.0,0.0,0.0,0.0,0.0,0.0,0.0,0.0,0.0,0.0,0.0,0.0,1.9378,1.9365,1.918,1.9147,1.9041,0.0,0.0,0.0,0.0,0.0,0.0,1.9051,1.961,1.9828,1.9665,2.0027,2.0277,2.0375,2.0131,2.0062,2.0242,2.0205,2.0183,2.0235,2.0287,2.0632,2.119,2.119,2.1462,2.184,2.0879,2.065,2.0828,2.0707,2.0757,2.0813,2.0593,2.0496,2.0461,2.0426,2.0254,1.9999,1.9611,1.9328,1.9059,1.8608,0.0,0.0,0.0,0.0,2.0696,2.0105,1.9545,1.9141,1.9083,1.8665,1.8422,1.8707,1.8539,1.8305,0.0,1.8175,1.7932,1.7036,0.0,0.0,1.7112,1.7204,1.7536,1.8173,1.8464,1.8644,1.8874,1.9026,1.9139,1.9228,1.9302,1.9339,1.9465,1.9099,1.8852,1.8802,1.8246,1.7614,1.6895,0.0,0.0,0.0,0.0,0.0,0.0,0.0,0.0,0.0,0.0,0.0,0.0,0.0,0.0,0.0,0.0,0.0,0.0,0.0,0.0,0.0,0.0,0.0,0.0,0.0,0.0,0.0,0.0,0.0,2.1091,2.0515,0.0,0.0,0.0,0.0,1.8898,1.9263,1.9483,1.9483,1.9973,2.0208,2.0054,2.003,2.0186,2.0565,2.0565,2.0855,2.1416,2.1466,2.1466,2.1416,2.155,2.162,2.165,2.165,2.1704,2.1734,2.1855,2.1949,2.2011,2.1795,2.1819,2.1896,2.1084,2.0857,2.0946,2.082,2.0451,2.0084,2.0477,2.0161,1.9674,2.0203,2.0344,0.0,0.0,2.1263,2.1116,2.0553,2.0113,1.9674,1.9056,1.8693,1.8383,1.7948,1.7828,1.7988,0.0,1.8372,1.8069,1.772,0.0,1.7841,1.7841,1.7988,1.8201,1.8478,1.8644,1.886,1.9064,1.9101,1.9101,1.9101,1.9228,1.9376,1.9574,1.9472,1.9442,1.963,1.8812,1.8247,1.7949,1.6816,0.0,0.0,0.0,0.0,0.0,0.0,0.0,0.0,0.0,0.0,0.0,0.0,0.0,0.0,0.0,0.0,0.0,0.0,0.0,0.0,0.0,0.0,0.0,0.0,0.0,0.0,0.0,0.0,2.0335,2.019,0.0,1.9875,1.9561,1.9562,1.9909,2.0045,2.0053,1.9885,2.0165,2.015,1.9854,2.0204,2.04,2.0487,2.073,2.1013,2.1304,2.1329,2.1425,2.152,2.156,2.1839,2.2364,2.2389,2.2656,2.3062,2.3228,2.2793,2.2017,2.194,2.1979,2.1987,2.159,2.1437,2.1452,2.1413,2.1242,2.1114,2.1175,2.1017,2.0839,2.1382,2.1241,2.1064,2.1711,2.1405,2.0877,2.1021,2.0175,1.9355,1.9517,1.8943,1.8344,1.8266,1.7988,1.7868,1.8147,1.7962,1.7814,1.8003,1.7963,1.7882,1.776,1.7922,1.8083,1.8282,1.8464,1.8683,1.8912,1.9026,1.9101,1.9101,1.9139,1.9176,1.9265,1.9302,1.9339,1.9325,1.8957,1.8469,1.7819,1.7093,1.5949,0.0,0.0,0.0,0.0,0.0,0.0,0.0,0.0,0.0,0.0,0.0,0.0,0.0,0.0,0.0,0.0,0.0,0.0,0.0,0.0,0.0,0.0,0.0,0.0,0.0,1.9874,2.0125,2.0147,2.021,2.0194,2.0019,2.0051,2.0239,2.053,2.0494,2.0392,2.022,2.0485,2.0431,2.0019,2.0624,2.0971,2.0955,2.1216,2.1537,2.184,2.1867,2.1993,2.2174,2.2256,2.2577,2.308,2.3149,2.3474,2.3882,2.4024,2.3549,2.2757,2.2702,2.2702,2.2686,2.2324,2.2169,2.2049,2.1791,2.1816,2.1909,2.1641,2.1384,2.1296,2.193,2.1764,2.1517,2.2289,2.2016,2.1568,2.169,2.0717,1.9759,1.9968,1.9222,1.8508,1.8632,1.8234,1.7989,1.8262,1.7855,1.7611,1.7963,1.7963,1.7882,1.776,1.7963,1.8163,1.8282,1.8542,1.8736,1.8912,1.9026,1.9101,1.9101,1.9101,1.9101,1.9139,1.9213,1.9213,1.9176,1.8965,1.8574,1.7909,1.7106,1.5918,1.4325,0.0,0.0,0.0,0.0,0.0,0.0,0.0,0.0,0.0,0.0,0.0,0.0,0.0,0.0,0.0,0.0,0.0,0.0,0.0,0.0,0.0,0.0,0.0,2.0178,2.0076,2.0225,2.0748,2.0794,2.0794,2.0794,2.0775,2.0724,2.0724,2.0571,2.045,2.045,2.0998,2.1118,2.0654,2.1365,2.1821,2.1989,2.2019,2.2382,2.3127,2.3246,2.3363,2.3509,2.3711,2.3797,2.3797,2.394,2.4024,2.4024,2.4166,2.4223,2.4223,2.4082,2.4082,2.409,2.331,2.2929,2.275,2.2004,2.2101,2.2452,2.1846,2.1321,2.1042,2.1983,2.1969,2.1846,2.2843,2.3157,2.3084,2.2451,2.1685,2.0941,2.0382,1.9557,1.8943,1.8898,1.8524,1.8262,1.8764,1.8138,1.757,1.7679,1.7801,1.7882,1.7922,1.8242,0.0,1.8517,1.8851,1.9101,1.9101,1.9101,1.9101,1.9101,1.9101,1.9139,1.9302,1.9176,1.9139,1.9302,1.8874,1.85,1.8279,1.6851,1.5517,1.4321,0.0,0.0,0.0,0.0,0.0,0.0,0.0,0.0,0.0,0.0,0.0,0.0,0.0,0.0,0.0,0.0,0.0,0.0,0.0,0.0,0.0,2.002,2.04,1.9971,2.0305,2.0621,2.0778,2.0744,2.0726,2.0726,2.1133,2.1362,2.1225,2.1708,2.1916,2.1732,2.1916,2.1843,2.1419,2.2104,2.2431,2.2232,2.2702,2.3113,2.3378,2.3422,2.3494,2.3566,2.3739,2.3797,2.3797,2.4024,2.4166,2.4166,2.4333,2.4416,2.4416,2.4208,2.4166,2.4151,2.3827,2.3709,2.361,2.334,2.3316,2.3377,2.3068,2.2889,2.2799,2.2949,2.2663,2.2374,2.3038,2.2466,2.1758,2.2298,2.1447,2.0492,2.0733,2.0302,1.9781,1.9454,1.8997,1.8636,1.8452,1.7984,1.7747,1.8082,1.7975,1.7963,1.8083,1.8202,0.0,1.8683,1.8822,1.8936,1.9064,1.9101,1.9101,1.9101,1.9101,1.9101,1.9139,1.9101,1.9101,1.9139,1.8736,1.8268,1.7666,1.6834,1.6058,0.0,0.0,0.0,0.0,0.0,0.0,0.0,0.0,0.0,0.0,0.0,0.0,0.0,0.0,0.0,0.0,0.0,0.0,0.0,0.0,0.0,0.0,2.0352,2.0652,2.0273,2.0557,2.0794,2.0794,2.0777,2.0744,2.0744,2.1287,2.1659,2.1608,2.2212,2.2388,2.2019,2.2508,2.254,2.1901,2.2849,2.3167,2.2829,2.3243,2.3494,2.3625,2.3625,2.3668,2.3782,2.3925,2.3982,2.3982,2.4151,2.425,2.4234,2.4374,2.44,0.0,0.0,0.0,0.0,0.0,2.4024,2.3982,2.3839,2.3739,2.3696,2.3581,2.3363,2.3127,2.3083,2.2649,2.2328,2.2663,2.2189,2.1704,2.2267,2.1643,2.0928,2.1268,2.0946,2.0457,2.0253,1.9795,1.9297,1.8822,1.843,0.0,1.8256,1.8109,1.8083,1.8163,1.8347,1.8528,1.8784,1.886,1.8988,1.9101,1.9101,1.9101,1.9101,1.9101,0.0,0.0,0.0,1.8988,1.8784,1.8528,0.0,0.0,0.0,0.0,0.0,0.0,0.0,0.0,1.2149,1.1518,0.0,0.0,0.0,0.0,0.0,0.0,0.0,0.0,0.0,0.0,0.0,0.0,0.0,0.0,0.0,0.0,2.0415,2.0794,2.0794,2.0794,2.0794,2.0794,2.0794,2.0794,2.0794,2.1287,2.1674,2.185,2.2264,2.23,2.1835,2.2873,0.0,0.0,0.0,2.3872,2.3533,2.3651,2.3739,2.3839,2.3839,2.3925,2.4024,2.4242,2.4326,2.4265,2.4394,2.4421,2.4343,2.4343,2.4359,2.4359,2.4457,2.4498,2.4457,2.4291,2.4124,2.4024,2.3882,0.0,0.0,2.3638,2.3246,2.2785,2.2754,2.242,2.2035,2.2077,2.2156,2.2235,2.2235,2.1969,2.1712,2.1712,2.1375,2.0997,2.0997,2.0628,2.0147,1.9714,1.9255,1.8838,1.8396,1.8284,1.8242,1.8268,1.8567,1.8822,1.8822,1.8988,1.9101,1.9101,0.0,0.0,1.9101,1.9101,1.9101,1.9101,1.9064,1.8822,1.8358,1.8279,1.8002,1.7404,1.7253,1.7044,1.6718,1.6262,1.5724,1.4994,1.2928,1.1864,0.0,0.0,0.0,0.0,0.0,0.0,0.0,0.0,0.0,0.0,0.0,0.0,0.0,0.0,0.0,2.051,2.0715,2.0794,2.0794,2.0794,2.0794,2.0794,2.0744,2.0726,2.0726,2.1321,2.1659,2.1639,2.2269,2.2619,2.2514,2.2702,2.2683,2.2521,2.3173,2.3431,2.3178,2.3819,2.4094,2.3982,0.0,0.0,2.4094,2.4898,2.4952,2.4488,2.5155,2.5103,2.4549,2.4645,2.4701,2.4701,2.4441,2.4359,2.4317,2.4317,2.4276,2.4234,2.4166,2.4124,2.4024,2.3839,2.3696,2.3523,2.3127,2.2934,0.0,2.2466,2.2156,2.1888,2.1888,2.1506,2.1131,2.1131,2.1082,2.0997,2.0997,2.0819,2.0593,2.0484,1.9818,1.9265,1.9193,1.8747,1.8503,1.8644,1.8745,1.886,1.9026,1.9064,1.9101,1.9101,1.9101,1.9101,1.9101,1.9101,1.9101,1.9101,1.8936,1.876,1.8464,1.8201,1.7882,1.7488,1.7282,1.7073,1.6846,1.6565,1.6207,1.5768,1.405,1.2871,0.0,0.0,0.0,0.0,0.0,0.0,0.0,0.0,0.0,0.0,0.0,2.0036,2.0477,0.0,2.0544,2.078,2.0794,2.0794,2.0794,2.0794,2.0794,2.0794,2.0777,2.0744,2.0744,2.1321,2.1729,2.1745,2.2342,2.2598,2.2319,2.2598,2.2572,2.2155,2.3086,2.3538,2.3341,2.4085,2.4385,2.4302,2.4385,2.4426,2.44,2.5206,2.543,2.5165,2.5878,2.5987,2.5628,2.5342,2.5325,2.5359,2.4688,2.4467,2.4467,2.4467,2.4441,2.44,2.4276,2.4193,2.4135,2.4024,2.394,2.3839,2.3377,2.3201,2.3009,2.2342,2.2203,2.2203,2.1935,2.1935,2.1874,2.1664,2.1698,2.1684,2.1458,2.1431,2.1347,2.1056,2.0707,2.0302,1.9719,1.9404,1.9184,1.8841,1.8898,1.8988,1.9101,1.9101,1.9101,1.9101,1.9101,1.9101,1.9101,1.9101,1.9101,1.9101,1.8898,1.8721,1.8517,1.8228,1.7922,1.7516,1.7393,1.7199,1.6876,1.6705,1.6337,1.5788,1.4606,1.3732,0.0,0.0,0.0,0.0,0.0,0.0,0.0,2.0485,2.0544,2.0845,2.0773,2.0766,2.1054,2.1071,2.099,2.0827,2.0794,2.0794,2.0794,2.0794,2.0794,2.0794,2.0794,2.0794,2.0794,2.1248,2.1594,2.1713,2.2153,2.2216,2.1813,2.229,2.2287,2.1629,2.3006,2.3642,2.355,2.4367,2.4791,2.4695,2.4791,2.4854,2.5011,2.5617,2.5869,2.59,2.6466,2.6781,2.6859,2.6351,2.6182,2.6268,2.5526,2.5183,2.5111,2.4723,2.4564,2.4513,2.4555,2.4487,2.4392,2.4587,2.4472,2.418,2.3746,2.3466,2.3084,2.2235,2.2374,2.2649,2.2296,2.2526,2.2799,2.248,2.2434,2.2388,2.203,2.2123,2.2122,2.1629,2.1623,2.1355,2.038,2.0229,1.9962,1.9013,1.8988,1.9145,1.9275,1.929,1.9371,1.9564,1.9502,1.942,1.9304,1.9174,1.9101,1.9101,1.8989,1.8772,1.8517,1.8464,1.8249,1.7731,1.7689,1.7494,1.7127,1.6854,1.6392,1.5776,1.505,1.4365,1.9758,2.0682,2.1621,2.2229,2.2754,2.3061,0.0,2.2768,2.2728,2.2503,2.1775,2.1197,2.1119,2.0958,2.0827,2.0794,2.0794,2.0794,2.0794,2.0794,2.0794,2.0794,2.0794,2.0794,2.0794,2.0873,2.0987,2.1183,2.1263,2.1295,2.1343,2.1456,2.1456,2.1343,2.2697,2.3404,2.3333,2.4777,2.5362,2.5153,2.5362,2.5776,2.6294,2.643,2.6518,2.6613,2.6654,2.7082,2.768,2.7599,2.7567,2.7591,2.747,2.7315,2.6892,2.519,2.4589,2.4683,2.5332,2.5481,2.5447,2.5962,2.5674,2.5009,2.4567,2.397,2.3319,2.295,2.2891,2.2935,2.2891,2.283,2.2785,2.3039,2.2663,2.231,2.2572,2.2586,2.254,2.2469,2.219,2.1903,2.1772,2.1293,2.048,1.9237,1.9101,1.9319,1.9914,1.9986,2.0308,2.1154,2.0988,2.0567,2.003,1.9449,1.9101,1.9101,1.9262,1.9079,1.8531,1.9168,1.9195,1.8513,1.8286,1.8113,1.7957,1.7119,1.6675,1.6577,1.582,1.4812,2.0838,2.1423,2.1985,2.2939,2.3386,2.3612,2.3826,2.3804,2.3727,2.3537,2.316,2.2703,2.2134,2.1956,2.1714,2.107,2.1023,2.1055,2.099,2.1023,2.1247,2.1697,2.1745,2.1552,2.1038,2.0958,2.1023,2.1183,2.123,2.1246,2.1309,2.1309,2.1518,2.1988,2.2913,2.3624,2.4097,2.5102,2.5778,2.6066,2.6199,2.661,2.7267,2.7688,2.8109,2.8482,2.8482,2.8744,2.9146,2.8598,2.8461,2.8519,2.8005,2.7721,2.7517,2.6579,2.6182,2.6078,2.6318,2.6369,2.633,2.6523,2.637,2.5973,2.5426,2.5017,2.4567,2.3756,2.3736,2.3879,2.3608,2.3651,2.3752,2.3666,2.3363,2.3068,2.2934,2.2873,2.2752,2.2752,2.279,2.2658,2.2091,2.197,2.1636,2.0651,2.0504,2.0607,2.0887,2.1089,2.1257,2.1486,2.1395,2.1131,2.068,2.0172,2.0068,2.0489,2.0103,1.9864,1.9855,1.985,1.9639,1.9104,1.903,1.8884,1.8616,1.8202,1.7952,1.7817,1.7131,1.6503,2.1645,2.1976,2.2314,2.3367,2.3733,2.3981,2.4326,2.4488,2.4493,2.4179,2.4049,2.377,2.3161,2.2801,2.2362,2.1569,2.1391,2.1262,2.1167,2.1423,2.1811,2.2329,2.2572,2.2475,2.1876,2.1762,2.1908,2.2232,2.2297,2.2361,2.2377,2.2425,2.2588,2.298,2.3604,2.4243,2.4886,2.552,2.6204,2.6962,2.6749,2.7158,2.8059,2.8543,2.9165,2.9819,2.9819,3.0035,3.0326,2.9674,2.9486,2.9527,2.8911,2.8592,2.8453,2.8271,2.7753,2.72,2.7202,2.7221,2.7209,2.7277,2.717,2.6876,2.6436,2.6014,2.5524,2.4702,2.4565,2.4589,2.4245,2.4369,2.4508,2.4271,2.4036,2.3754,2.3436,2.3231,2.3068,2.2978,2.326,2.3273,2.2498,2.271,2.2825,2.2233,2.2239,2.2219,2.2039,2.2452,2.2613,2.2214,2.2089,2.1944,2.158,2.1173,2.1126,2.1605,2.1154,2.091,2.1053,2.0798,2.0443,2.0011,1.98,1.9586,1.9324,1.9074,1.8858,1.8647,1.8119,1.7821,2.186,2.2277,2.292,2.3543,2.4142,2.4567,2.4506,2.4987,2.521,2.4376,2.4032,2.3902,2.3885,2.3047,2.2394,2.2377,2.1778,2.1309,2.1277,2.1924,2.2361,2.2394,2.3027,2.35,2.3603,2.3502,2.3779,2.4638,2.4824,2.4927,2.508,2.5213,2.4945,2.4273,2.4945,2.5347,2.5363,2.6117,2.6853,2.7557,2.6853,2.7289,2.8678,2.8695,2.9113,2.9794,2.9794,3.0218,3.0871,3.0855,3.0838,3.0838,3.0804,3.0567,3.0227,3.0227,2.9023,2.747,2.7914,2.7973,2.8009,2.8637,2.831,2.7687,2.7823,2.6823,2.5701,2.5785,2.534,2.4782,2.4782,2.462,2.458,2.4886,2.4482,2.3982,2.3982,2.3754,2.348,2.3171,2.3523,2.3752,2.3334,2.3608,2.3849,2.3819,2.4096,2.4055,2.3341,2.4091,2.4511,2.3964,2.364,2.3319,2.2945,2.2337,2.1957,2.1987,2.235,2.2274,2.1699,2.2047,2.1928,2.1334,2.0593,2.0187,2.014,1.9271,1.8825,1.8779,1.852,1.832,2.1836,2.193,2.209,2.2167,2.2675,2.3317,2.3676,2.4666,2.5411,2.5126,2.538,2.5429,2.488,2.4481,2.4033,2.3357,2.2752,2.2309,2.223,2.2538,2.2914,2.3408,2.4543,2.5535,2.6104,2.4623,2.3997,2.4924,2.463,2.4663,2.5163,2.4845,2.4809,2.5076,2.5295,2.5648,2.6202,2.6402,2.6837,2.7557,2.7771,2.839,2.9365,2.9365,2.9783,3.0503,3.0503,3.0677,3.0912,3.0912,3.0912,3.0912,3.079,3.0692,3.0551,3.03,2.9819,2.9231,2.9242,2.9191,2.9195,2.9419,2.9204,2.8799,2.8399,2.749,2.6556,2.6109,2.5478,2.4926,2.4926,2.4886,2.4886,2.5123,2.4871,2.4574,2.4695,2.4477,2.4214,2.4147,2.4158,2.4241,2.4173,2.4256,2.4486,2.491,2.4902,2.4879,2.4834,2.5141,2.5169,2.4775,2.465,2.439,2.3907,2.3396,2.3274,2.365,2.3354,2.3188,2.3295,2.2805,2.2412,2.2016,2.1335,2.0933,2.0836,2.0457,2.0233,2.021,1.9891,1.978,2.1829,2.1531,2.1295,2.1438,2.1772,2.2293,2.2949,2.4154,2.5156,2.5156,2.5697,2.5967,2.5397,2.4796,2.4281,2.3869,2.3307,2.2959,2.3176,2.3503,2.3999,2.4797,2.5728,2.6593,2.7417,2.5775,2.5292,2.6676,2.5897,2.5715,2.6434,2.5883,2.5664,2.5932,2.5882,2.6101,2.6623,2.6589,2.679,2.7226,2.825,2.8971,2.9479,2.971,3.0286,3.0992,3.0992,3.0992,3.0992,3.0992,3.0992,3.0992,3.0895,3.0855,3.0773,3.0568,3.0443,3.0316,2.9941,2.9793,2.9793,2.9793,2.9722,2.9508,2.9042,2.8361,2.7609,2.7131,2.6317,2.5623,2.5623,2.5416,2.524,2.5394,2.5224,2.5091,2.5091,2.4958,2.4784,2.4648,2.4712,2.4752,2.4744,2.4823,2.5044,2.5465,2.5497,2.553,2.5696,2.5696,2.5605,2.5301,2.5301,2.5107,2.467,2.4422,2.4398,2.467,2.4209,2.4122,2.4395,2.3623,2.3098,2.2905,2.2221,2.1779,2.1471,2.1277,2.1109,2.0888,2.0625,2.0511,2.1725,2.1079,2.061,2.1246,2.1343,2.149,2.2258,2.3539,2.452,2.4506,2.5021,2.5479,2.5363,2.4143,2.3316,2.3967,2.347,2.3303,2.4098,2.4813,2.5597,2.6452,2.6586,2.6922,2.7643,2.7056,2.7506,2.9699,2.8505,2.7986,2.8777,2.8159,2.7503,2.6776,2.6793,2.6776,2.6691,2.6691,2.6691,2.6708,2.8213,2.8941,2.9008,2.977,3.0497,3.119,3.119,3.119,3.119,3.119,3.119,3.119,3.119,3.1112,3.1015,3.0975,3.0855,3.0651,3.007,2.9853,2.9853,2.9853,2.9853,2.9793,2.9793,2.9324,2.879,2.879,2.7794,2.6691,2.6691,2.614,2.5605,2.5605,2.5605,2.553,2.5208,2.5208,2.5153,2.4847,2.5198,2.5389,2.502,2.5291,2.554,2.554,2.5901,2.6132,2.5934,2.5934,2.5844,2.5642,2.5642,2.5546,2.5333,2.5333,2.5217,2.5045,2.5005,2.5005,2.5005,2.441,2.4021,2.3921,2.3201,2.2543,2.203,2.1746,2.1388,2.0938,2.0675,2.0524,2.0327,1.9814,1.9504,1.9097,1.9338,2.0021,2.1232,2.2655,2.3863,2.4404,2.5084,2.5392,2.4757,2.479,2.4877,2.488,2.473,2.4896,2.5629,2.5896,2.633,2.7241,2.7811,2.8448,2.9227,2.8656,2.8945,3.0707,2.8393,2.7448,2.8743,2.8159,2.7705,2.7554,2.8095,2.7841,2.6708,2.6691,2.6691,2.6708,2.7672,2.8416,2.9008,2.977,3.0497,3.119,3.119,3.119,3.119,3.119,3.119,3.119,3.1095,3.1015,3.0975,3.0935,3.0912,3.0831,3.0692,3.0468,3.0342,3.0342,3.0215,3.0103,3.0103,2.9469,2.879,2.879,2.7794,2.6691,2.6691,2.614,2.5642,2.577,2.5807,2.5844,2.5897,2.5934,2.5917,2.5828,2.5917,2.5864,2.5427,2.5738,2.6026,2.6026,2.6132,2.6168,2.6132,2.6132,2.6096,2.6059,2.6059,2.597,2.5749,2.5621,2.5432,2.5256,2.5084,2.5005,2.5005,2.441,2.4063,2.4063,2.3333,2.2891,2.2725,2.2156,2.1807,2.1582,2.1023,2.0725,1.9777,1.9139,1.8706,1.8254,1.8417,1.9076,2.0491,2.1701,2.2841,2.4001,2.4475,2.4571,2.4164,2.4295,2.4508,2.4746,2.5296,2.5963,2.682,2.7205,2.7727,2.8592,2.8777,2.9151,2.993,2.9323,2.9276,3.0159,2.8634,2.8176,2.9286,2.8718,2.8332,2.8332,2.8755,2.8569,2.7706,2.7706,2.7706,2.7706,2.8467,2.9059,2.9499,3.0243,3.0818,3.119,0.0,3.119,3.119,3.119,3.119,3.119,3.1112,3.1112,3.1072,3.1032,3.0992,3.0935,3.0935,3.0831,3.0692,3.0692,3.0568,3.0401,3.0401,2.9995,2.9541,2.9541,2.8723,2.7814,2.7519,2.6896,2.6311,2.6089,2.6043,2.6043,2.6184,2.622,2.622,2.622,2.622,2.6132,2.5848,2.6043,2.622,2.622,2.622,2.622,2.622,2.622,2.622,2.622,2.622,2.6132,2.5934,2.5733,2.5492,2.5333,2.5123,2.5005,2.5005,2.467,2.4467,2.4426,2.3921,2.3608,2.3363,2.2875,2.2342,2.1888,2.1437,2.1073,1.9539,1.878,1.8211,1.8211,1.8258,1.8702,2.011,2.1036,2.1988,2.3577,2.3704,2.3545,2.3556,2.3379,2.3415,2.4108,2.5313,2.6584,2.77,2.8407,2.9168,3.0104,2.9583,2.9431,3.0176,2.9567,2.9178,2.9262,2.9279,2.9516,3.0074,2.9482,2.9178,2.9279,2.9076,2.9025,2.9127,2.9025,2.9011,2.8991,2.9753,3.0108,3.0142,3.0869,3.119,3.119,3.119,3.119,3.119,3.119,3.119,3.119,3.119,3.119,3.119,3.119,3.1112,3.1015,3.1015,3.0992,3.0952,3.0912,3.0831,3.0733,3.0692,3.0609,3.0526,3.0526,2.998,2.9251,2.8555,2.7864,2.7098,2.6385,2.622,2.622,2.622,2.6203,2.6203,2.6203,2.6256,2.6239,2.6203,2.6203,2.6203,2.622,2.622,2.622,2.622,2.622,2.622,2.622,2.622,2.6132,2.597,2.577,2.5546,2.5355,2.5162,2.5045,2.5005,2.5005,2.4942,2.4822,2.4686,2.4385,2.3925,2.3595,2.2965,2.2077,2.1876,2.151,1.8784,1.8314,1.8211,1.8211,1.8616,1.9419,2.0881,2.1772,2.2603,2.368,2.387,2.3626,2.2995,2.332,2.3847,2.4298,2.5093,2.6337,2.8339,2.8727,2.9353,3.0835,3.0362,3.0209,3.0937,3.0345,3.0159,3.0768,3.0801,3.0598,3.0142,2.9989,3.0192,3.0784,2.9634,2.9279,2.9905,2.9296,2.9011,2.8991,2.9753,3.0108,3.0142,3.0869,3.119,3.119,3.119,0.0,3.119,3.119,3.119,3.119,3.119,3.119,3.119,3.119,3.119,3.1151,3.1151,3.1151,3.1112,3.0952,3.0871,3.0814,3.0733,3.0692,3.0651,3.051,2.998,2.9251,2.8555,2.7864,2.7098,2.6385,2.622,2.622,2.622,2.6258,2.626,2.626,2.6364,2.6415,2.6312,2.626,2.6277,2.6203,2.622,2.622,2.622,2.622,2.622,2.622,2.622,2.6184,2.6132,2.597,2.577,2.5567,2.5355,2.5162,2.5005,2.5005,2.4966,2.4982,2.4806,2.4645,2.4467,2.3952,2.3334,2.2572,2.2642,2.2256,1.9251,1.8976,1.8871,1.8467,1.9195,2.0222,2.0929,2.1645,2.2476,2.3534,2.3661,2.3447,2.2979,2.3335,2.375,2.3883,2.4787,2.6168,2.8005,2.8648,2.9495,3.1021,3.0886,3.0818,3.1157,3.0886,3.0818,3.1173,3.119,3.1055,3.0683,3.0666,3.0835,3.119,3.0497,3.0294,3.0666,3.0311,3.0125,3.0142,3.0497,3.0666,3.0683,3.1038,3.119,3.119,3.119,3.119,3.119,3.119,3.119,3.119,3.119,3.119,3.119,3.119,3.119,3.119,3.119,3.119,3.119,3.1072,3.1032,3.0935,3.0814,3.0749,3.0692,3.0609,3.0303,2.9831,2.9181,2.8771,2.8222,2.7088,2.6576,2.6362,2.6362,2.6364,2.6399,2.6399,2.645,2.6485,2.6434,2.6399,2.6364,2.6258,2.6241,2.6222,2.6203,2.622,2.622,2.622,2.622,2.622,2.622,2.6023,2.5807,2.5605,2.5394,2.5217,2.5005,2.5005,2.5005,2.5005,2.4862,2.4726,2.4589,2.4656,2.4338,2.3716,2.4022,2.3877,1.9872,1.9729,1.9664,1.9182,1.9976,2.0951,2.1286,2.1829,2.2498,2.3396,2.3473,2.333,2.3206,2.3414,2.3574,2.3574,2.4584,2.5979,2.7657,2.852,2.9533,3.1021,3.119,3.119,3.119,3.119,3.119,3.119,3.119,3.119,3.119,3.119,3.119,3.119,3.119,3.119,3.119,3.119,3.119,3.119,3.119,3.119,3.119,3.119,3.119,3.119,3.119,3.119,3.119,3.119,3.119,3.119,3.119,3.119,3.119,3.119,3.119,3.119,3.119,3.119,3.119,3.119,3.1112,3.1015,3.0952,3.0871,3.0773,3.0733,3.0651,3.0443,2.9832,2.9632,2.9265,2.7798,2.6969,2.6485,2.6485,2.652,2.652,2.652,2.6554,2.6554,2.652,2.652,2.6468,2.6347,2.6383,2.6418,2.6347,2.6347,2.6347,2.6347,2.6274,2.622,2.622,2.6059,2.5897,2.5696,2.5508,2.5333,2.5084,2.5187,2.5267,2.5227,2.528,2.5221,2.5082,2.5544,2.5446,2.4882,2.5403,2.5368,1.9991,1.979,2.0128,2.0791,2.1021,2.1462,2.2914,2.3249,2.3343,2.3548,2.3606,2.354,2.3486,2.3489,2.3637,2.4068,0.0,2.5725,2.7859,2.8662,2.9533,3.1021,3.119,3.119,3.119,3.119,3.119,3.119,3.119,3.119,3.119,3.119,3.119,3.119,3.119,3.119,3.119,3.119,3.119,3.119,3.119,3.119,3.119,3.119,3.119,3.119,3.119,3.119,0.0,3.119,3.119,3.119,3.119,3.119,3.119,3.119,3.119,3.119,3.119,3.119,3.119,3.119,3.119,3.1151,3.1015,3.0975,3.0975,3.0912,3.0871,3.0704,2.9984,2.98,2.9415,2.7908,2.7021,2.6485,2.6485,2.6554,2.6589,2.6589,2.6657,2.6674,2.6606,2.6589,2.6589,2.6485,2.6691,2.6839,2.6839,2.6839,2.6839,2.6839,2.6435,2.622,2.622,2.6168,2.6096,2.5897,2.586,2.5659,2.5294,2.5863,2.6077,2.5914,2.6562,2.6808,2.6706,2.6623,2.6255,2.5696,2.6186,2.6096,2.226,2.2584,2.3048,2.2865,2.3151,2.3509,2.3692,2.3689,2.3692,2.3858,2.3876,2.3774,2.354,2.3508,2.3501,0.0,0.0,0.0,2.6582,2.7432,2.8526,3.0332,3.092,3.119,3.119,3.119,3.119,3.119,3.119,3.119,3.119,3.119,3.119,3.119,3.1252,3.1274,3.1274,3.1346,3.1402,3.1402,3.1402,3.1402,3.1402,3.1402,3.1402,3.1402,3.1402,3.1402,0.0,3.1402,3.1346,3.1274,3.1274,3.1252,3.119,3.119,3.119,3.119,3.119,3.119,3.119,3.119,3.119,3.119,3.1015,3.1015,3.0975,3.0975,3.0952,3.0845,3.0583,3.0019,2.9302,2.8634,2.7657,2.6892,2.664,2.6657,2.664,2.664,2.6674,2.6775,2.694,2.6973,2.6989,2.7083,2.7175,2.7269,2.7224,2.7192,2.7192,2.7192,2.6856,2.659,2.6521,2.6538,2.6435,2.6154,2.599,2.5891,2.5902,2.615,2.642,2.6656,2.6957,2.7056,2.6895,2.7259,2.7223,2.6903,2.7485,2.7598,2.3774,2.4133,2.4468,2.4377,2.4392,2.4408,2.4338,2.4119,2.3937,2.4074,2.4054,2.3917,2.3671,2.3602,2.3531,0.0,0.0,2.454,2.6347,2.731,2.8476,3.0347,3.0946,3.119,3.119,3.119,3.119,3.119,3.123,3.1213,3.1213,3.1269,3.1269,3.119,3.1274,3.1295,3.1295,3.1423,3.1517,3.1517,3.1517,3.1517,3.1517,3.1517,3.1517,3.1517,3.1517,3.1517,0.0,3.1517,3.1462,3.1351,3.1351,3.1329,3.1252,3.1368,3.1329,3.123,3.1329,3.1368,3.1368,3.1368,3.1428,3.1504,3.1411,3.1295,3.1218,3.1372,3.1181,3.1023,3.1304,3.0358,2.935,2.9466,2.8579,2.7604,2.7148,2.708,2.7113,2.6892,2.6923,2.7068,2.7307,2.7338,2.7382,2.753,2.7631,2.766,2.7601,2.7619,2.7619,2.7619,2.7391,2.7144,2.6939,2.6906,2.691,2.6876,2.6683,2.6689,2.6951,2.7098,2.7265,2.7454,2.7632,2.7655,2.7551,2.7978,2.8122,2.8,2.8404,2.8429,2.3816,2.3411,2.34,2.4979,2.419,2.3456,2.5016,2.4759,2.417,2.4113,2.4054,2.3976,2.3917,2.3837,2.3795,2.3795,0.0,0.0,2.786,2.8844,2.9936,3.1487,3.1389,3.119,3.119,3.119,3.119,3.119,3.1274,3.1295,3.1295,3.1406,3.1402,3.119,3.1274,3.1295,3.1295,3.1423,3.1517,3.1517,3.1517,3.1517,3.1517,3.1517,3.1517,3.1517,3.1517,3.1517,0.0,3.1517,3.1517,3.1517,3.1517,3.1406,3.1334,3.1748,3.1617,3.1269,3.1582,3.1677,3.1677,3.1677,3.1967,3.2283,3.2283,3.2003,3.1787,3.2162,3.1705,3.1268,3.209,3.0872,2.9592,3.0386,2.9776,2.8738,2.7977,2.8066,2.806,2.7336,2.7444,2.7701,2.7683,2.7683,2.7701,2.7701,2.7926,2.8084,2.8102,2.8102,2.8102,2.8102,2.8102,2.789,2.7439,2.7258,2.7523,2.823,2.8133,2.8201,2.8469,2.8913,2.8902,2.8398,2.8833,2.9059,2.9059,2.8951,2.8889,2.8904,2.87,2.8155,2.4899,2.5177,2.5585,2.6098,2.5419,2.4759,2.5293,2.4777,2.417,2.4113,2.4054,2.3976,2.3917,2.3855,2.4157,2.5262,2.5809,0.0,2.8352,2.9929,3.0914,3.094,3.1293,3.1449,3.123,3.119,3.119,3.119,3.123,3.1252,3.1295,3.1351,3.1368,3.1402,3.1483,3.1504,3.1504,3.1634,3.1688,3.1688,3.1688,3.1688,3.1688,3.1688,3.1688,3.1688,3.1688,3.1688,3.1726,3.1948,3.202,3.202,3.2249,3.2248,3.2109,3.2214,3.2162,3.2039,3.2109,3.2109,3.2109,3.2109,3.2214,3.2351,3.2568,3.2401,3.2144,3.2283,3.2107,3.1861,3.1547,3.119,3.0797,3.0307,3.0127,2.9913,2.9478,2.9458,2.9309,2.8583,2.8534,2.8505,2.8164,2.8075,2.812,2.837,2.8422,2.8448,2.8448,2.8448,2.8448,2.8448,2.8448,2.8461,2.857,2.8558,2.8802,2.9371,2.9176,2.9213,2.9526,2.9664,2.9663,2.9448,2.956,2.9483,2.9075,2.9075,2.8982,2.8826,2.8668,2.8414,2.5329,2.5529,2.5768,2.6062,2.5529,2.4962,2.4962,2.4557,2.417,2.4113,2.4054,2.3976,2.3917,2.3855,2.423,2.5534,2.6005,2.6898,2.892,3.0576,3.1611,3.1673,3.181,3.1787,3.1428,3.1389,3.1329,3.119,3.1368,3.1428,3.1295,3.1524,3.1691,3.1746,3.1671,3.1617,3.1617,3.1746,3.18,3.18,3.1929,3.1984,3.1984,3.2109,3.2179,3.2179,3.2179,3.2179,0.0,3.2403,3.247,3.247,3.2651,3.2684,3.2568,3.2684,3.2586,3.2419,3.2519,3.2519,3.2468,3.2468,3.2586,3.2766,3.2957,3.2894,3.2702,3.2702,3.2307,3.1809,3.1582,3.1408,3.1183,3.0805,3.0982,3.1138,3.0684,3.0694,3.0556,2.9816,2.9512,2.9277,2.8987,2.8662,2.85,2.8712,2.8712,2.8662,2.8662,2.8662,2.8662,2.8662,2.8662,2.8869,2.9357,2.9372,2.9733,3.0606,3.0404,3.0421,3.0827,3.0677,3.0521,3.0369,3.0218,3.0021,2.9677,2.9454,2.9152,2.8826,2.8748,2.8621,0.0,2.4759,2.4373,2.5146,2.474,2.419,2.419,2.4208,0.0,2.4094,2.4036,2.3994,2.3969,2.3928,2.4194,2.5117,2.5932,2.7272,2.96,3.0937,3.2133,3.3371,3.2826,3.2179,3.175,3.1714,3.162,3.1291,3.1674,3.1785,3.1411,3.1948,3.2232,3.2249,3.1894,3.1691,3.1691,3.1819,3.1856,3.1856,3.2179,3.2352,3.2352,3.2651,3.2795,0.0,3.2795,3.2795,3.2795,3.2827,3.2827,3.2827,3.2858,3.2844,3.283,3.3111,3.2908,3.2553,3.2894,3.2957,3.2876,3.2876,3.3099,3.3393,3.3393,3.3393,3.3411,3.3411,3.2345,3.1365,3.2101,3.1526,3.0923,3.1732,3.2184,3.2246,3.1689,3.1709,3.1647,3.0972,3.0386,2.9977,2.9947,2.9302,2.881,2.881,2.881,2.8785,2.8785,2.8785,2.8785,2.8785,2.8785,2.9107,2.9911,2.9827,3.034,3.1793,3.1729,3.1797,3.2214,3.1877,3.149,3.1162,3.0788,3.0584,3.0526,3.0038,2.9483,2.8904,2.8951,2.8826,2.4428,0.0,2.4245,2.4428,2.4337,2.419,0.0,2.417,2.4094,2.4054,2.3976,2.4078,2.4632,2.4719,2.5389,2.7435,2.8431,2.9457,3.098,3.1934,3.2755,3.3424,3.3031,3.2435,3.175,3.1967,3.2144,3.2109,3.2214,3.2317,3.2351,3.2504,3.2603,3.2651,3.2568,3.2502,3.2502,3.2535,3.2535,3.2586,3.2634,3.2666,3.2684,3.2763,3.2795,3.2795,3.2795,3.2795,3.2827,3.3093,3.3184,3.3214,3.3447,3.355,3.355,3.3569,3.3512,3.3408,3.3426,3.3444,3.3397,3.3397,3.3473,3.3549,3.3549,3.3538,3.3481,3.3481,3.2829,3.2129,3.2338,3.1719,3.1292,3.2074,3.1873,3.1799,3.2861,3.2192,3.1337,3.1209,3.0567,2.9887,2.9331,2.9033,2.8881,2.8881,2.8834,2.8785,2.8785,2.8785,2.8785,2.8785,2.8785,2.9368,3.0789,3.0793,3.1074,3.1858,3.2414,3.2733,3.2737,3.2488,3.2144,3.1642,3.105,3.0526,3.0031,2.9919,2.954,2.8904,2.9273,2.9348,2.419,2.419,2.4281,2.4649,2.4446,2.4243,2.4629,2.4368,2.4054,2.3976,2.3917,2.413,2.4867,2.5009,2.5787,2.8207,2.8974,2.999,3.2128,3.2798,3.3293,3.3919,3.344,3.2862,3.2265,3.2401,3.2468,3.2419,3.2553,3.2669,3.2601,3.2474,3.2563,3.2983,3.2673,3.2594,3.2795,3.2795,3.2795,3.2795,3.297,3.3032,3.3014,3.3184,3.3273,3.3273,3.3273,3.3273,3.3273,3.3447,3.3522,3.3569,3.3734,3.3807,3.3807,3.3753,3.3726,3.3698,3.3643,3.3633,3.3605,3.3605,3.3605,3.3605,3.3605,3.335,3.3103,3.3439,3.2766,3.1908,3.1908,3.1331,3.0929,3.1759,3.1905,3.2172,3.3424,3.2729,3.185,3.1876,3.0968,3.0015,2.9617,2.919,2.8952,2.8952,2.8923,2.8881,2.8881,2.8881,2.8881,2.8881,2.921,2.9826,3.0809,3.1513,3.2127,3.2593,3.2973,3.3117,3.3011,3.2834,3.257,3.2231,3.1823,3.1304,3.0704,3.0616,3.026,2.9689,2.9908,2.9951,2.419,2.4281,2.4502,2.5071,2.4666,2.4296,2.4955,0.0,0.0,0.0,0.0,2.433,2.5208,2.5461,2.6258,2.8449,2.8985,3.0152,3.2995,3.3393,3.3617,3.4256,3.378,3.3256,3.2844,3.2876,3.2813,3.2586,3.2894,3.2957,3.2681,3.2415,3.2586,3.3284,3.2679,3.2557,3.2952,3.2952,3.2952,3.2952,3.3243,3.3379,3.3379,3.368,3.3807,3.3807,0.0,0.0,3.3807,3.3807,3.3807,3.3807,3.3807,3.3807,3.3807,3.3807,3.378,3.3726,3.3726,3.3671,3.3633,3.3633,3.3633,3.3633,3.3633,3.3195,3.2838,3.346,3.2519,3.1345,3.1474,3.0839,3.0467,3.1513,3.2008,3.2522,3.3568,3.2981,3.2284,3.2394,3.1134,3.0055,3.0079,2.9531,2.9112,2.9067,2.9089,2.9112,2.9067,2.9089,2.9149,2.9296,2.9904,3.0471,3.0894,3.2172,3.3155,3.3616,3.3408,3.3232,3.3117,3.2993,3.2866,3.2734,3.2606,3.2283,3.1716,3.149,3.1106,3.0625,3.0625,3.0543,2.419,2.4664,2.501,2.452,2.4281,2.4207,2.4278,2.4127,0.0,0.0,0.0,2.528,2.6765,2.7598,2.8395,2.9427,3.0749,3.2053,3.323,3.3393,3.334,3.3118,3.325,3.3256,3.2844,3.3099,3.3316,3.3327,3.3444,3.3502,3.3512,3.3524,3.3579,3.3689,3.3597,3.3579,3.3652,3.3652,3.3652,3.3652,3.3707,3.3734,3.3734,3.378,3.3807,3.3807,0.0,3.3807,3.3807,3.3807,3.3807,3.3807,3.3807,3.3807,3.3807,3.3807,3.3788,3.378,3.378,3.378,3.378,3.378,3.378,3.378,3.378,3.3688,3.3615,3.3743,3.2625,3.1549,3.2221,3.1304,3.076,3.2926,3.1971,3.1164,3.333,3.21,3.0779,3.1439,3.0411,2.9455,2.9516,2.9548,2.9532,2.9358,2.9495,2.9533,2.9353,2.9493,2.9851,3.0544,3.0731,3.1349,3.2758,3.3114,3.3518,3.4209,3.3906,3.3542,3.3117,3.3086,3.2993,3.2866,3.2852,3.2504,3.1771,3.1752,3.138,3.0804,3.1044,3.1179,2.4151,2.4388,2.4679,2.4714,2.504,2.533,2.529,2.5248,0.0,0.0,0.0,2.6023,2.7182,2.8069,2.9156,3.0822,3.2071,3.2977,3.3357,3.3393,3.3334,3.3147,3.3286,3.3334,3.3129,3.3286,3.3422,3.3491,3.3549,3.3633,3.3698,3.3331,3.3348,3.3788,3.3385,3.3366,3.3807,3.3807,3.3807,3.3807,3.3807,3.3807,3.3807,3.3807,3.3807,3.3807,0.0,3.3807,3.3807,3.3807,3.3807,3.3807,3.3807,3.3807,3.3807,3.3807,3.3807,3.3807,3.3807,3.3807,3.3807,3.3807,3.3807,3.3742,3.3412,3.3019,3.2693,3.2836,3.249,3.2137,3.2504,3.1501,3.0859,3.2896,3.227,3.166,3.3204,3.2315,3.1219,3.1126,3.0259,2.9533,2.9551,2.9644,2.968,2.9588,2.9643,2.9661,2.957,3.0057,3.0544,3.0922,3.1732,3.26,3.3488,3.3923,3.4179,3.4218,3.4037,3.377,3.3386,3.3426,3.3455,3.3397,3.3332,3.3178,3.2831,3.2515,3.2196,3.188,3.1768,3.1674,2.4077,2.424,2.4438,2.4816,0.0,2.5863,2.6227,2.6272,2.6312,2.6693,2.691,2.7236,2.7852,2.863,2.9844,3.1872,3.2886,3.3393,3.3393,3.3393,3.3393,3.3393,3.3393,3.3393,3.3393,3.3393,3.3422,3.3481,3.3549,3.3615,3.3671,3.3166,3.3164,3.377,3.3201,3.3183,3.3788,3.3807,3.3807,3.3807,3.3807,3.3807,3.3807,3.3807,3.3807,3.3807,3.3807,3.3807,3.3807,3.3807,3.3807,3.3807,3.3807,3.3807,3.3807,3.3807,3.3807,3.3807,3.3807,3.3842,3.3895,3.3895,3.3947,3.3839,3.3194,3.2575,3.2098,3.2102,3.2411,3.2779,3.2779,3.1848,3.1238,3.2732,3.2604,3.2295,3.2898,3.256,3.1883,3.1054,3.0297,2.9782,2.9763,2.9796,2.9832,2.9799,2.9832,2.9848,2.9799,3.04,3.0983,3.1381,3.2519,3.3501,3.4091,3.467,3.4775,3.4325,3.4208,3.4055,3.3788,3.385,3.3928,3.3928,3.3839,3.3768,3.3688,3.3178,3.2908,3.2813,3.2404,3.2144,2.393,2.4602,2.4923,2.4172,2.4083,2.4541,2.5968,2.6291,2.6685,2.8123,2.9029,2.9554,2.9608,3.0278,3.1129,3.2053,3.2886,3.3393,3.3393,3.3393,3.3393,3.3393,3.3393,3.3393,3.3393,3.3393,3.3393,3.3411,3.352,3.3605,3.3605,3.3671,3.3733,3.3807,3.3733,3.3733,3.3807,3.3807,3.3807,3.3807,3.3807,3.3807,3.3807,3.3807,3.3807,3.3807,3.3807,3.3807,3.3807,3.3807,3.3807,3.3807,3.3807,3.3807,3.3807,3.3807,3.3807,3.3807,3.3807,3.3972,3.4173,3.4173,3.4302,3.4314,3.3508,3.3227,3.3041,3.2312,3.2669,3.3271,3.3329,3.2671,3.2221,3.3144,3.2769,3.2185,3.2184,3.2204,3.194,3.1072,3.04,2.9992,2.9984,3.0131,3.0203,3.0075,3.0228,3.0273,3.0109,3.0226,3.0957,3.2508,3.2776,3.3485,3.507,3.5228,3.5152,3.487,3.4774,3.4572,3.4265,3.4265,3.4265,3.4265,3.4184,3.3986,3.3607,3.3429,3.3202,3.2884,3.259,3.2473,2.3232,2.4194,2.5063,2.4671,2.498,0.0,0.0,2.6626,2.7441,2.9011,2.959,2.9961,3.0441,3.0369,3.0677,3.1981,3.2035,3.2071,3.2578,3.2216,3.1908,3.1908,3.2343,3.2651,3.2651,3.2651,3.2651,3.2651,3.232,3.2329,3.2821,3.2975,3.3054,3.3054,3.3532,3.3568,3.3073,3.355,3.3807,3.3807,3.3807,3.3807,3.3807,3.3807,3.3807,3.3807,3.3807,3.3807,3.3807,3.3807,3.3807,3.3807,3.3807,3.3895,3.3975,3.3432,3.3561,3.4,3.3626,3.3873,3.4375,3.4439,3.4505,3.4348,3.3148,3.2806,3.2654,3.1977,3.2007,3.2414,3.3204,3.3242,3.3164,3.3505,3.3061,3.2435,3.1897,3.1802,3.1569,3.0744,3.0398,3.0241,3.0254,3.0311,3.0336,3.0299,3.0355,3.0367,3.0305,3.1245,3.2154,3.2795,3.3832,3.4721,3.5307,3.5364,3.53,3.5152,3.4962,3.4735,3.4423,3.4508,3.4551,3.4551,3.4609,3.4548,3.4401,3.4056,3.3828,3.3697,3.3314,3.3093,2.2756,2.3755,2.4765,2.4958,0.0,0.0,2.6475,2.7218,2.816,2.9518,2.9816,2.9979,3.0514,3.0178,3.0152,3.1256,3.1184,3.1184,3.1727,3.1347,3.0985,3.0985,3.1473,3.1818,3.1818,3.1818,3.1818,3.1846,3.1447,3.1435,3.2036,3.2177,3.2228,3.2228,3.2761,3.2908,3.2614,3.3146,3.355,3.3807,3.3807,3.3807,3.3807,3.3807,3.3807,3.3807,3.3807,3.386,3.3921,3.3928,3.4005,3.4087,3.4062,3.416,3.4246,3.3668,3.3649,3.3859,3.3473,3.3727,3.424,3.4299,3.4528,3.4548,3.3054,3.2588,3.2409,3.1454,3.1398,3.1842,3.2963,3.3342,3.3459,3.344,3.313,3.2538,3.1437,3.145,3.1392,3.0552,3.0398,3.0398,3.0398,3.039,3.0402,3.0402,3.0433,3.0529,3.0799,3.185,3.2755,3.3294,3.4648,3.5515,3.5468,3.5468,3.5422,3.5364,3.5203,3.4997,3.4756,3.4832,3.4889,3.4889,3.4945,3.4926,3.487,3.4489,3.4292,3.4223,3.3854,3.3634,2.2592,2.3355,2.4096,2.4831,0.0,0.0,2.7055,2.8008,2.883,2.9626,2.9816,2.9816,2.9816,2.9771,2.9771,2.9816,3.0459,3.0966,3.0985,3.0966,3.0966,3.0966,3.0966,3.0985,3.0985,3.0985,3.1012,3.1084,3.1146,3.1206,3.1283,3.1359,3.1384,3.1384,3.1384,3.177,3.2577,3.2596,3.2999,3.377,3.377,3.377,3.3788,3.3788,3.3788,3.3788,3.3788,3.3947,3.4203,3.4195,3.4401,3.4675,3.4614,3.4593,3.4593,3.4574,3.4026,3.3291,3.3352,3.3525,3.3705,3.3705,3.4394,3.497,3.3302,3.2785,3.244,3.0772,3.0931,3.1776,3.2648,3.2885,3.2891,3.2897,3.2891,3.2429,3.0775,3.1083,3.1429,3.0583,3.0398,3.0398,3.0398,3.0394,3.0398,3.0398,3.0458,3.0807,3.1706,3.1821,3.2447,3.4125,3.509,3.5591,3.5591,3.5591,3.5566,3.5507,3.5507,3.5446,3.5315,3.5315,3.5315,3.5315,3.5152,3.4997,3.4794,3.4637,3.4489,3.4292,3.4157,3.4037,2.268,2.3694,2.4722,2.4954,2.586,2.6819,2.729,2.7574,0.0,2.9518,2.9816,2.9816,2.9816,2.9337,2.9137,2.9699,2.9536,2.9518,3.0061,2.9663,2.9318,2.9318,2.9807,3.0152,3.0152,3.0204,3.0231,3.0257,2.9849,2.9832,3.0405,3.0534,3.0558,3.0558,3.1091,3.1237,3.0925,3.1476,3.188,3.21,3.2256,3.2545,3.2963,3.3105,3.3204,3.3265,3.3394,3.3848,3.4483,3.4529,3.4317,3.4036,3.4489,3.4376,3.3903,3.3334,3.2974,3.2688,3.227,3.2539,3.3077,3.3125,3.336,3.3421,3.2353,3.2026,3.1789,3.0674,3.0571,3.0956,3.1833,3.2051,3.2205,3.2776,3.2468,3.1756,3.0629,3.059,3.0717,3.0452,3.0406,3.0406,3.0447,3.0469,3.0469,3.0469,3.0527,3.1105,3.2593,3.3319,3.411,3.5179,3.5526,3.5681,3.5681,3.5681,3.5669,3.5644,3.563,3.5542,3.5315,3.5315,3.5315,3.5315,3.476,3.4447,3.4386,3.3714,3.3695,3.4237,3.4106,3.4318,2.2643,2.3601,2.4592,2.4918,2.5968,2.7091,2.7718,2.7863,2.816,2.9119,2.9318,2.9318,2.9318,2.8938,2.8775,2.9246,2.892,2.8775,2.9264,2.892,2.8587,2.8587,2.9029,2.9344,2.937,2.9395,2.9464,2.9496,2.9132,2.913,2.9648,2.9709,2.9732,2.9732,3.0191,3.0375,3.021,3.0765,3.1199,3.1513,3.1727,3.1842,3.1913,3.2348,3.2564,3.2624,3.284,3.326,3.3791,3.392,3.3756,3.3433,3.3817,3.3739,3.3322,3.2844,3.2443,3.2095,3.1769,3.1962,3.2365,3.241,3.2654,3.275,3.1936,3.1698,3.1525,3.066,3.039,3.0595,3.146,3.1453,3.1426,3.2218,3.2057,3.146,3.0595,3.0414,3.0436,3.0428,3.0466,3.0486,3.0527,3.0557,3.0586,3.0586,3.0917,3.1657,3.3061,3.3973,3.4826,3.565,3.5747,3.5747,3.5743,3.5743,3.5735,3.5747,3.5728,3.5493,3.4955,3.527,3.5321,3.5,3.4513,3.4116,3.3761,3.3219,3.3383,3.4235,3.4165,3.4542,2.2624,2.3272,2.3994,2.4791,2.566,2.6711,2.8243,2.8587,2.8587,2.8587,2.8587,2.8587,2.8587,2.8587,2.8587,2.8587,2.8587,2.8587,2.8587,2.8587,2.8587,2.8587,2.8612,2.8637,2.8694,2.8718,2.8767,2.8905,2.8905,2.8929,2.8994,2.8994,2.8994,2.8994,2.9017,2.9389,3.0105,3.0317,3.0779,3.1504,3.1719,3.1428,3.0734,3.154,3.1934,3.1974,3.2313,3.2433,3.2441,3.2771,3.2865,3.2795,3.2872,3.2858,3.2781,3.2781,3.2244,3.1495,3.1571,3.1583,3.1583,3.1583,3.2083,3.2545,3.1807,3.1595,3.1429,3.0633,3.0425,3.059,3.138,3.1056,3.07,3.1434,3.1588,3.1361,3.0571,3.0458,3.0499,3.0509,3.0565,3.0604,3.0606,3.0665,3.0694,3.0712,3.1441,3.2309,3.3106,3.3975,3.4813,3.5617,3.5773,3.581,3.5821,3.5823,3.5815,3.581,3.5732,3.5353,3.4584,3.5204,3.52,3.4404,3.4243,3.3832,3.3128,3.2986,3.341,3.4339,3.4339,3.4739,2.3547,2.3689,2.3994,2.4791,2.6077,2.7417,2.837,2.8587,2.8587,2.8587,2.8587,2.8587,2.8587,2.8587,2.8587,2.8587,2.8587,2.8587,2.8587,2.8587,2.8587,2.8587,2.8662,2.8669,2.8694,2.881,2.8881,2.8905,2.8952,2.8975,2.8994,2.8994,2.8994,2.8994,2.916,2.9323,2.949,2.9696,2.9888,3.0057,3.0263,3.0256,3.0122,3.0937,3.1419,3.1653,3.2397,3.2345,3.1851,3.2583,3.2532,3.2025,3.2648,3.2513,3.1955,3.1955,3.1417,3.0667,3.0667,3.0679,3.0679,3.0679,3.0814,3.0922,3.079,3.0747,3.0722,3.0588,3.0568,3.0593,3.0719,3.0662,3.0612,3.0794,3.0805,3.07,3.0507,3.0527,3.0584,3.0567,3.0625,3.0685,3.0678,3.0684,3.0723,3.0762,3.1514,3.2163,3.2412,3.3746,3.4725,3.492,3.5544,3.5955,3.5956,3.5953,3.595,3.5953,3.5309,3.5153,3.5641,3.5022,3.4287,3.3502,3.2843,3.2756,3.3264,3.2619,3.3095,3.4601,3.462,3.5061,2.3746,2.3795,2.4085,2.528,2.6493,2.7616,2.8406,2.8587,2.8587,2.8587,2.8587,2.8587,2.8587,2.8587,2.8587,2.8587,2.8587,2.8587,2.8587,2.8637,2.8662,2.8662,2.8712,2.8761,2.8791,2.8858,2.8929,2.8952,2.8994,2.8994,2.8994,2.9089,2.9138,2.9138,2.9334,2.9455,2.9455,2.9644,2.9734,2.9734,2.9937,3.0049,3.0064,3.0468,3.0738,3.091,3.1385,3.1367,3.1015,3.1513,3.1468,3.1121,3.1545,3.1448,3.1083,3.1083,3.0794,3.0398,3.0398,3.0425,3.0449,3.0449,3.0471,3.0491,3.054,3.055,3.0569,3.0588,3.0607,3.0595,3.0606,3.0616,3.0646,3.0649,3.0626,3.0606,3.0606,3.0616,3.0656,3.0645,3.0692,3.0742,3.0761,3.0771,3.081,3.0837,3.1231,3.1685,3.2109,3.2909,3.3767,3.4617,3.5118,3.5545,3.596,3.5991,3.6004,3.6001,3.5181,3.4713,3.4752,3.3785,3.326,3.3291,3.2469,3.2272,3.2721,3.2297,3.3003,3.4702,3.4699,3.5162,2.3674,2.3904,2.4357,2.5842,2.6801,2.7616,2.8406,2.8587,2.8587,2.8587,2.8587,2.8587,2.8587,2.8587,2.8587,2.8587,2.8587,2.8587,2.8587,2.8662,2.8694,2.8694,2.8785,2.8834,2.8905,2.8905,2.8929,2.8994,2.8994,2.9017,2.9044,2.9206,2.9314,2.9355,2.9551,2.9662,2.9662,2.9855,2.9937,2.9937,3.0128,3.0199,3.0188,3.0221,3.0221,3.0215,3.0279,3.0304,3.0316,3.0379,3.0398,3.0398,3.0398,3.0398,3.0398,3.0398,3.0421,3.0414,3.041,3.0449,3.051,3.0519,3.0546,3.061,3.061,3.0621,3.0615,3.0637,3.0626,3.0643,3.0684,3.0714,3.072,3.0716,3.0727,3.0733,3.0694,3.0714,3.0729,3.0722,3.0776,3.0831,3.0824,3.0862,3.0901,3.0899,3.0907,3.1146,3.181,3.2005,3.2708,3.431,3.4476,3.4814,3.5678,3.5732,3.5724,3.571,3.491,3.417,3.3585,3.2394,3.2172,3.3106,3.2287,3.1924,3.2061,3.2064,3.2964,3.4661,3.4665,3.5137,2.3819,2.4302,2.5063,2.5968,2.6801,2.7616,2.8406,2.8587,2.8587,2.8587,2.8587,2.8587,2.8587,2.8587,2.8587,2.8587,2.8587,2.8587,2.8587,2.8662,2.8694,2.8694,2.8791,2.8905,2.8905,2.8952,2.8994,2.8994,2.8994,2.9089,2.923,2.9272,2.9375,2.9533,2.977,2.9855,2.9855,3.0049,3.0157,3.0157,3.0204,3.0199,3.0188,3.0266,3.0286,3.0292,3.0304,3.0336,3.0398,3.0398,3.0398,3.0398,3.0398,3.0398,3.0398,3.0398,3.0428,3.0482,3.0483,3.0528,3.0593,3.0583,3.0579,3.0613,3.0678,3.0681,3.0692,3.0766,3.0763,3.0767,3.0706,3.0734,3.0781,3.0789,3.0826,3.0842,3.072,3.0746,3.0781,3.0789,3.0837,3.0897,3.0898,3.0897,3.0891,3.0899,3.0899,3.094,3.1058,3.1663,3.2483,3.3478,3.3568,3.3883,3.4647,3.4703,3.4646,3.452,3.3755,3.3572,3.4162,3.1942,3.1107,3.2004,3.1215,3.1169,3.1934,3.1921,3.2811,3.4528,3.4535,3.495,2.3837,2.4393,2.519,2.6005,2.6801,2.7616,2.8406,2.8587,2.8587,2.8587,2.8587,2.8587,2.8587,2.8587,2.8587,2.8587,2.8587,2.8587,2.8587,2.8687,2.8761,2.8761,2.8881,2.897,2.897,2.8975,2.8994,2.8994,2.9093,2.9206,2.9293,2.9494,2.9681,2.977,2.9953,3.0064,3.0064,3.0157,3.0204,3.0204,3.0204,3.0213,3.0266,3.0279,3.0286,3.0304,3.0336,3.0379,3.0398,3.0398,3.0398,3.0398,3.0398,3.0425,3.0471,3.0471,3.0492,3.0558,3.055,3.0595,3.0671,3.0656,3.071,3.0778,3.0758,3.0763,3.0753,3.0792,3.0808,3.0804,3.0816,3.0827,3.0864,3.0869,3.0888,3.0877,3.0814,3.0845,3.0869,3.0859,3.0817,3.0799,3.0793,3.076,3.072,3.0728,3.0725,3.0735,3.0725,3.1037,3.1771,3.3083,3.3232,3.3543,3.4311,3.4392,3.4165,3.3654,3.3248,3.3209,3.3568,3.2473,3.1823,3.1748,3.0956,3.0969,3.1851,3.1841,3.2718,3.4378,3.4438,3.4885,2.3565,2.4269,2.5176,2.5751,2.6656,2.7556,2.8153,2.8442,2.8587,2.8587,2.8587,2.8587,2.8587,2.8587,2.8587,2.8587,2.8587,2.8612,2.8612,2.8737,2.881,2.881,2.8947,2.8994,2.8994,2.8994,2.9021,2.9067,2.9228,2.9355,2.9455,2.9734,2.9921,2.9969,3.0128,3.0204,3.0204,3.0204,3.0204,3.0204,3.0199,3.0226,3.0292,3.0305,3.0299,3.0336,3.0379,3.0398,3.0398,3.0398,3.0402,3.0436,3.0436,3.0471,3.053,3.053,3.0557,3.0629,3.0626,3.0688,3.075,3.0748,3.0825,3.0889,3.0836,3.0839,3.0836,3.0826,3.0826,3.0839,3.0897,3.0897,3.0896,3.0903,3.0899,3.0897,3.0858,3.0846,3.084,3.0827,3.0739,3.0676,3.0671,3.0622,3.0591,3.061,3.0603,3.0598,3.0576,3.0576,3.113,3.2607,3.2772,3.3006,3.3567,3.3808,3.3641,3.3006,3.2937,3.2983,3.3195,3.275,3.2217,3.161,3.0744,3.0665,3.1391,3.1391,3.2135,3.3576,3.3843,3.4388,2.2783,2.391,2.5092,2.5085,2.624,2.7417,2.7453,2.8044,2.8587,2.8587,2.8587,2.8587,2.8587,2.8587,2.8587,2.8587,2.8587,2.8612,2.8687,2.8761,2.881,2.8881,2.897,2.8994,2.8994,2.8994,2.9089,2.9272,2.9293,2.9474,2.9855,2.9888,2.9988,3.0171,3.0185,3.0204,3.0204,3.0204,3.0204,3.0204,3.0194,3.0234,3.0292,3.0311,3.0336,3.0379,3.0398,3.0398,3.0398,3.0398,3.0439,3.0492,3.0492,3.0539,3.0593,3.0593,3.0645,3.0688,3.0692,3.0777,3.0899,3.0896,3.0898,3.0898,3.0898,3.0898,3.0898,3.0898,3.0898,3.0898,3.0907,3.0901,3.0899,3.0899,3.0899,3.0863,3.0736,3.0704,3.069,3.0626,3.0602,3.0618,3.0605,3.0593,3.0605,3.0603,3.0603,3.0576,3.0502,3.0502,3.0851,3.1762,3.1863,3.1826,3.1746,3.2449,3.2804,3.2629,3.2613,3.2956,3.3737,3.2235,3.1362,3.1305,3.0284,2.9931,3.0272,3.0284,3.0724,3.1565,3.2407,3.3153,2.2917,2.3495,2.4399,2.4925,2.5846,2.6783,2.729,2.8008,2.8587,2.8587,2.8587,2.8424,2.7918,2.8243,2.8587,2.8587,2.8637,2.8669,2.8694,2.8791,2.8881,2.8905,2.8952,2.8994,2.8994,2.9115,2.9228,2.9293,2.9551,2.9734,2.9888,3.0019,3.0128,3.0204,3.0204,3.0204,3.0204,3.0204,3.0204,3.0204,3.0194,3.0234,3.0292,3.0292,3.0336,3.041,3.0449,3.0439,3.041,3.0449,3.0482,3.0501,3.0552,3.0618,3.0652,3.0652,3.0739,3.0821,3.0784,3.0827,3.0891,3.0857,3.0863,3.0898,3.0898,3.0898,3.0898,3.0894,3.0891,3.0891,3.0909,3.0909,3.0884,3.0786,3.0763,3.0726,3.0587,3.0614,3.0632,3.0591,3.0565,3.054,3.0539,3.0462,3.0419,3.0409,3.0409,3.0378,3.0325,3.0306,3.0641,3.1513,3.1604,3.1776,3.2211,3.2044,3.1851,3.1762,3.1762,3.1876,3.2181,3.2162,3.1808,3.1121,3.1204,3.0789,2.9883,2.9748,3.0394,3.1732,3.2053,3.2882,2.2628,2.3337,2.4372,2.4663,2.5492,2.6281,2.6571,2.7435,2.8189,2.8189,2.8189,2.8051,2.7508,2.7634,2.7888,2.8184,2.827,2.8409,2.8731,2.8839,2.8905,2.8929,2.8737,2.8727,2.9075,2.8987,2.9057,2.9475,2.9751,0.0,3.0003,3.0128,3.0204,3.0204,3.0204,3.0204,3.0204,3.0204,3.0204,3.0204,3.0207,3.0266,3.0292,3.0323,3.0371,3.0428,3.0492,3.0482,3.0439,3.051,3.0543,3.0576,3.062,3.0695,3.0774,3.0774,3.0824,3.0891,3.0857,3.0859,3.0897,3.0857,3.0859,3.0898,3.0897,3.0897,3.0895,3.0907,3.0901,3.0901,3.0909,3.0864,3.081,3.0726,3.0664,3.0613,3.051,3.0537,3.0552,3.0507,3.0462,3.0428,3.0428,3.0367,3.0279,3.0266,3.0266,3.0253,3.0207,3.018,3.0395,3.0973,3.1264,3.1501,3.1702,3.174,3.1629,3.1295,3.1455,3.1686,3.1935,3.19,3.177,3.1575,3.1432,3.098,3.018,2.9899,3.0476,3.1837,3.1803,3.2553,0.0,0.0,0.0,2.4235,2.5196,2.6099,2.5314,2.6322,2.7399,2.7381,2.7381,2.7363,2.7345,2.6711,2.6444,2.7295,2.7482,2.7815,2.8735,2.8887,2.8929,2.8994,2.8319,2.8227,2.9198,2.8608,2.8634,2.9799,2.9888,3.0003,3.0171,3.0204,3.0204,3.0204,3.0204,3.0204,3.0204,3.0204,3.0204,3.0204,3.0272,3.0292,3.0324,3.0367,3.0439,3.0501,3.051,3.051,3.0519,3.0583,3.0639,3.0706,3.0691,3.0782,3.0899,3.0899,3.0892,3.0898,3.0898,3.0898,3.0898,3.0898,3.0898,3.0898,3.0905,3.0899,3.0901,3.0892,3.0907,3.0899,3.0897,3.0806,3.0706,3.0701,3.0591,3.0491,3.0491,3.0491,3.046,3.0328,3.0299,3.0312,3.0312,3.0312,3.0279,3.0207,3.0207,3.0194,3.0204,3.0142,3.0109,3.0109,3.0822,3.0966,3.014,3.1564,3.2119,3.1309,3.1751,3.2385,3.3125,3.1381,3.1113,3.2619,3.0899,3.0345,3.1101,3.0696,3.0917,3.1691,3.1626,3.2122,2.2117,0.0,0.0,0.0,0.0,0.0,2.6089,2.6813,2.7373,2.6726,2.664,2.6477,2.5855,2.5586,2.5557,2.5862,2.684,2.7679,2.7986,2.8562,2.8994,2.8994,2.8935,2.8989,2.9275,2.9364,2.9471,0.0,2.9953,3.0083,2.9988,3.0128,3.0204,3.0204,3.0204,3.0204,3.0204,3.0204,3.0204,3.0204,3.0272,3.0323,3.0378,3.0432,3.051,3.0583,3.062,3.0645,3.0645,3.0661,3.0677,3.0711,3.0817,3.0877,3.0891,3.0901,3.0892,3.0898,3.0898,3.0898,3.0898,3.0898,3.0897,3.0907,3.0901,3.0899,3.0899,3.0903,3.0901,3.0875,3.0774,3.0735,3.0681,3.0587,3.052,3.0471,3.0379,3.0311,3.0299,3.0305,3.026,3.0221,3.0221,3.0226,3.0199,3.0138,3.0138,3.0123,3.0132,3.0117,3.0098,3.0098,3.0811,3.1409,3.1632,3.1958,3.2237,3.2489,3.1384,3.1084,3.1871,3.0826,3.0673,3.1532,3.1591,3.1526,3.1332,3.091,3.0984,3.1494,3.1738,3.2042,0.0,0.0,0.0,0.0,0.0,0.0,2.5515,2.6042,2.6435,2.5958,2.5867,2.5743,2.5248,2.4905,2.4728,2.4789,2.6121,2.7291,2.7684,2.8552,2.9115,2.9115,2.8996,2.9082,2.9514,2.9466,2.9526,2.9834,3.0064,2.999,2.9505,2.9594,2.9669,2.9669,3.0013,3.0204,3.0204,3.0204,3.0204,3.0185,3.0299,3.0356,3.0413,3.05,3.0591,3.0639,3.0677,3.072,3.0735,3.0735,3.0755,3.0798,3.0872,3.0903,3.0909,3.0891,3.0897,3.0898,3.0898,3.0898,3.0898,3.0897,3.0909,3.0899,3.0899,3.0899,3.0899,3.088,3.0849,3.0786,3.07,3.062,3.0564,3.0482,3.0419,3.034,3.0292,3.024,3.0207,3.0253,3.024,3.0194,3.0194,3.0185,3.0157,3.0109,3.0094,3.0098,3.0102,3.0057,3.0026,3.0026,3.0309,3.079,3.1486,3.1383,3.1589,3.2289,3.1249,3.0815,3.1217,3.0695,3.064,3.1099,3.1565,3.1684,3.1445,3.1182,3.1058,3.1075,3.1655,3.1806,0.0,0.0,0.0,0.0,2.4831,0.0,2.4424,2.4769,2.5181,2.509,2.5072,2.509,2.5072,2.4509,2.4036,2.4094,2.5395,2.6701,2.7548,2.8611,2.9293,2.9293,2.8858,2.887,2.978,2.9241,2.9148,2.9918,2.9928,2.9598,2.893,2.8891,2.893,2.9044,2.9803,3.0204,3.0204,3.0199,3.0213,3.0213,3.0356,3.0423,3.0424,3.0556,3.0645,3.0715,3.0715,3.0735,3.0801,3.0801,3.0841,3.0899,3.0899,3.0899,3.0901,3.0897,3.0898,3.0898,3.0898,3.0898,3.0898,3.0905,3.0899,3.0899,3.0899,3.0897,3.0855,3.0791,3.072,3.0664,3.061,3.0491,3.0402,3.0381,3.0285,3.0207,3.0207,3.0199,3.0199,3.0194,3.0199,3.0185,3.0185,3.0142,3.0094,3.0094,3.0068,3.0038,3.0057,2.991,2.9825,2.9825,2.9625,2.98,3.0538,3.0483,3.0701,3.1434,3.1185,3.0965,3.0885,3.0614,3.0663,3.104,3.106,3.1133,3.121,3.1272,3.1079,3.0643,3.1315,3.1342,0.0,0.0,0.0,2.5114,2.5314,0.0,2.5239,2.5311,2.5159,2.446,2.437,2.4389,2.4331,2.4223,2.417,2.417,2.5077,2.602,2.6725,2.826,2.9293,2.9293,2.9344,2.9438,2.9644,2.967,2.9382,2.8717,2.8225,2.8232,2.8872,2.8891,2.9216,2.9917,3.0109,3.0204,3.0204,3.026,3.0279,3.0279,3.0423,3.0505,3.0547,3.0631,3.072,3.0774,3.0774,3.0796,3.0801,3.0801,3.0841,3.0899,3.0909,3.0907,3.0901,3.0897,3.0898,3.0898,3.0898,3.0896,3.0905,3.0899,3.0899,3.0899,3.0899,3.0824,3.073,3.0652,3.0639,3.0583,3.0472,3.0423,3.037,3.026,3.0215,3.0207,3.0199,3.0199,3.0185,3.0138,3.0123,3.0123,3.0123,3.0113,3.0068,3.0038,2.9872,2.977,2.9698,2.9494,2.9334,2.9334,2.9808,3.0401,3.1096,3.1016,3.1227,3.1928,3.0584,2.9898,3.0168,2.9479,2.9592,3.0681,3.0922,3.0499,2.941,3.0404,3.0869,3.0769,3.0575,3.0208,2.3858,2.3989,2.4358,2.4783,2.4893,0.0,0.0,2.4874,2.4745,2.4376,2.4338,2.4374,2.4442,2.4478,2.4495,2.4495,2.5149,2.5783,2.6114,2.7774,2.9064,2.9418,2.9626,2.9716,2.9608,2.9769,2.9529,2.8657,2.7956,2.7774,2.8261,2.83,2.8504,2.8943,2.9765,2.9994,2.9555,3.0043,3.0304,3.0285,3.0461,3.0579,3.06,3.0691,3.0765,3.0791,3.0799,3.0801,3.0801,3.0841,3.088,3.0899,3.0891,3.0894,3.0894,3.0898,3.0898,3.0898,3.0896,3.0907,3.0899,3.0899,3.0899,3.0899,3.086,3.0778,3.0681,3.0579,3.0539,3.0472,3.0344,3.0297,3.0279,3.0207,3.0213,3.0199,3.0171,3.0157,3.0094,2.9934,2.9902,2.9886,2.9902,2.9905,2.9839,2.968,2.957,2.9474,2.9415,2.9212,2.9082,2.9042,2.925,2.9673,3.0303,2.9864,2.9948,3.0858,2.9677,2.8987,2.9049,2.8984,2.9317,3.0142,2.947,2.9107,2.9124,2.9005,2.9182,2.9592,2.9657,2.9406,2.443,2.4358,2.4339,2.4357,2.4357,2.4338,0.0,0.0,0.0,2.454,2.4554,2.462,2.4775,2.4804,2.4804,2.4804,2.5233,2.5606,2.5791,2.7182,2.8433,2.9044,2.9412,2.9559,2.9418,2.9408,2.9285,2.8916,2.8007,2.7587,2.7912,2.7931,2.8007,2.8179,2.9497,2.9874,2.918,2.9934,3.0321,3.0364,3.0548,3.0614,3.0625,3.0743,3.0791,3.0798,3.0794,3.0801,3.0801,3.088,3.0899,3.0903,3.0909,3.0897,3.0898,3.0898,3.0898,3.0898,3.0905,3.0872,3.0863,3.0866,3.0846,3.082,3.0751,3.0697,3.0626,3.0492,3.0398,3.0328,3.0234,3.0199,3.0204,3.0204,3.0185,3.0157,3.006,3.003,2.995,2.9678,2.9607,2.9626,2.9625,2.9626,2.9551,2.9318,2.9254,2.9169,2.9104,2.8971,2.8814,2.8766,2.8533,2.8613,2.9198,2.8375,2.8315,2.9313,2.8622,2.8042,2.7743,2.8249,2.8602,2.8704,2.7563,2.7434,2.8308,2.7473,2.7501,2.837,2.8763,2.8576,2.4515,2.4447,2.4429,2.4613,2.4559,2.4522,2.4689,0.0,2.4746,2.4775,0.0,2.4775,2.4804,0.0,0.0,2.4804,2.4964,2.5354,2.6127,2.653,2.6911,2.7332,2.8084,2.8604,2.8701,2.8092,2.8032,2.884,2.7434,2.7205,2.8681,2.8758,2.9134,2.9879,3.0089,3.0182,3.0138,3.0309,3.0452,3.0577,3.0651,3.0697,3.0697,3.0778,3.0801,3.0798,3.0794,3.0801,3.0801,3.088,3.0905,3.0892,3.0903,3.0892,3.0898,3.0898,3.0898,3.0898,3.0905,3.0821,3.0724,3.072,3.0689,3.0626,3.0546,3.052,3.0482,3.0292,3.0228,3.0221,3.0199,3.0185,3.0204,3.0204,3.0157,3.006,2.9867,2.9801,2.9678,2.9399,2.9339,2.9339,2.9339,2.9357,2.9314,2.9212,2.8997,2.8819,2.8772,2.8533,2.8335,2.8219,2.8109,2.8193,2.8568,2.783,2.7636,2.8235,2.7518,2.6842,2.6362,2.6241,2.5797,2.5017,2.5874,2.5802,2.4789,2.6287,2.7389,2.8112,2.8079,2.7455,2.4657,2.4657,2.4626,2.4594,2.4666,2.4718,2.4727,0.0,2.4888,0.0,0.0,0.0,0.0,0.0,0.0,0.0,2.5049,2.5139,2.5482,2.552,2.5967,2.7188,0.0,0.0,2.7896,2.7612,2.7424,2.7459,2.7262,2.7453,2.8179,2.8643,2.9063,2.944,2.9966,3.0056,2.9613,3.022,3.0549,3.0604,3.0665,3.0691,3.0698,3.0774,3.079,3.0802,3.0791,3.0821,3.086,3.0899,3.0901,3.0891,3.0852,3.0875,3.0898,3.086,3.0814,3.0782,3.0781,3.0711,3.0634,3.0646,3.0614,3.0598,3.052,3.0472,3.04,3.0241,3.0194,3.0199,3.0185,3.0171,3.0138,3.0138,3.0128,3.0034,2.9786,2.9734,2.9589,2.9191,2.9064,2.8979,2.8879,2.8929,2.8948,2.8755,2.8651,2.8525,2.8378,2.8255,2.8035,2.7672,2.7595,2.7583,2.7449,2.6993,2.6708,2.6714,2.6145,2.5598,2.5128,2.5019,2.4911,2.474,2.4941,2.4949,2.4765,2.5178,2.5545,2.5929,2.6857,2.6701,2.4832,0.0,0.0,0.0,0.0,0.0,0.0,0.0,0.0,0.0,0.0,0.0,0.0,0.0,0.0,0.0,0.0,2.5111,2.5099,2.5037,2.5418,2.6673,0.0,0.0,0.0,2.7281,2.7151,2.7122,2.7275,2.7676,2.8351,2.8701,2.902,2.9289,2.9941,3.004,2.952,3.024,3.0613,3.0629,3.0678,3.0704,3.0691,3.0765,3.0802,3.0793,3.081,3.0841,3.0899,3.0871,3.0875,3.0879,3.0806,3.08,3.0843,3.0782,3.0752,3.0698,3.0701,3.0649,3.0557,3.0535,3.0516,3.0518,3.0441,3.0378,3.0314,3.0215,3.0199,3.0204,3.0171,3.0142,3.0094,3.0094,3.0034,2.9924,2.9662,2.9551,2.9395,2.8962,2.8797,2.8682,2.8492,2.8583,2.8633,2.8406,2.8327,2.8264,2.8099,2.7968,2.7701,2.7192,2.7238,2.7129,2.6651,2.6441,2.6052,2.5384,2.4974,2.4574,2.4199,2.4017,2.4076,2.4372,2.3885,2.3869,2.4306,2.3973,2.3843,2.3869,2.5329,2.5398,0.0,0.0,0.0,2.5149,0.0,0.0,0.0,0.0,2.5397,0.0,0.0,0.0,0.0,0.0,0.0,0.0,0.0,0.0,0.0,2.5388,2.5303,2.5107,2.5937,2.6868,0.0,2.7022,2.7201,0.0,2.7445,2.7586,2.9994,2.9344,2.9327,3.0227,3.0285,3.0378,3.0557,3.0576,3.0629,3.069,3.069,3.0691,3.0703,3.0769,3.0798,3.0798,3.0794,3.0841,3.0882,3.0836,3.0796,3.0801,3.0735,3.0697,3.0714,3.0697,3.0703,3.0693,3.069,3.0613,3.0482,3.0344,3.0297,3.0304,3.0228,3.0202,3.0207,3.0199,3.0204,3.0204,3.0123,3.0109,3.0094,3.0102,2.9907,2.9644,2.9359,2.9148,2.8934,2.8662,2.8562,2.8484,2.8406,2.8406,2.838,2.8327,2.8191,2.8099,2.7996,2.7595,2.7192,2.6839,2.7163,2.7131,2.6477,2.6382,2.5839,2.4502,2.4256,2.3994,2.3638,2.3054,2.2754,2.2768,2.2436,2.2204,2.2014,2.2635,2.2845,2.2687,2.3528,2.3157,0.0,0.0,2.5171,2.5088,0.0,0.0,0.0,0.0,0.0,0.0,0.0,0.0,0.0,0.0,0.0,0.0,0.0,0.0,0.0,2.5406,2.536,2.5273,2.5522,2.6041,2.6913,0.0,2.6117,2.7254,2.7306,0.0,2.8504,2.9353,2.9954,3.0221,3.0321,3.0411,3.0462,3.0558,3.0629,3.069,3.069,3.0691,3.0703,3.0769,3.0798,3.0801,3.0808,3.0818,3.0839,3.081,3.0774,3.0734,3.0661,3.0634,3.0626,3.0634,3.0598,3.056,3.0527,3.0439,3.0356,3.0309,3.0292,3.0286,3.0221,3.0188,3.0207,3.0199,3.0171,3.0123,3.0109,2.9969,2.9839,2.9839,2.9626,2.9375,2.9144,2.8989,2.8803,2.8569,2.844,2.8443,2.8692,2.8694,2.8458,2.7882,2.7736,2.7482,2.695,2.6756,2.6455,2.5928,2.64,2.6571,2.6181,2.6119,2.5782,2.4942,2.4805,2.4428,2.3695,2.3855,2.3445,2.237,2.2971,2.2791,2.1901,2.2419,2.2188,2.126,2.1436,2.1569,2.535,2.5367,0.0,2.5216,2.5311,0.0,2.5331,0.0,2.544,0.0,0.0,0.0,0.0,0.0,0.0,0.0,0.0,0.0,0.0,2.5443,2.5434,2.5473,2.5389,2.5543,2.609,2.5855,2.5899,2.6469,2.7249,2.7829,0.0,2.92,2.9934,3.0234,3.0344,3.0423,3.0472,3.0585,3.0653,3.069,3.069,3.0717,3.0739,3.0774,3.0806,3.0801,3.0798,3.0799,3.0799,3.0739,3.0697,3.0656,3.0588,3.0559,3.0558,3.0558,3.0527,3.046,3.0398,3.0336,3.0304,3.0279,3.0254,3.0266,3.0207,3.0194,3.0213,3.0171,3.0079,3.0,2.9969,2.9769,2.9551,2.9551,2.9375,2.9144,2.8984,2.8803,2.8658,2.8492,2.847,2.8585,2.8858,2.8928,2.8754,2.8184,2.8051,2.7806,2.7123,2.6925,2.6611,2.6046,2.6525,2.6704,2.629,2.6123,2.5714,2.4966,2.4903,2.4485,2.3533,2.3625,2.3195,2.2119,2.2564,2.2433,2.1707,2.1789,2.1353,2.0409,2.0085,1.9998]},{"header":{"parameterUnit":"m.s-1","parameterCategory":1,"la1":30.6,"la2":29.2853,"lo1":-89.7004,"lo2":-87.6739,"dy":0.0162,"dx":0.0183,"nx":112,"ny":82,"refTime":"2025-07-31T00:00:00:Z","depth":0,"parameterNumber":3,"parameterNumberName":"V-component_of_WINDS"},"data":[0.0,0.0,0.0,0.0,0.0,0.0,0.0,0.0,0.0,0.0,0.0,0.0,0.0,0.0,0.0,0.0,0.0,0.0,0.0,0.0,0.0,0.0,0.0,0.0,0.0,0.0,0.0,0.0,0.0,0.0,0.0,0.0,0.0,0.0,0.0,0.0,0.0,0.0,0.0,0.0,0.0,0.0,0.0,0.0,0.0,0.0,0.0,0.0,0.0,0.0,0.0,0.0,0.0,0.0,0.0,0.0,0.0,0.0,0.0,0.0,0.0,0.0,0.0,0.0,0.0,0.0,0.0,0.0,0.0,0.0,0.0,0.0,0.0,0.0,0.0,0.0,0.0,0.0,0.0,0.0,0.0,0.0,0.0,0.0,0.0,0.0,0.0,0.0,0.0,0.0,1.5116,1.5645,1.6003,1.61,1.5836,1.5792,1.5508,1.4757,0.0,0.0,0.0,0.0,0.0,0.0,0.0,0.0,0.0,0.0,0.0,0.0,0.0,0.0,0.0,0.0,0.0,0.0,0.0,0.0,0.0,0.0,0.0,0.0,0.0,0.0,0.0,0.0,0.0,0.0,0.0,0.0,0.0,0.0,0.0,0.0,0.0,0.0,0.0,0.0,0.0,0.0,0.0,0.0,0.0,0.0,0.0,0.0,0.0,0.0,0.0,0.0,0.0,0.0,0.0,0.0,0.0,0.0,0.0,0.0,0.0,0.0,0.0,0.0,0.0,0.0,0.0,0.0,0.0,0.0,0.0,0.0,0.0,0.0,0.0,0.0,0.0,0.0,0.0,0.0,0.0,0.0,0.0,0.0,0.0,0.0,0.0,0.0,0.0,0.0,0.0,0.0,0.0,0.0,0.0,0.0,0.0,0.0,0.0,0.0,0.0,0.0,0.0,0.0,1.5226,1.6009,1.6151,1.61,1.5836,1.5792,1.5379,1.4441,0.0,0.0,0.0,0.0,0.0,0.0,0.0,0.0,0.0,0.0,0.0,0.0,0.0,0.0,0.0,0.0,0.0,0.0,0.0,0.0,0.0,0.0,0.0,0.0,0.0,0.0,0.0,0.0,0.0,0.0,0.0,0.0,0.0,0.0,0.0,0.0,0.0,0.0,0.0,0.0,0.0,0.0,0.0,0.0,0.0,0.0,0.0,0.0,0.0,0.0,0.0,0.0,0.0,0.0,0.0,0.0,0.0,0.0,0.0,0.0,0.0,0.0,0.0,0.0,0.0,0.0,0.0,0.0,0.0,0.0,0.0,0.0,0.0,0.0,0.0,0.0,0.0,0.0,0.0,0.0,0.0,0.0,0.0,0.0,0.0,0.0,0.0,0.0,0.0,0.0,0.0,0.0,0.0,0.0,0.0,0.0,0.0,0.0,0.0,0.0,0.0,0.0,0.0,1.5244,1.559,1.6232,1.6231,1.61,1.5913,1.5836,1.5379,1.4361,1.4289,0.0,0.0,0.0,0.0,0.0,0.0,0.0,0.0,0.0,0.0,0.0,0.0,0.0,0.0,0.0,0.0,0.0,0.0,0.0,0.0,0.0,0.0,0.0,0.0,0.0,0.0,0.0,0.0,0.0,0.0,0.0,0.0,0.0,0.0,0.0,0.0,0.0,0.0,0.0,0.0,0.0,0.0,0.0,0.0,0.0,0.0,0.0,0.0,0.0,0.0,0.0,0.0,0.0,0.0,0.0,0.0,0.0,0.0,0.0,0.0,0.0,0.0,0.0,0.0,0.0,0.0,0.0,0.0,0.0,0.0,0.0,0.0,0.0,0.0,0.0,0.0,0.0,0.0,0.0,0.0,0.0,0.0,0.0,0.0,0.0,0.0,0.0,0.0,0.0,0.0,0.0,0.0,0.0,0.0,0.0,0.0,0.0,0.0,0.0,0.0,0.0,0.0,1.5853,1.6057,1.6355,1.6275,1.6144,1.5988,1.576,1.5205,1.4309,1.3994,0.0,0.0,0.0,0.0,0.0,0.0,0.0,0.0,0.0,0.0,0.0,0.0,0.0,0.0,0.0,0.0,0.0,0.0,0.0,0.0,0.0,0.0,0.0,0.0,0.0,0.0,0.0,0.0,0.0,0.0,0.0,0.0,0.0,0.0,0.0,0.0,0.0,0.0,0.0,0.0,0.0,0.0,0.0,0.0,0.0,0.0,0.0,0.0,0.0,0.0,0.0,0.0,0.0,0.0,0.0,0.0,0.0,0.0,0.0,0.0,0.0,0.0,0.0,0.0,0.0,0.0,0.0,0.0,0.0,0.0,0.0,0.0,0.0,0.0,0.0,0.0,0.0,0.0,0.0,0.0,0.0,0.0,0.0,0.0,0.0,0.0,0.0,0.0,0.0,0.0,0.0,0.0,0.0,0.0,0.0,0.0,0.0,0.0,0.0,0.0,0.0,0.0,1.5967,1.6582,1.6436,1.6275,1.6144,1.5988,1.5422,1.4779,1.4149,1.3548,0.0,0.0,0.0,0.0,0.0,0.0,0.0,0.0,0.0,0.0,0.0,0.0,0.0,0.0,0.0,0.0,0.0,0.0,0.0,0.0,0.0,0.0,0.0,0.0,0.0,0.0,0.0,0.0,0.0,0.0,0.0,0.0,0.0,0.0,0.0,0.0,0.0,0.0,0.0,0.0,0.0,0.0,0.0,0.0,0.0,0.0,0.0,0.0,0.0,0.0,0.0,0.0,0.0,0.0,0.0,0.0,0.0,0.0,0.0,0.0,0.0,0.0,0.0,0.0,0.0,0.0,0.0,0.0,0.0,0.0,0.0,0.0,0.0,0.0,0.0,0.0,0.0,0.0,0.0,0.0,0.0,0.0,0.0,0.0,0.0,0.0,0.0,0.0,0.0,0.0,0.0,0.0,0.0,0.0,0.0,0.0,0.0,0.0,0.0,0.0,0.0,0.0,1.5796,1.6296,1.6552,1.6405,1.6275,1.6144,1.5818,1.5175,1.4161,0.0,0.0,0.0,0.0,0.0,0.0,0.0,0.0,0.0,0.0,0.0,0.0,0.0,0.0,0.0,0.0,0.0,0.0,0.0,0.0,0.0,0.0,0.0,0.0,0.0,0.0,0.0,0.0,0.0,0.0,0.0,0.0,0.0,0.0,0.0,0.0,0.0,0.0,0.0,0.0,0.0,0.0,0.0,0.0,0.0,0.0,0.0,0.0,0.0,0.0,0.0,0.0,0.0,0.0,0.0,0.0,0.0,0.0,0.0,0.0,0.0,0.0,0.0,0.0,0.0,0.0,0.0,0.0,0.0,0.0,0.0,0.0,0.0,0.0,0.0,0.0,0.0,0.0,0.0,0.0,0.0,0.0,0.0,0.0,0.0,0.0,0.0,0.0,0.0,0.0,0.0,0.0,0.0,0.0,0.0,0.0,0.0,0.0,0.0,0.0,0.0,0.0,1.5259,1.585,1.6383,1.6723,1.6577,1.6392,1.6275,1.5929,1.5284,1.4132,0.0,0.0,0.0,0.0,0.0,0.0,0.0,0.0,0.0,0.0,0.0,0.0,0.0,0.0,0.0,0.0,0.0,0.0,0.0,0.0,0.0,0.0,0.0,0.0,0.0,0.0,0.0,0.0,0.0,0.0,0.0,0.0,0.0,0.0,0.0,0.0,0.0,0.0,0.0,0.0,0.0,0.0,0.0,0.0,0.0,0.0,0.0,0.0,0.0,0.0,0.0,0.0,0.0,0.0,0.0,0.0,0.0,0.0,0.0,0.0,0.0,0.0,0.0,0.0,0.0,0.0,0.0,0.0,0.0,0.0,0.0,0.0,0.0,0.0,0.0,0.0,0.0,0.0,0.0,0.0,0.0,0.0,0.0,0.0,0.0,0.0,0.0,0.0,0.0,0.0,0.0,0.0,0.0,0.0,0.0,0.0,0.0,0.0,0.0,0.0,0.0,0.0,1.5311,1.6305,1.696,1.6918,1.665,1.6479,1.6392,1.5684,1.4868,0.0,0.0,0.0,0.0,0.0,0.0,0.0,0.0,0.0,0.0,0.0,0.0,0.0,0.0,0.0,0.0,0.0,0.0,0.0,0.0,0.0,0.0,0.0,0.0,0.0,0.0,0.0,0.0,0.0,0.0,0.0,0.0,0.0,0.0,0.0,0.0,0.0,0.0,0.0,0.0,0.0,0.0,0.0,0.0,0.0,0.0,0.0,0.0,0.0,0.0,0.0,0.0,0.0,0.0,0.0,0.0,0.0,0.0,0.0,0.0,0.0,0.0,0.0,0.0,0.0,0.0,0.0,0.0,0.0,0.0,0.0,0.0,0.0,0.0,0.0,0.0,0.0,0.0,0.0,0.0,0.0,0.0,0.0,0.0,0.0,0.0,0.0,0.0,0.0,0.0,0.0,0.0,0.0,0.0,0.0,0.0,0.0,0.0,0.0,0.0,0.0,0.0,0.0,1.5462,1.6333,1.7002,1.696,1.6748,1.659,1.6392,1.6083,1.535,1.4092,0.0,0.0,0.0,0.0,0.0,0.0,0.0,0.0,0.0,0.0,0.0,0.0,0.0,0.0,0.0,0.0,0.0,0.0,0.0,0.0,0.0,0.0,0.0,0.0,0.0,0.0,0.0,0.0,0.0,0.0,0.0,0.0,0.0,0.0,0.0,0.0,0.0,0.0,0.0,0.0,0.0,0.0,0.0,0.0,0.0,0.0,0.0,0.0,0.0,0.0,0.0,0.0,0.0,0.0,0.0,0.0,0.0,0.0,0.0,0.0,0.0,0.0,0.0,0.0,0.0,0.0,0.0,0.0,0.0,0.0,0.0,0.0,0.0,0.0,0.0,0.0,0.0,0.0,0.0,0.0,0.0,0.0,0.0,0.0,0.0,0.0,0.0,0.0,0.0,0.0,0.0,0.0,0.0,0.0,0.0,0.0,0.0,0.0,0.0,0.0,0.0,0.0,1.5562,1.6453,1.7073,1.7073,1.6876,1.6718,1.6534,1.6318,1.5605,1.4213,0.0,0.0,0.0,0.0,0.0,0.0,0.0,0.0,0.0,0.0,0.0,0.0,0.0,0.0,0.0,0.0,0.0,0.0,0.0,0.0,0.0,0.0,0.0,0.0,0.0,0.0,0.0,0.0,0.0,0.0,0.0,0.0,0.0,0.0,0.0,0.0,0.0,0.0,0.0,0.0,0.0,0.0,0.0,0.0,0.0,0.0,0.0,0.0,0.0,0.0,0.0,0.0,0.0,0.0,0.0,0.0,0.0,0.0,0.0,0.0,0.0,0.0,0.0,0.0,0.0,0.0,0.0,0.0,0.0,0.0,0.0,0.0,0.0,0.0,0.0,0.0,0.0,0.0,0.0,0.0,0.0,0.0,0.0,0.0,0.0,0.0,0.0,0.0,0.0,0.0,0.0,0.0,0.0,0.0,0.0,0.0,0.0,0.0,0.0,0.0,0.0,0.0,1.5777,1.6639,1.724,1.7199,1.7044,1.6846,1.6718,1.6417,1.5703,1.4462,0.0,0.0,0.0,0.0,0.0,0.0,0.0,0.0,0.0,0.0,0.0,0.0,0.0,0.0,0.0,0.0,0.0,0.0,0.0,0.0,0.0,0.0,0.0,0.0,0.0,0.0,0.0,0.0,0.0,0.0,0.0,0.0,0.0,0.0,0.0,0.0,0.0,0.0,0.0,0.0,0.0,0.0,0.0,0.0,0.0,0.0,0.0,0.0,0.0,0.0,0.0,0.0,0.0,0.0,0.0,0.0,0.0,0.0,0.0,0.0,1.307,1.2669,0.0,0.0,0.0,0.0,0.0,0.0,0.0,0.0,0.0,0.0,0.0,0.0,0.0,0.0,0.0,0.0,0.0,0.0,0.0,0.0,0.0,0.0,0.0,0.0,0.0,0.0,0.0,0.0,0.0,0.0,0.0,0.0,0.0,0.0,0.0,0.0,0.0,0.0,0.0,0.0,1.6449,1.7037,1.7393,1.724,1.7086,1.6876,1.6718,1.6534,1.5978,1.4994,1.4093,0.0,0.0,0.0,0.0,0.0,0.0,0.0,0.0,0.0,0.0,0.0,0.0,0.0,0.0,0.0,0.0,0.0,0.0,0.0,0.0,0.0,0.0,0.0,0.0,0.0,0.0,0.0,0.0,0.0,0.0,0.0,0.0,0.0,0.0,0.0,0.0,0.0,0.0,0.0,0.0,0.0,0.0,0.0,0.0,0.0,0.0,0.0,0.0,0.0,0.0,0.0,0.0,0.0,0.0,0.0,0.0,0.0,0.0,0.0,1.3967,1.3565,0.0,0.0,0.0,0.0,0.0,0.0,0.0,0.0,0.0,0.0,0.0,0.0,0.0,0.0,0.0,0.0,0.0,0.0,0.0,0.0,0.0,0.0,0.0,0.0,0.0,0.0,0.0,0.0,0.0,0.0,0.0,0.0,0.0,0.0,0.0,0.0,0.0,0.0,0.0,0.0,1.6763,1.7197,1.7434,1.724,1.7073,1.6918,1.6803,1.6607,1.6156,1.5401,1.4162,0.0,0.0,0.0,0.0,0.0,0.0,0.0,0.0,0.0,0.0,0.0,0.0,0.0,0.0,0.0,0.0,0.0,0.0,0.0,0.0,0.0,0.0,0.0,0.0,0.0,0.0,0.0,0.0,0.0,0.0,0.0,0.0,0.0,0.0,0.0,0.0,0.0,0.0,0.0,0.0,0.0,0.0,0.0,0.0,0.0,0.0,0.0,0.0,0.0,0.0,0.0,0.0,0.0,1.5045,1.5144,1.5591,1.5152,1.5199,1.5599,1.4755,1.4488,1.4646,1.4387,0.0,0.0,0.0,0.0,0.0,0.0,0.0,0.0,0.0,0.0,0.0,0.0,0.0,0.0,0.0,0.0,0.0,0.0,0.0,0.0,0.0,0.0,0.0,0.0,1.6976,1.6581,1.5327,0.0,0.0,0.0,0.0,0.0,0.0,0.0,0.0,0.0,0.0,0.0,1.7041,1.7344,1.7475,1.724,1.7115,1.7002,1.6918,1.6693,1.6333,1.5786,1.4551,1.369,0.0,0.0,0.0,0.0,0.0,0.0,0.0,0.0,0.0,0.0,0.0,0.0,0.0,0.0,0.0,0.0,0.0,0.0,0.0,0.0,0.0,0.0,0.0,0.0,0.0,0.0,0.0,0.0,0.0,0.0,0.0,0.0,0.9442,0.9794,0.0,0.0,0.0,0.0,0.0,0.0,0.0,0.0,0.0,0.0,0.0,0.0,0.0,1.4469,1.4959,1.5355,1.5703,1.5913,1.5764,1.5808,1.61,1.6027,1.6039,1.61,1.5966,0.0,1.5351,1.5336,0.0,0.0,0.0,0.0,0.0,0.0,0.0,0.0,0.0,0.0,0.0,0.0,0.0,0.0,0.0,0.0,0.0,0.0,0.0,0.0,0.0,0.0,1.6305,1.6539,1.6565,1.66,0.0,1.6544,1.6414,1.705,1.6454,0.0,0.0,0.0,0.0,0.0,0.0,0.0,1.7718,1.7828,1.7666,1.724,1.7199,1.7115,1.7002,1.6918,1.6667,1.6336,1.5666,1.52,1.4882,1.401,0.0,0.0,0.0,0.0,0.0,0.0,0.0,0.0,0.0,0.0,0.0,0.0,0.0,0.0,0.0,0.0,0.0,0.0,0.0,0.0,0.0,0.0,0.0,0.0,0.0,0.0,0.0,0.0,0.0,0.9457,1.0164,1.1012,1.0847,1.0678,0.0,0.0,0.0,0.0,0.0,0.0,0.0,0.0,0.0,1.4155,1.4844,1.5289,1.5468,1.5869,1.6076,1.6151,1.6163,1.6231,1.6318,1.6318,1.6448,1.6655,1.6655,1.6678,1.6771,1.6122,1.5703,1.5412,0.0,0.0,0.0,0.0,1.4841,1.4981,1.4896,1.4981,1.5091,1.4819,0.0,0.0,0.0,0.0,0.0,0.0,0.0,0.0,0.0,0.0,1.7927,1.7898,1.7618,1.7297,1.724,1.7194,1.7329,0.0,1.7477,1.7284,1.7723,0.0,0.0,0.0,0.0,1.7702,1.804,1.7963,1.7747,1.7406,1.7282,1.7157,1.7002,1.696,1.6876,1.6705,1.6048,1.5652,1.5599,1.4784,1.4312,0.0,0.0,0.0,0.0,0.0,0.0,0.0,0.0,0.0,0.0,0.0,0.0,0.0,0.0,0.0,0.0,0.0,0.0,0.0,0.0,0.0,0.0,0.0,0.0,0.0,0.0,0.0,0.0,1.0686,1.1068,1.2278,1.1965,1.184,0.0,0.0,0.0,0.0,0.0,0.0,1.3652,1.4313,1.4806,1.5022,1.5576,1.5985,1.6207,1.6448,1.6685,1.6835,1.6879,1.6936,1.6904,1.6873,1.7008,1.7313,1.7313,1.7535,1.7844,1.6983,1.6426,1.62,1.6324,1.6291,1.6188,1.6089,1.6086,1.613,1.6175,1.6328,1.6486,1.6311,1.6435,1.6568,1.6105,0.0,0.0,0.0,0.0,1.9131,1.9415,1.9207,1.881,1.859,1.8262,1.7868,1.7598,1.7747,1.7988,0.0,1.8175,1.8168,1.811,0.0,0.0,1.7876,1.7815,1.7845,1.8094,1.7909,1.7693,1.7447,1.7282,1.7157,1.7086,1.7002,1.696,1.6846,1.6312,1.603,1.6059,1.5446,1.5044,1.4948,0.0,0.0,0.0,0.0,0.0,0.0,0.0,0.0,0.0,0.0,0.0,0.0,0.0,0.0,0.0,0.0,0.0,0.0,0.0,0.0,0.0,0.0,0.0,0.0,0.0,0.0,0.0,0.0,0.0,1.396,1.3838,0.0,0.0,0.0,0.0,1.3294,1.4124,1.4615,1.4615,1.5326,1.5788,1.5952,1.6076,1.6566,1.7332,1.7332,1.7655,1.8291,1.8172,1.8172,1.8291,1.8163,1.8141,1.8166,1.8166,1.8131,1.8157,1.7857,1.7616,1.7508,1.7807,1.7747,1.7495,1.7226,1.7041,1.6962,1.7086,1.7467,1.8004,1.8763,1.9469,1.9934,1.9256,1.9221,0.0,0.0,1.8647,1.8518,1.7946,1.803,1.8107,1.7538,1.7585,1.7908,1.8344,1.8461,1.8305,0.0,1.7975,1.8307,1.8592,0.0,1.8475,1.8475,1.8305,1.8121,1.7922,1.7693,1.7434,1.724,1.7199,1.7199,1.7199,1.7086,1.6918,1.6718,1.6778,1.6752,1.6471,1.6138,1.6073,1.6376,1.6382,0.0,0.0,0.0,0.0,0.0,0.0,0.0,0.0,0.0,0.0,0.0,0.0,0.0,0.0,0.0,0.0,0.0,0.0,0.0,0.0,0.0,0.0,0.0,0.0,0.0,0.0,0.0,0.0,1.4239,1.4071,0.0,1.4111,1.4147,1.4278,1.4664,1.5037,1.5318,1.5536,1.5684,1.5957,1.6293,1.6729,1.7194,1.7575,1.81,1.8428,1.8601,1.8541,1.8461,1.838,1.8333,1.8488,1.8682,1.8621,1.8759,1.9095,1.8893,1.8375,1.775,1.7846,1.7798,1.7725,1.7718,1.775,1.7763,1.7809,1.7983,1.8193,1.857,1.8924,1.9264,1.9422,1.9807,2.0165,2.0334,2.0852,2.1244,2.0658,2.0263,1.9782,1.9179,1.8453,1.7948,1.8028,1.8305,1.8422,1.8147,1.8358,1.8528,1.84,1.8439,1.8517,1.8634,1.8478,1.8321,1.8123,1.7909,1.7652,1.7406,1.7282,1.7199,1.7199,1.7157,1.7115,1.7044,1.7002,1.696,1.6947,1.692,1.6849,1.6689,1.7019,1.7254,0.0,0.0,0.0,0.0,0.0,0.0,0.0,0.0,0.0,0.0,0.0,0.0,0.0,0.0,0.0,0.0,0.0,0.0,0.0,0.0,0.0,0.0,0.0,0.0,0.0,1.3531,1.4027,1.457,1.4482,1.4471,1.4679,1.4702,1.4908,1.54,1.5513,1.5647,1.5869,1.6005,1.6325,1.6798,1.7383,1.7911,1.8377,1.8936,1.9222,1.9322,1.9261,1.9118,1.8938,1.8841,1.8945,1.9196,1.9082,1.9179,1.9512,1.9368,1.89,1.8264,1.8302,1.8302,1.8289,1.824,1.8275,1.8419,1.8694,1.8964,1.9214,1.9486,1.9767,2.0034,2.0184,2.0563,2.0961,2.1059,2.1541,2.1852,2.1315,2.099,2.0641,2.0055,1.9475,1.8999,1.8877,1.8965,1.8956,1.8665,1.8733,1.8721,1.8439,1.8439,1.8517,1.8634,1.8439,1.8242,1.8123,1.7828,1.7625,1.7406,1.7282,1.7199,1.7199,1.7199,1.7199,1.7157,1.7073,1.7073,1.7115,1.7378,1.7397,1.7219,1.7637,1.8071,1.8501,0.0,0.0,0.0,0.0,0.0,0.0,0.0,0.0,0.0,0.0,0.0,0.0,0.0,0.0,0.0,0.0,0.0,0.0,0.0,0.0,0.0,0.0,0.0,1.3674,1.3927,1.436,1.5005,1.5108,1.5108,1.5108,1.5233,1.5335,1.5335,1.5572,1.5763,1.5763,1.6332,1.6873,1.7408,1.7928,1.8719,1.9799,1.9826,2.0064,2.0461,2.0296,2.0131,1.999,1.972,1.9617,1.9617,1.9473,1.9368,1.9368,1.9223,1.9182,1.9182,1.9328,1.9328,1.9162,1.8792,1.8734,1.8921,1.9725,2.043,2.1028,2.1657,2.2175,2.2466,2.1602,2.1589,2.1657,2.0749,2.0398,2.0155,1.9603,2.0046,2.0489,1.9942,2.0429,2.0947,2.0988,2.0483,1.9929,1.9431,1.903,1.876,1.8711,1.8595,1.8517,1.8478,1.8163,0.0,1.7882,1.7502,1.7199,1.7199,1.7199,1.7199,1.7199,1.7199,1.7157,1.7002,1.7115,1.7157,1.7002,1.7447,1.7787,1.8042,1.8309,1.8823,1.9531,0.0,0.0,0.0,0.0,0.0,0.0,0.0,0.0,0.0,0.0,0.0,0.0,0.0,0.0,0.0,0.0,0.0,0.0,0.0,0.0,0.0,1.4412,1.4686,1.4245,1.4551,1.4914,1.5096,1.521,1.5267,1.5267,1.5637,1.5951,1.6067,1.6433,1.6741,1.6979,1.7123,1.7374,1.7894,1.8384,1.8906,1.9497,1.9909,2.0092,2.0144,2.0093,1.9978,1.9862,1.9656,1.9617,1.9617,1.9368,1.9223,1.9223,1.9011,1.8905,1.8905,1.917,1.9223,1.921,1.9209,1.9199,1.929,1.9585,1.9826,2.0055,2.0409,2.061,2.0709,2.0573,2.0858,2.114,2.0472,2.1042,2.1663,2.0793,2.0893,2.1128,2.0643,2.0302,2.013,2.05,2.0019,1.9553,1.9701,1.9202,1.862,1.824,1.8372,1.8439,1.8321,1.8202,0.0,1.7652,1.7475,1.7352,1.724,1.7199,1.7199,1.7199,1.7199,1.7199,1.7157,1.7199,1.7199,1.7157,1.7625,1.8109,1.8697,1.9112,1.9567,0.0,0.0,0.0,0.0,0.0,0.0,0.0,0.0,0.0,0.0,0.0,0.0,0.0,0.0,0.0,0.0,0.0,0.0,0.0,0.0,0.0,0.0,1.4786,1.5005,1.4729,1.4936,1.5108,1.5108,1.5165,1.521,1.521,1.5823,1.6173,1.6209,1.6738,1.7024,1.6895,1.7349,1.7689,1.7894,1.8585,1.9183,1.9584,1.9851,1.9978,1.9823,1.9823,1.9772,1.9604,1.946,1.942,1.942,1.921,1.9117,1.9105,1.8958,1.8893,0.0,0.0,0.0,0.0,0.0,1.9368,1.942,1.9565,1.9656,1.9708,1.9875,2.0131,2.0372,2.0422,2.0845,2.1188,2.0858,2.1334,2.1799,2.1224,2.1362,2.1577,2.1268,2.1038,2.0999,2.125,2.0769,2.0246,2.0184,1.9506,0.0,1.8176,1.8268,1.8321,1.8242,1.8029,1.7814,1.7516,1.7434,1.7323,1.7199,1.7199,1.7199,1.7199,1.7199,0.0,0.0,0.0,1.7323,1.7516,1.7814,0.0,0.0,0.0,0.0,0.0,0.0,0.0,0.0,2.1693,2.2364,0.0,0.0,0.0,0.0,0.0,0.0,0.0,0.0,0.0,0.0,0.0,0.0,0.0,0.0,0.0,0.0,1.4832,1.5108,1.5108,1.5108,1.5108,1.5108,1.5108,1.5108,1.5108,1.5823,1.6185,1.5948,1.6701,1.6881,1.6231,1.7158,0.0,0.0,0.0,1.9245,1.9659,1.967,1.9656,1.9565,1.9565,1.946,1.9368,1.9283,1.9177,1.9129,1.9059,1.8994,1.8934,1.8934,1.8946,1.8946,1.8851,1.8798,1.8851,1.9064,1.9275,1.9368,1.9512,0.0,0.0,1.9747,2.0207,2.0696,2.0759,2.1091,2.1465,2.1506,2.1396,2.1286,2.1286,2.1589,2.1902,2.1902,2.2231,2.2615,2.2615,2.2024,2.1323,2.0684,1.9852,1.9003,1.8396,1.8204,1.8163,1.8109,1.7774,1.7475,1.7475,1.7323,1.7199,1.7199,0.0,0.0,1.7199,1.7199,1.7199,1.7199,1.724,1.7475,1.7962,1.8042,1.8319,1.8993,1.9078,1.9265,1.9574,1.9904,2.0308,2.0828,2.2057,2.2669,0.0,0.0,0.0,0.0,0.0,0.0,0.0,0.0,0.0,0.0,0.0,0.0,0.0,0.0,0.0,1.4901,1.505,1.5108,1.5108,1.5108,1.5108,1.5108,1.521,1.5267,1.5267,1.5777,1.6173,1.6232,1.6629,1.6814,1.666,1.7029,1.7248,1.7203,1.7862,1.8389,1.8769,1.9031,1.9251,1.942,0.0,0.0,1.9251,1.9365,1.9233,1.8875,1.9128,1.9003,1.8667,1.8572,1.853,1.853,1.8839,1.8946,1.8999,1.8999,1.9052,1.9105,1.9223,1.9275,1.9368,1.9565,1.9708,1.9914,2.0372,2.056,0.0,2.1042,2.1396,2.1698,2.1698,2.2077,2.2463,2.2463,2.2509,2.2615,2.2615,2.1843,2.1139,2.1027,1.9818,1.8767,1.8616,1.8262,1.7868,1.7693,1.7557,1.7434,1.7282,1.724,1.7199,1.7199,1.7199,1.7199,1.7199,1.7199,1.7199,1.7199,1.7352,1.757,1.7909,1.8121,1.8436,1.8836,1.9026,1.9213,1.9465,1.9654,1.9925,2.0273,2.143,2.2181,0.0,0.0,0.0,0.0,0.0,0.0,0.0,0.0,0.0,0.0,0.0,1.3325,1.4205,0.0,1.4654,1.5028,1.5108,1.5108,1.5108,1.5108,1.5108,1.5108,1.5165,1.521,1.521,1.5777,1.6079,1.609,1.6532,1.6645,1.6365,1.6645,1.6779,1.6619,1.7396,1.7899,1.8154,1.8565,1.8881,1.8987,1.8881,1.8827,1.8893,1.9254,1.925,1.905,1.95,1.9582,1.9312,1.901,1.8739,1.8594,1.8774,1.8774,1.8774,1.8774,1.8839,1.8893,1.9052,1.9158,1.9198,1.9368,1.9473,1.9565,2.0055,2.0258,2.0446,2.1202,2.1348,2.1348,2.165,2.165,2.1684,2.1949,2.1888,2.1874,2.2123,2.1713,2.1162,2.0873,2.0084,1.9266,1.8631,1.8254,1.7889,1.7569,1.7393,1.7323,1.7199,1.7199,1.7199,1.7199,1.7199,1.7199,1.7199,1.7199,1.7199,1.7199,1.7393,1.7611,1.7882,1.8149,1.8397,1.8784,1.8898,1.9101,1.9413,1.956,1.9818,2.0208,2.1055,2.1658,0.0,0.0,0.0,0.0,0.0,0.0,0.0,1.2248,1.2528,1.3408,1.3555,1.3744,1.4538,1.4754,1.4834,1.5062,1.5108,1.5108,1.5108,1.5108,1.5108,1.5108,1.5108,1.5108,1.5108,1.558,1.5834,1.5703,1.6095,1.6141,1.5631,1.5973,1.6044,1.5787,1.6715,1.7335,1.7426,1.8031,1.8344,1.8441,1.8344,1.8391,1.8507,1.8869,1.9055,1.9078,1.9495,1.9726,1.9784,1.9321,1.9023,1.8737,1.8631,1.8635,1.8666,1.863,1.8679,1.881,1.9012,1.9131,1.9315,1.9383,1.9466,1.958,2.0013,2.0131,2.0333,2.1286,2.114,2.0845,2.1251,2.1006,2.0709,2.1055,2.1104,2.1153,2.1554,2.1458,2.1178,2.0705,2.0341,1.9827,1.8839,1.8455,1.8053,1.7499,1.7323,1.7238,1.7356,1.7369,1.7366,1.7385,1.7483,1.7486,1.7382,1.7264,1.7199,1.7199,1.7553,1.7814,1.7882,1.8383,1.8733,1.8931,1.8969,1.9176,1.953,1.9561,1.9797,2.0193,2.0715,2.1197,0.8438,0.981,1.1255,1.1944,1.2613,1.3181,0.0,1.3681,1.386,1.4405,1.4413,1.4365,1.4651,1.488,1.5062,1.5108,1.5108,1.5108,1.5108,1.5108,1.5108,1.5108,1.5108,1.5108,1.5108,1.5165,1.5108,1.4832,1.4888,1.4842,1.46,1.4609,1.4609,1.46,1.5527,1.6085,1.6187,1.6949,1.7512,1.7776,1.7512,1.7633,1.8156,1.8165,1.814,1.8035,1.8148,1.8353,1.8758,1.8704,1.8682,1.8611,1.8616,1.8773,1.9005,1.8724,1.8614,1.8684,1.9089,1.9376,1.9614,2.0193,2.0149,1.9982,2.0432,2.0292,2.0093,2.0484,2.0521,2.0471,2.0521,2.0646,2.0696,2.0383,2.0858,2.1264,2.0957,2.097,2.1019,2.0953,2.0334,1.9808,1.969,1.9172,1.844,1.7398,1.7199,1.7395,1.7931,1.7996,1.8046,1.8147,1.8487,1.8519,1.8035,1.7512,1.7199,1.7199,1.812,1.8425,1.7896,1.9336,1.9964,1.9509,1.9695,1.9854,1.9943,1.9693,1.9611,1.9669,2.0158,2.0862,0.9662,1.0565,1.1444,1.252,1.2963,1.3359,1.3965,1.4232,1.4398,1.4707,1.4755,1.4744,1.472,1.481,1.4854,1.4891,1.4789,1.4743,1.4834,1.4789,1.4808,1.5051,1.5085,1.5021,1.4868,1.488,1.4789,1.4558,1.4523,1.4466,1.4373,1.4373,1.4446,1.4623,1.5382,1.5935,1.6177,1.6852,1.7387,1.7831,1.7671,1.7865,1.8392,1.8676,1.896,1.9211,1.9211,1.9206,1.92,1.9109,1.8927,1.8698,1.8624,1.8698,1.8824,1.8872,1.9023,1.9297,1.9563,1.9691,1.9841,2.0169,2.0143,2.002,1.9865,1.9721,1.9629,1.9758,1.9567,1.9423,1.9722,1.967,1.9579,1.9683,2.0042,2.0409,2.056,2.0686,2.0848,2.0848,2.0341,1.987,1.9804,1.9352,1.8725,1.7952,1.7824,1.7913,1.8157,1.8012,1.7996,1.827,1.8435,1.8531,1.8539,1.7847,1.7522,1.7811,1.81,1.8362,1.8515,1.9592,2.016,2.0132,2.0229,2.0339,2.0585,2.0483,2.047,2.0587,2.1061,2.1507,1.0557,1.1077,1.1616,1.2753,1.3223,1.3499,1.4116,1.4496,1.4717,1.4745,1.4882,1.4997,1.4826,1.4807,1.4801,1.4824,1.4565,1.4477,1.4616,1.4587,1.4712,1.5061,1.5225,1.5159,1.4895,1.4957,1.4916,1.4855,1.4828,1.4731,1.4671,1.4633,1.4669,1.471,1.5329,1.5743,1.6007,1.6573,1.7098,1.7509,1.7371,1.7637,1.8222,1.8625,1.903,1.9457,1.9457,1.9412,1.932,1.9178,1.8966,1.872,1.8596,1.8657,1.8833,1.9069,1.9342,1.9581,1.9945,2.0051,2.0133,2.0369,2.0381,2.0252,1.983,1.9514,1.9321,1.93,1.8935,1.8614,1.9028,1.8869,1.8721,1.8963,1.9291,1.9668,2.0016,2.0283,2.0498,2.0599,2.022,1.9877,1.9904,1.9482,1.8983,1.8656,1.8496,1.8398,1.8248,1.802,1.8068,1.8557,1.8371,1.8332,1.8759,1.8004,1.7727,1.8129,1.8147,1.8338,1.8708,1.9736,2.0354,2.0452,2.0683,2.0912,2.1181,2.1092,2.1129,2.1263,2.1689,2.1909,1.0959,1.1474,1.2059,1.2716,1.3451,1.397,1.4077,1.4572,1.4924,1.4646,1.4872,1.5081,1.507,1.511,1.5105,1.5094,1.469,1.4373,1.4419,1.4788,1.5083,1.5105,1.5459,1.5628,1.5401,1.5556,1.5739,1.5924,1.5815,1.5652,1.5369,1.5224,1.4988,1.4513,1.4988,1.523,1.524,1.5693,1.6135,1.6558,1.6135,1.6397,1.7232,1.7242,1.7493,1.7991,1.7991,1.8157,1.8549,1.8539,1.8529,1.8529,1.8509,1.8824,1.9257,1.9257,1.921,1.9235,2.0095,2.0511,2.0726,2.1191,2.114,2.0864,2.0682,2.003,1.928,1.9167,1.8751,1.8422,1.8422,1.8637,1.8691,1.8247,1.8786,1.942,1.942,1.9668,1.9965,2.041,1.9914,1.9579,2.0105,1.9722,1.9399,1.9374,1.8996,1.8541,1.8154,1.8236,1.8555,1.9319,1.847,1.8056,1.8498,1.8007,1.7701,1.7725,1.8424,1.8607,1.8047,2.0027,2.09,2.0334,2.1139,2.1554,2.1598,2.1309,2.1184,2.1225,2.1399,2.1545,1.1006,1.1295,1.1622,1.2098,1.2634,1.3125,1.3601,1.4385,1.4968,1.4875,1.525,1.5583,1.5321,1.5297,1.5311,1.5314,1.4775,1.4418,1.4575,1.4567,1.4668,1.4984,1.5711,1.6189,1.6312,1.5838,1.5584,1.5802,1.539,1.5188,1.542,1.5002,1.476,1.4845,1.5049,1.5335,1.5511,1.5786,1.6125,1.6558,1.6769,1.7143,1.7644,1.7644,1.7896,1.8328,1.8328,1.8342,1.8482,1.8482,1.8482,1.8482,1.8684,1.8808,1.8998,1.9396,1.9457,1.9532,2.0004,2.025,2.0348,2.0504,2.064,2.0637,2.0257,1.9881,1.9472,1.9057,1.8596,1.8193,1.8193,1.8247,1.8247,1.792,1.8236,1.8602,1.8441,1.8697,1.9004,1.9121,1.9044,1.8939,1.9056,1.8951,1.862,1.8015,1.8093,1.7993,1.7551,1.7522,1.7788,1.8333,1.8074,1.813,1.8762,1.8115,1.7859,1.8394,1.8328,1.8444,1.878,2.0176,2.0899,2.0893,2.1616,2.2059,2.215,2.213,2.2177,2.225,2.2483,2.2555,1.1063,1.1089,1.1204,1.164,1.2006,1.2357,1.2984,1.3945,1.467,1.467,1.5137,1.5525,1.5336,1.5121,1.5026,1.5206,1.4706,1.4416,1.4694,1.4687,1.4851,1.527,1.5843,1.6376,1.6637,1.6028,1.5804,1.6427,1.5792,1.5527,1.5961,1.5399,1.5117,1.5123,1.5246,1.5375,1.5604,1.5662,1.586,1.6198,1.6807,1.7236,1.7451,1.7676,1.7929,1.8347,1.8347,1.8347,1.8347,1.8347,1.8347,1.8347,1.8472,1.8539,1.8674,1.9008,1.9208,1.9407,1.9911,2.0096,2.0096,2.0096,2.0237,2.0375,2.0054,1.9767,1.9512,1.9174,1.8599,1.8025,1.8025,1.7879,1.7755,1.7534,1.7744,1.7897,1.7897,1.805,1.8255,1.8405,1.8286,1.8232,1.8309,1.8201,1.7863,1.7257,1.7279,1.7301,1.7088,1.7088,1.719,1.7634,1.7634,1.7909,1.8506,1.7989,1.7889,1.8506,1.8242,1.826,1.8804,1.9734,2.0346,2.0534,2.1272,2.1779,2.2137,2.2324,2.2537,2.2795,2.3007,2.3082,1.101,1.0857,1.0786,1.1297,1.1528,1.179,1.2338,1.325,1.4014,1.4077,1.4592,1.5008,1.5164,1.4578,1.4358,1.4903,1.4666,1.4491,1.484,1.5205,1.5533,1.5894,1.5974,1.6097,1.6528,1.6177,1.6527,1.7845,1.6874,1.6485,1.6951,1.6422,1.5879,1.5459,1.5469,1.5459,1.541,1.541,1.541,1.542,1.6289,1.6709,1.6748,1.7187,1.7607,1.8008,1.8008,1.8008,1.8008,1.8008,1.8008,1.8008,1.8008,1.8144,1.8269,1.8337,1.8539,1.8875,1.9715,2.0042,2.0042,2.0042,2.0042,2.0096,2.0096,1.9779,1.9419,1.9419,1.8659,1.7919,1.7919,1.7549,1.719,1.719,1.719,1.7301,1.7733,1.7733,1.7776,1.8135,1.7644,1.7368,1.7929,1.7545,1.7146,1.7146,1.674,1.6488,1.6761,1.6761,1.6864,1.7134,1.7134,1.7312,1.7656,1.7656,1.7822,1.803,1.8084,1.8084,1.8084,1.8815,1.9279,1.9371,2.0169,2.093,2.1554,2.1841,2.2245,2.2749,2.2962,2.3097,1.0525,1.0369,1.0371,1.0261,1.0555,1.1098,1.2012,1.2948,1.3708,1.4019,1.4482,1.4808,1.4656,1.4676,1.4874,1.5321,1.5229,1.5257,1.5706,1.5869,1.6056,1.6287,1.6628,1.7009,1.7302,1.6964,1.705,1.7908,1.6641,1.6168,1.6931,1.6422,1.6076,1.5908,1.6221,1.6074,1.542,1.541,1.541,1.542,1.5977,1.6406,1.6748,1.7187,1.7607,1.8008,1.8008,1.8008,1.8008,1.8008,1.8008,1.8008,1.8134,1.8269,1.8337,1.8405,1.8482,1.8617,1.8808,1.9131,1.933,1.933,1.9528,1.9736,1.9736,1.9598,1.9419,1.9419,1.8659,1.7919,1.7919,1.7549,1.7134,1.6976,1.692,1.6864,1.6818,1.6761,1.6751,1.6853,1.6751,1.6797,1.7313,1.6955,1.6581,1.6581,1.6488,1.6431,1.6488,1.6488,1.6545,1.6602,1.6602,1.6705,1.7043,1.72,1.7479,1.7767,1.7975,1.8084,1.8084,1.8815,1.9226,1.9226,2.0016,2.0521,2.0733,2.1396,2.1807,2.2058,2.2644,2.2917,1.0186,1.0016,0.9999,0.9808,1.0,1.0465,1.1417,1.2215,1.2857,1.3304,1.3777,1.4043,1.3811,1.4169,1.4653,1.5016,1.5426,1.5833,1.6115,1.6346,1.6578,1.6842,1.6951,1.7086,1.7455,1.7101,1.6988,1.7412,1.6615,1.6432,1.7165,1.6664,1.6357,1.6357,1.6602,1.6494,1.5996,1.5996,1.5996,1.5996,1.6436,1.6777,1.7031,1.7461,1.7793,1.8008,0.0,1.8008,1.8008,1.8008,1.8008,1.8008,1.8144,1.8144,1.8212,1.8279,1.8347,1.8405,1.8405,1.8617,1.8808,1.8808,1.9008,1.9274,1.9274,1.9293,1.9276,1.9276,1.8742,1.8062,1.7871,1.7467,1.7005,1.6701,1.6591,1.6591,1.6441,1.6384,1.6384,1.6384,1.6384,1.6488,1.6786,1.6591,1.6384,1.6384,1.6384,1.6384,1.6384,1.6384,1.6384,1.6384,1.6384,1.6488,1.6761,1.7032,1.7357,1.7656,1.792,1.8084,1.8084,1.8506,1.8774,1.8827,1.9371,1.9722,2.0042,2.0597,2.1202,2.1698,2.2198,2.2598,1.0009,0.9776,0.9683,0.9683,0.9759,1.0049,1.0976,1.1481,1.1938,1.2404,1.287,1.3119,1.2856,1.3295,1.3931,1.4485,1.5361,1.6052,1.6317,1.6733,1.7096,1.7468,1.708,1.6992,1.7422,1.707,1.6846,1.6894,1.6904,1.7041,1.7363,1.7021,1.6846,1.6904,1.6787,1.6758,1.6816,1.6758,1.6665,1.6738,1.7178,1.7383,1.7402,1.7822,1.8008,1.8008,1.8008,1.8008,1.8008,1.8008,1.8008,1.8008,1.8008,1.8008,1.8008,1.8008,1.8144,1.8269,1.8269,1.8347,1.8414,1.8482,1.8617,1.8741,1.8808,1.8942,1.9075,1.9075,1.8733,1.8278,1.7843,1.7327,1.6933,1.6487,1.6384,1.6384,1.6384,1.6374,1.6374,1.6374,1.6327,1.6316,1.6374,1.6374,1.6374,1.6384,1.6384,1.6384,1.6384,1.6384,1.6384,1.6384,1.6384,1.6488,1.6705,1.6976,1.7312,1.759,1.7865,1.803,1.8084,1.8084,1.8205,1.8367,1.8518,1.8881,1.946,1.9798,2.0497,2.1506,2.1876,2.2372,0.9935,0.9738,0.9683,0.9683,1.0003,1.0489,1.1397,1.2006,1.24,1.2459,1.2559,1.2562,1.2291,1.2596,1.3219,1.4241,1.4855,1.5591,1.6693,1.6921,1.7204,1.7803,1.7529,1.7441,1.7861,1.7519,1.7412,1.7764,1.7783,1.7666,1.7402,1.7314,1.7432,1.7773,1.7109,1.6904,1.7266,1.6914,1.6665,1.6738,1.7178,1.7383,1.7402,1.7822,1.8008,1.8008,1.8008,0.0,1.8008,1.8008,1.8008,1.8008,1.8008,1.8008,1.8008,1.8008,1.8008,1.8076,1.8076,1.8076,1.8144,1.8414,1.8549,1.8607,1.8741,1.8808,1.8875,1.9065,1.8733,1.8278,1.7843,1.7327,1.6933,1.6487,1.6384,1.6384,1.6384,1.6249,1.6171,1.6171,1.6077,1.6029,1.6124,1.6171,1.6181,1.6374,1.6384,1.6384,1.6384,1.6384,1.6384,1.6384,1.6384,1.6441,1.6488,1.6705,1.6976,1.7245,1.759,1.7865,1.8084,1.8084,1.8139,1.815,1.8356,1.8572,1.8774,1.9396,2.0105,2.0957,2.1961,2.2846,0.9756,0.9565,0.9512,0.9359,0.978,1.0303,1.0722,1.1208,1.1514,1.1225,1.1413,1.1627,1.1645,1.2277,1.303,1.3789,1.4528,1.5338,1.6414,1.6707,1.7115,1.791,1.7832,1.7793,1.7988,1.7832,1.7793,1.7998,1.8008,1.793,1.7715,1.7705,1.7803,1.8008,1.7607,1.749,1.7705,1.75,1.7393,1.7402,1.7607,1.7705,1.7715,1.792,1.8008,1.8008,1.8008,1.8008,1.8008,1.8008,1.8008,1.8008,1.8008,1.8008,1.8008,1.8008,1.8008,1.8008,1.8008,1.8008,1.8008,1.8212,1.8279,1.8405,1.8607,1.8751,1.8808,1.8942,1.8843,1.864,1.8058,1.7718,1.738,1.6763,1.6366,1.6155,1.6155,1.6077,1.6019,1.6019,1.5972,1.5914,1.5961,1.6019,1.6077,1.6249,1.6239,1.6306,1.6374,1.6384,1.6384,1.6384,1.6384,1.6384,1.6384,1.6658,1.692,1.719,1.7534,1.7822,1.8084,1.8084,1.8084,1.8084,1.8313,1.8464,1.8614,1.9263,1.9973,2.0707,2.1629,2.2364,0.9692,0.9358,0.9222,0.9098,0.9475,0.9881,1.0039,1.0354,1.0491,1.0112,1.0328,1.0694,1.1006,1.1738,1.2534,1.3067,1.398,1.4924,1.5807,1.6383,1.7051,1.791,1.8008,1.8008,1.8008,1.8008,1.8008,1.8008,1.8008,1.8008,1.8008,1.8008,1.8008,1.8008,1.8008,1.8008,1.8008,1.8008,1.8008,1.8008,1.8008,1.8008,1.8008,1.8008,1.8008,1.8008,1.8008,1.8008,1.8008,1.8008,1.8008,1.8008,1.8008,1.8008,1.8008,1.8008,1.8008,1.8008,1.8008,1.8008,1.8008,1.8008,1.8144,1.8269,1.8414,1.8549,1.8674,1.8741,1.8875,1.8839,1.8192,1.807,1.7846,1.6951,1.6285,1.5914,1.5914,1.5856,1.5856,1.5856,1.5798,1.5798,1.5856,1.5856,1.5904,1.6066,1.5931,1.5874,1.6066,1.6066,1.6066,1.6066,1.6259,1.6384,1.6384,1.6602,1.6818,1.7088,1.7368,1.7656,1.7975,1.8132,1.8189,1.8244,1.8536,1.8748,1.8901,1.9424,2.006,2.0694,2.1411,2.2052,0.9804,0.9228,0.8909,0.9148,0.9304,0.9611,1.0142,1.0351,1.0332,1.0056,1.002,1.0174,1.0395,1.0581,1.096,1.1869,0.0,1.3895,1.5205,1.6134,1.7051,1.791,1.8008,1.8008,1.8008,1.8008,1.8008,1.8008,1.8008,1.8008,1.8008,1.8008,1.8008,1.8008,1.8008,1.8008,1.8008,1.8008,1.8008,1.8008,1.8008,1.8008,1.8008,1.8008,1.8008,1.8008,1.8008,1.8008,0.0,1.8008,1.8008,1.8008,1.8008,1.8008,1.8008,1.8008,1.8008,1.8008,1.8008,1.8008,1.8008,1.8008,1.8008,1.8076,1.8269,1.8337,1.8337,1.8482,1.8549,1.8449,1.8016,1.7906,1.7674,1.6769,1.6236,1.5914,1.5914,1.5798,1.574,1.574,1.5546,1.5478,1.5672,1.574,1.574,1.5914,1.541,1.5031,1.5031,1.5031,1.5031,1.5031,1.5884,1.6384,1.6384,1.6431,1.6545,1.6818,1.6874,1.7145,1.7711,1.8194,1.8601,1.8827,1.9298,1.9656,1.9762,1.9971,2.0421,2.1089,2.1875,2.2585,0.9737,0.9528,0.9429,0.9413,0.9589,0.9798,0.9814,0.9873,0.9814,0.9458,0.9465,0.9666,1.0174,1.0344,1.0648,0.0,0.0,0.0,1.4283,1.505,1.5976,1.7424,1.7852,1.8008,1.8008,1.8008,1.8008,1.8008,1.8008,1.8008,1.8008,1.8008,1.8008,1.8008,1.7862,1.7784,1.7784,1.7735,1.7676,1.7676,1.7676,1.7676,1.7676,1.7676,1.7676,1.7676,1.7676,1.7676,0.0,1.7676,1.7735,1.7784,1.7784,1.7862,1.8008,1.8008,1.8008,1.8008,1.8008,1.8008,1.8008,1.8008,1.8008,1.8008,1.8269,1.8269,1.8337,1.8337,1.8414,1.8442,1.8195,1.7419,1.6747,1.6615,1.5807,1.5137,1.5536,1.5546,1.5536,1.5536,1.5478,1.5303,1.501,1.4951,1.4883,1.4628,1.4373,1.4195,1.4323,1.4382,1.4382,1.4382,1.504,1.5584,1.5778,1.571,1.5884,1.6343,1.6637,1.7218,1.8137,1.8396,1.8758,1.9367,1.9585,1.9748,1.9901,2.0263,2.0701,2.1114,2.1765,2.2249,0.9666,0.9506,0.9454,0.9418,0.9486,0.9553,0.9464,0.9379,0.9309,0.9061,0.9113,0.9361,0.9865,1.0079,1.0293,0.0,0.0,1.1837,1.3425,1.4369,1.5542,1.7082,1.7687,1.8008,1.8008,1.8008,1.8008,1.8008,1.794,1.793,1.793,1.7872,1.7872,1.8008,1.7784,1.7706,1.7706,1.7598,1.747,1.747,1.747,1.747,1.747,1.747,1.747,1.747,1.747,1.747,0.0,1.747,1.7529,1.7647,1.7647,1.7725,1.7862,1.7657,1.7725,1.794,1.7725,1.7657,1.7657,1.7657,1.751,1.7373,1.7501,1.7706,1.7842,1.7569,1.7552,1.7552,1.7531,1.6741,1.6019,1.6417,1.5841,1.5223,1.5516,1.5478,1.5262,1.5137,1.5001,1.4697,1.4291,1.4231,1.4103,1.3726,1.3476,1.3416,1.3537,1.3545,1.3545,1.3545,1.3957,1.4433,1.4932,1.4991,1.5225,1.5752,1.6191,1.6921,1.8093,1.8364,1.8914,1.9764,1.9984,2.0185,2.0294,2.0703,2.1,2.1195,2.1696,2.2111,0.9562,0.9045,0.8517,0.9092,0.8804,0.8537,0.9105,0.9011,0.8857,0.8956,0.9113,0.9263,0.9361,0.951,0.9614,0.9614,0.0,0.0,1.2623,1.446,1.6085,1.683,1.7579,1.8008,1.8008,1.8008,1.8008,1.8008,1.7784,1.7706,1.7706,1.7588,1.7676,1.8008,1.7784,1.7706,1.7706,1.7598,1.747,1.747,1.747,1.747,1.747,1.747,1.747,1.747,1.747,1.747,0.0,1.747,1.747,1.747,1.747,1.7588,1.7638,1.6881,1.7166,1.7872,1.7148,1.6932,1.6932,1.6932,1.6376,1.5745,1.5745,1.6306,1.6724,1.5948,1.5549,1.542,1.5651,1.573,1.5901,1.6156,1.642,1.6592,1.6152,1.5557,1.4998,1.4611,1.3983,1.3511,1.3502,1.3502,1.3511,1.3511,1.2948,1.2504,1.2512,1.2512,1.2512,1.2512,1.2512,1.2931,1.3906,1.4341,1.4634,1.501,1.5355,1.6036,1.7276,1.8155,1.9039,1.9885,2.0757,2.121,2.121,2.1325,2.1376,2.1388,2.1726,2.2396,0.9309,0.9288,0.9312,0.9499,0.9252,0.9011,0.9143,0.9018,0.8857,0.8956,0.9113,0.9263,0.9361,0.9517,0.976,1.0207,1.0624,0.0,1.3372,1.4195,1.5078,1.6278,1.6903,1.7432,1.794,1.8008,1.8008,1.8008,1.794,1.7862,1.7706,1.7647,1.7657,1.7676,1.7451,1.7373,1.7373,1.7176,1.7116,1.7116,1.7116,1.7116,1.7116,1.7116,1.7116,1.7116,1.7116,1.7116,1.7047,1.6542,1.6403,1.6403,1.5903,1.5816,1.6009,1.5886,1.6035,1.6237,1.6097,1.6097,1.6097,1.6097,1.5886,1.5604,1.51,1.5455,1.6026,1.5745,1.566,1.554,1.5472,1.5044,1.4689,1.5028,1.4775,1.459,1.4939,1.4848,1.4533,1.4018,1.3763,1.3368,1.2613,1.2573,1.252,1.2042,1.1919,1.1856,1.1856,1.1856,1.1856,1.1856,1.1856,1.2375,1.3551,1.3622,1.397,1.4804,1.5269,1.6027,1.7219,1.7561,1.8356,1.977,2.0127,2.0549,2.1221,2.1221,2.1348,2.1624,2.18,2.2099,0.9157,0.9292,0.9379,0.9486,0.9292,0.9024,0.9024,0.8938,0.8857,0.8956,0.9113,0.9263,0.9361,0.9517,0.979,1.0316,1.0507,1.121,1.3027,1.3773,1.4657,1.6051,1.6383,1.6724,1.751,1.7579,1.7725,1.8008,1.7657,1.751,1.7706,1.7295,1.7028,1.6968,1.7107,1.7166,1.7166,1.6968,1.6908,1.6908,1.6621,1.6473,1.6473,1.6184,1.6044,1.6044,1.6044,1.6044,0.0,1.5542,1.5401,1.5401,1.4966,1.4895,1.51,1.4895,1.5108,1.5463,1.5251,1.5251,1.5313,1.5313,1.5108,1.476,1.433,1.4474,1.4903,1.4903,1.4638,1.4412,1.4393,1.4066,1.3802,1.412,1.4201,1.419,1.4472,1.4313,1.4006,1.351,1.3139,1.2654,1.1933,1.1799,1.1732,1.131,1.131,1.1435,1.1435,1.1435,1.1435,1.1435,1.1435,1.1811,1.2765,1.2924,1.3316,1.4272,1.4829,1.5668,1.6738,1.7092,1.7799,1.9069,1.9344,1.9683,2.0302,2.0624,2.1083,2.1624,2.1663,2.1862,0.0,0.9011,0.8871,0.909,0.9005,0.8804,0.8804,0.8811,0.0,0.9008,0.9106,0.9271,0.9442,0.9546,0.9775,1.0148,1.0477,1.1019,1.2034,1.3292,1.4644,1.6007,1.5833,1.5956,1.6793,1.6862,1.7079,1.7794,1.7019,1.6811,1.7501,1.6542,1.5982,1.5903,1.6603,1.7028,1.7028,1.683,1.676,1.676,1.6044,1.5692,1.5692,1.4966,1.4601,0.0,1.4601,1.4601,1.4601,1.453,1.453,1.453,1.4458,1.4537,1.4617,1.397,1.4394,1.518,1.4474,1.433,1.4466,1.4466,1.4049,1.3492,1.3492,1.3492,1.3499,1.3499,1.2904,1.2355,1.2726,1.2898,1.3126,1.347,1.4245,1.4866,1.4441,1.387,1.3271,1.2908,1.2123,1.1507,1.1421,1.1248,1.1059,1.1059,1.1059,1.1122,1.1122,1.1122,1.1122,1.1122,1.1122,1.1319,1.1782,1.2203,1.28,1.3577,1.421,1.4997,1.5886,1.6594,1.7276,1.7901,1.8499,1.8834,1.889,1.9694,2.0549,2.1388,2.1325,2.1526,0.8891,0.0,0.8824,0.8891,0.8858,0.8804,0.0,0.8857,0.9008,0.9113,0.9263,0.9485,0.9889,0.9987,1.0258,1.1085,1.1487,1.2126,1.339,1.4134,1.4927,1.6032,1.5402,1.5384,1.6793,1.6376,1.6026,1.6097,1.5886,1.5675,1.5604,1.533,1.5117,1.4966,1.51,1.5242,1.5242,1.5171,1.5171,1.5108,1.4958,1.4887,1.4895,1.4673,1.4601,1.4601,1.4601,1.4601,1.453,1.3962,1.3745,1.3673,1.3091,1.2879,1.2879,1.2886,1.3032,1.3244,1.3251,1.3258,1.3324,1.3324,1.3185,1.3046,1.3046,1.3127,1.3273,1.3273,1.2849,1.2494,1.2494,1.2415,1.2326,1.2634,1.2716,1.2848,1.3193,1.2762,1.2265,1.2058,1.1657,1.1249,1.0894,1.0855,1.087,1.087,1.0996,1.1122,1.1122,1.1122,1.1122,1.1122,1.1122,1.1347,1.1896,1.2208,1.2713,1.3523,1.401,1.4403,1.4919,1.5409,1.6026,1.6913,1.8017,1.889,1.9596,1.9803,2.0398,2.1388,2.088,2.0741,0.8804,0.8804,0.8838,0.8971,0.8958,0.8944,0.9025,0.9111,0.9113,0.9263,0.9361,0.9566,0.9984,1.0104,1.0419,1.1468,1.1706,1.2269,1.3637,1.4007,1.439,1.5102,1.454,1.4545,1.5737,1.5455,1.5313,1.5463,1.518,1.4974,1.5029,1.4458,1.4159,1.4171,1.3953,1.4088,1.4601,1.4601,1.4601,1.4601,1.425,1.4106,1.4099,1.3745,1.3528,1.3528,1.3528,1.3528,1.3528,1.3091,1.2952,1.2886,1.2445,1.2305,1.2305,1.2452,1.2526,1.2599,1.2746,1.2826,1.29,1.29,1.29,1.29,1.29,1.2802,1.279,1.3004,1.2578,1.2089,1.2089,1.1792,1.1641,1.1874,1.1929,1.2109,1.2497,1.2237,1.1908,1.1839,1.1425,1.1073,1.0853,1.0769,1.0681,1.0681,1.0814,1.087,1.087,1.087,1.087,1.087,1.0994,1.1077,1.1061,1.147,1.2172,1.3334,1.3742,1.4057,1.4353,1.4705,1.5188,1.5807,1.6655,1.7531,1.8449,1.867,1.9278,2.0215,1.989,1.9824,0.8804,0.8838,0.8918,0.9125,0.9039,0.9024,0.9268,0.0,0.0,0.0,0.0,0.9645,1.0185,1.0287,1.0609,1.1494,1.1784,1.2182,1.3331,1.3492,1.3667,1.4014,1.3734,1.3775,1.4537,1.4466,1.4609,1.5108,1.4474,1.433,1.4807,1.376,1.3248,1.3448,1.312,1.3319,1.4243,1.4243,1.4243,1.4243,1.36,1.3317,1.3317,1.2592,1.2305,1.2305,0.0,0.0,1.2305,1.2305,1.2305,1.2305,1.2305,1.2305,1.2305,1.2305,1.2378,1.2526,1.2526,1.2673,1.2826,1.2826,1.2826,1.2826,1.2826,1.2494,1.2278,1.2677,1.2239,1.1642,1.1689,1.1377,1.1089,1.147,1.165,1.1837,1.2218,1.2004,1.175,1.179,1.1255,1.0791,1.0725,1.0458,1.0238,1.0364,1.0301,1.0238,1.0364,1.0301,1.0251,1.0302,1.0516,1.0492,0.9964,1.0453,1.1335,1.2652,1.3244,1.368,1.4057,1.4346,1.4633,1.4832,1.5204,1.5833,1.6775,1.7276,1.7959,1.8767,1.8767,1.89,0.8804,0.9099,0.9289,0.8925,0.8838,0.8871,0.9017,0.9141,0.0,0.0,0.0,1.0214,1.0814,1.115,1.1472,1.1889,1.2423,1.295,1.3426,1.3492,1.3725,1.44,1.3943,1.3775,1.4537,1.4049,1.363,1.355,1.3258,1.3112,1.3032,1.2618,1.2471,1.2512,1.2478,1.2471,1.2666,1.2666,1.2666,1.2666,1.2519,1.2445,1.2445,1.2378,1.2305,1.2305,0.0,1.2305,1.2305,1.2305,1.2305,1.2305,1.2305,1.2305,1.2305,1.2305,1.2298,1.2378,1.2378,1.2378,1.2378,1.2378,1.2378,1.2378,1.2378,1.2345,1.2318,1.2365,1.1955,1.1483,1.1807,1.1471,1.1196,1.1984,1.1637,1.1343,1.2131,1.1683,1.1202,1.1443,1.0546,0.9713,0.959,0.9034,0.8748,0.9186,0.8737,0.8678,0.9396,0.8947,0.8701,0.9047,0.9103,0.9286,0.9548,0.9652,1.0008,1.0622,1.1675,1.2792,1.4057,1.4129,1.4346,1.4633,1.4713,1.533,1.6627,1.6706,1.7394,1.8509,1.8104,1.791,0.891,0.9058,0.9227,0.9302,0.9487,0.966,0.9708,0.9818,0.0,0.0,0.0,1.0514,1.0982,1.1341,1.178,1.2453,1.2958,1.3323,1.3477,1.3492,1.3637,1.3985,1.3702,1.3637,1.3977,1.3702,1.3419,1.3193,1.3046,1.2826,1.2599,1.2297,1.2138,1.2298,1.2151,1.2144,1.2305,1.2305,1.2305,1.2305,1.2305,1.2305,1.2305,1.2305,1.2305,1.2305,0.0,1.2305,1.2305,1.2305,1.2305,1.2305,1.2305,1.2305,1.2305,1.2305,1.2305,1.2305,1.2305,1.2305,1.2305,1.2305,1.2305,1.2198,1.1668,1.1369,1.1177,1.0748,1.1108,1.1697,1.183,1.1155,1.0625,1.1247,1.0719,1.0134,1.0629,1.0266,0.9843,0.9814,0.9179,0.8678,0.8613,0.8291,0.8161,0.8415,0.8221,0.8156,0.8549,0.8336,0.8256,0.843,0.8651,0.8735,0.8505,0.8773,0.9479,1.0789,1.1471,1.2291,1.3404,1.3251,1.3178,1.3324,1.3382,1.3658,1.4275,1.5076,1.579,1.6419,1.6802,1.7019,0.8942,0.9063,0.9259,0.9526,0.0,1.0123,1.0265,1.0415,1.0631,1.0785,1.0872,1.1004,1.1253,1.1567,1.2058,1.2877,1.3287,1.3492,1.3492,1.3492,1.3492,1.3492,1.3492,1.3492,1.3492,1.3492,1.3419,1.3273,1.3046,1.282,1.2673,1.2236,1.2071,1.2291,1.2084,1.2078,1.2298,1.2305,1.2305,1.2305,1.2305,1.2305,1.2305,1.2305,1.2305,1.2305,1.2305,1.2305,1.2305,1.2305,1.2305,1.2305,1.2305,1.2305,1.2305,1.2305,1.2305,1.2305,1.2305,1.215,1.2003,1.2003,1.1855,1.1569,1.0785,1.0349,1.0044,0.9357,1.0219,1.1287,1.1287,1.0502,0.9849,1.0242,0.9658,0.9108,0.9201,0.903,0.8767,0.8466,0.8047,0.7702,0.7697,0.7567,0.7507,0.7637,0.7507,0.7442,0.7637,0.765,0.7653,0.7751,0.8032,0.8043,0.748,0.7845,0.8832,1.0576,1.095,1.1477,1.2298,1.207,1.1848,1.1848,1.1983,1.2124,1.2345,1.3658,1.4394,1.4609,1.563,1.6202,0.8888,0.9321,0.963,0.9461,0.9365,0.9482,1.0229,1.0422,1.0646,1.1363,1.1728,1.1941,1.1963,1.2233,1.2577,1.295,1.3287,1.3492,1.3492,1.3492,1.3492,1.3492,1.3492,1.3492,1.3492,1.3492,1.3492,1.3499,1.3119,1.29,1.29,1.2505,1.2278,1.2305,1.2278,1.2278,1.2305,1.2305,1.2305,1.2305,1.2305,1.2305,1.2305,1.2305,1.2305,1.2305,1.2305,1.2305,1.2305,1.2305,1.2305,1.2305,1.2305,1.2305,1.2305,1.2305,1.2305,1.2305,1.2305,1.1781,1.1186,1.1186,1.0651,1.0002,0.9767,0.9685,0.9553,0.9189,0.9291,0.9462,0.94,0.9214,0.9011,0.9192,0.8934,0.8699,0.885,0.8704,0.8558,0.8399,0.765,0.6924,0.6785,0.6199,0.5939,0.6461,0.6013,0.5885,0.6675,0.6218,0.5947,0.6466,0.652,0.666,0.6896,0.7007,0.7472,0.8533,0.8993,0.9669,1.064,1.064,1.064,1.064,1.1025,1.162,1.2565,1.3084,1.3753,1.4641,1.5284,1.5576,0.8802,0.9348,0.9809,0.9843,0.9966,0.0,0.0,1.069,1.1017,1.1721,1.1955,1.2029,1.2299,1.227,1.2394,1.2921,1.2943,1.2958,1.3162,1.3016,1.2892,1.2892,1.3067,1.3192,1.3192,1.3192,1.3192,1.3192,1.265,1.241,1.2599,1.2247,1.2031,1.2031,1.2204,1.2218,1.2037,1.2211,1.2305,1.2305,1.2305,1.2305,1.2305,1.2305,1.2305,1.2305,1.2305,1.2305,1.2305,1.2305,1.2305,1.2305,1.2305,1.2003,1.1533,1.143,1.1474,1.1459,1.0845,1.0518,1.0346,1.0201,0.9976,0.9526,0.865,0.8332,0.8217,0.753,0.7316,0.7633,0.8819,0.8674,0.8269,0.8354,0.7785,0.7191,0.6999,0.6978,0.6854,0.6605,0.6254,0.5947,0.5881,0.5686,0.5554,0.5752,0.5557,0.5491,0.5822,0.5791,0.5814,0.6004,0.6194,0.6435,0.6703,0.6714,0.6942,0.7472,0.8232,0.9064,1.0115,0.9895,0.9744,0.9744,0.9679,0.9825,1.019,1.123,1.1896,1.2265,1.3375,1.3962,0.8735,0.9238,0.9818,1.002,0.0,0.0,1.0697,1.0997,1.1377,1.1926,1.1971,1.2036,1.2328,1.2116,1.2182,1.2628,1.2599,1.2599,1.2819,1.2665,1.2519,1.2519,1.2716,1.2855,1.2855,1.2855,1.2855,1.2786,1.2308,1.2067,1.2137,1.1871,1.173,1.173,1.1924,1.1977,1.187,1.2064,1.2211,1.2305,1.2305,1.2305,1.2305,1.2305,1.2305,1.2305,1.2305,1.2157,1.1929,1.1848,1.1626,1.1323,1.1397,1.1099,1.0634,1.0454,1.0448,1.0433,0.9677,0.9353,0.9255,0.911,0.893,0.8534,0.7555,0.7225,0.7037,0.6257,0.6032,0.6406,0.7686,0.7698,0.7265,0.726,0.674,0.6104,0.5827,0.5758,0.5747,0.5456,0.5428,0.5428,0.5428,0.5359,0.5292,0.5292,0.5229,0.5246,0.5292,0.5401,0.5555,0.5646,0.5954,0.6103,0.6254,0.6254,0.6405,0.6714,0.7322,0.808,0.8908,0.8685,0.8537,0.8537,0.847,0.8546,0.8694,0.989,1.0484,1.0708,1.1822,1.2492,0.8672,0.9082,0.9492,0.9969,0.0,0.0,1.0931,1.1387,1.1648,1.197,1.1971,1.1971,1.1971,1.2028,1.2028,1.1971,1.2306,1.2511,1.2519,1.2511,1.2511,1.2511,1.2511,1.2519,1.2519,1.2519,1.2451,1.2323,1.2112,1.1901,1.1696,1.1491,1.1423,1.1423,1.1423,1.1563,1.1857,1.1864,1.2011,1.2291,1.2291,1.2291,1.2298,1.2298,1.2298,1.2298,1.2298,1.1855,1.1031,1.0864,1.019,0.9291,0.9518,0.9593,0.9593,0.9588,0.9516,0.9389,0.9171,0.8514,0.7859,0.7859,0.7468,0.6798,0.6473,0.6373,0.6306,0.5773,0.5663,0.5818,0.583,0.5946,0.6022,0.5875,0.58,0.5718,0.5426,0.5481,0.5542,0.5393,0.5428,0.5428,0.5428,0.5223,0.5087,0.5087,0.496,0.4879,0.4951,0.4969,0.5139,0.5405,0.5558,0.5637,0.5637,0.5637,0.5792,0.6261,0.6261,0.649,0.6865,0.6865,0.6865,0.6865,0.7472,0.808,0.8675,0.9281,0.989,1.0484,1.0852,1.1224,0.8877,0.9393,0.9926,1.0082,1.0448,1.0836,1.1026,1.1211,0.0,1.1926,1.1971,1.1971,1.1971,1.1853,1.1772,1.1999,1.1933,1.1926,1.2145,1.1984,1.1845,1.1845,1.2043,1.2182,1.2182,1.205,1.1984,1.1918,1.1458,1.1228,1.1368,1.1189,1.1122,1.1122,1.1316,1.1369,1.1256,1.1456,1.1603,1.1683,1.1185,1.1365,1.1997,1.148,1.119,1.113,1.0609,1.0268,1.0051,0.982,0.9195,0.8407,0.908,0.897,0.8374,0.8234,0.8145,0.7999,0.7302,0.6991,0.6805,0.6664,0.6485,0.627,0.5923,0.5863,0.5748,0.5547,0.5459,0.5528,0.5613,0.5724,0.5751,0.5779,0.5725,0.5599,0.547,0.5463,0.5416,0.5233,0.5156,0.5156,0.5027,0.4894,0.4894,0.4894,0.4903,0.4996,0.5089,0.5128,0.525,0.5493,0.5547,0.5572,0.5572,0.5572,0.5649,0.5805,0.6122,0.6507,0.6865,0.6865,0.6865,0.6865,0.6442,0.6307,0.6528,0.6401,0.6397,0.6578,0.6939,0.7451,0.8919,0.9416,0.9936,1.0068,1.0492,1.0946,1.1269,1.1328,1.1377,1.1765,1.1845,1.1845,1.1845,1.1692,1.1626,1.1816,1.1684,1.1626,1.1823,1.1684,1.1622,1.1622,1.1728,1.1781,1.1717,1.1653,1.1532,1.1396,1.1037,1.0819,1.0938,1.0887,1.0822,1.0822,1.0989,1.1056,1.0995,1.0894,1.0895,1.1005,1.0309,1.0269,1.0678,1.0355,1.0189,1.013,0.9262,0.8912,0.8739,0.8222,0.7638,0.7106,0.7807,0.7712,0.7159,0.7056,0.697,0.6822,0.6175,0.5996,0.6072,0.5934,0.5905,0.5922,0.5703,0.5589,0.5559,0.5406,0.5359,0.5326,0.5477,0.5405,0.5329,0.5681,0.558,0.5477,0.5326,0.5226,0.5093,0.5024,0.503,0.5033,0.4903,0.484,0.4776,0.4776,0.4276,0.3887,0.3986,0.4096,0.4199,0.4377,0.4389,0.4231,0.3915,0.3915,0.3992,0.4231,0.4545,0.483,0.5146,0.614,0.6626,0.6645,0.5698,0.4947,0.452,0.4595,0.4692,0.4659,0.4878,0.5394,0.8912,0.9344,0.9694,1.0016,1.0368,1.0792,1.1483,1.1622,1.1622,1.1622,1.1622,1.1622,1.1622,1.1622,1.1622,1.1622,1.1622,1.1622,1.1622,1.1622,1.1622,1.1622,1.156,1.1498,1.1303,1.124,1.1115,1.0807,1.0807,1.0744,1.0624,1.0624,1.0624,1.0624,1.0561,1.0624,1.0883,1.0217,1.0001,1.0236,0.9546,0.9086,0.8813,0.9119,0.9232,0.9093,0.8131,0.7637,0.7341,0.6444,0.5943,0.5783,0.6018,0.609,0.6076,0.6076,0.5976,0.5837,0.5638,0.5569,0.5569,0.5569,0.5657,0.5739,0.5537,0.55,0.5542,0.5333,0.516,0.5119,0.5251,0.5058,0.4931,0.5401,0.5428,0.5248,0.5116,0.496,0.4831,0.4764,0.4909,0.4916,0.4779,0.4651,0.4587,0.4727,0.3374,0.2188,0.1952,0.2152,0.2205,0.2178,0.2188,0.1877,0.1173,0.1094,0.1329,0.1877,0.1873,0.2007,0.2115,0.4635,0.597,0.5989,0.4889,0.378,0.2753,0.3613,0.4028,0.3988,0.3988,0.4419,0.9394,0.9511,0.9694,1.0016,1.0536,1.1077,1.1534,1.1622,1.1622,1.1622,1.1622,1.1622,1.1622,1.1622,1.1622,1.1622,1.1622,1.1622,1.1622,1.1622,1.1622,1.1622,1.1435,1.1365,1.1303,1.1059,1.087,1.0807,1.0681,1.0618,1.0624,1.0624,1.0624,1.0624,1.004,0.974,0.9796,0.915,0.8853,0.8903,0.8251,0.7895,0.779,0.8073,0.7761,0.7017,0.6812,0.6581,0.6263,0.5965,0.581,0.5647,0.583,0.5806,0.5706,0.5706,0.561,0.5476,0.5476,0.541,0.541,0.541,0.5433,0.5383,0.4739,0.5007,0.5279,0.4503,0.4637,0.4982,0.4934,0.4925,0.4986,0.5084,0.5017,0.4931,0.49,0.4903,0.4913,0.4773,0.4782,0.4381,0.2954,0.2684,0.3094,0.4255,0.4079,0.3026,0.0778,0.0515,0.0303,-0.0381,-0.0465,-0.0392,-0.0235,-0.0549,-0.0706,-0.0549,-0.0462,-0.046,-0.0467,0.1989,0.3377,0.3374,0.2873,0.2506,0.2253,0.1924,0.1807,0.1813,0.1814,0.1991,0.9474,0.9614,0.9731,1.0214,1.0704,1.1158,1.1549,1.1622,1.1622,1.1622,1.1622,1.1622,1.1622,1.1622,1.1622,1.1622,1.1622,1.1622,1.1622,1.1498,1.1435,1.1435,1.131,1.1185,1.1052,1.0933,1.0744,1.0681,1.0624,1.0624,1.0624,1.0301,1.0104,1.0104,0.939,0.9005,0.9005,0.8361,0.8037,0.8037,0.7326,0.6937,0.6872,0.7034,0.6814,0.6289,0.6101,0.5884,0.5748,0.5628,0.5549,0.5488,0.5562,0.5545,0.5481,0.5481,0.543,0.5428,0.5428,0.516,0.4891,0.4891,0.4758,0.4625,0.4292,0.4361,0.45,0.4503,0.4643,0.4846,0.4779,0.4712,0.4512,0.3763,0.4236,0.4779,0.4779,0.4712,0.4445,0.3627,0.4041,0.4252,0.3301,0.1747,0.0807,0.1616,0.191,0.1453,-0.007,-0.0215,-0.0442,-0.0906,-0.115,-0.1241,-0.1099,-0.1335,-0.1493,-0.1572,-0.1536,-0.1516,-0.1517,-0.0516,0.029,0.0799,0.085,0.0916,0.0928,0.0705,0.0576,0.0606,0.0757,0.0998,0.9445,0.9658,0.9841,1.0441,1.0828,1.1158,1.1549,1.1622,1.1622,1.1622,1.1622,1.1622,1.1622,1.1622,1.1622,1.1622,1.1622,1.1622,1.1622,1.1435,1.1303,1.1303,1.1122,1.0996,1.0807,1.0807,1.0744,1.0624,1.0624,1.0561,1.0428,0.9843,0.9454,0.9326,0.8683,0.8296,0.8296,0.7652,0.7326,0.7326,0.6679,0.635,0.621,0.6148,0.6148,0.6079,0.5749,0.5617,0.555,0.5425,0.5428,0.5428,0.5428,0.5428,0.5428,0.5428,0.5296,0.5226,0.5362,0.4891,0.422,0.4154,0.3954,0.3758,0.3758,0.3828,0.403,0.4442,0.4236,0.3966,0.4244,0.4317,0.3976,0.2755,0.3433,0.4319,0.4314,0.4317,0.3909,0.2688,0.2963,0.3377,0.3444,0.101,-0.1012,-0.1079,-0.0809,-0.0612,-0.0625,-0.0629,-0.0642,-0.0674,-0.1053,-0.1444,-0.1792,-0.1873,-0.2029,-0.2262,-0.2212,-0.2165,-0.2128,-0.2621,-0.2461,-0.159,-0.1057,-0.0766,-0.077,-0.063,-0.0575,-0.0681,-0.0454,-0.0077,0.9503,0.9819,1.0126,1.0492,1.0828,1.1158,1.1549,1.1622,1.1622,1.1622,1.1622,1.1622,1.1622,1.1622,1.1622,1.1622,1.1622,1.1622,1.1622,1.1435,1.1303,1.1303,1.1052,1.0807,1.0807,1.0681,1.0624,1.0624,1.0624,1.0301,0.9709,0.9582,0.9262,0.8678,0.7977,0.7652,0.7652,0.6937,0.6548,0.6548,0.642,0.635,0.621,0.602,0.5818,0.5683,0.5617,0.5554,0.5428,0.5428,0.5428,0.5428,0.5428,0.5428,0.5428,0.5428,0.5024,0.4556,0.5169,0.4767,0.3892,0.3485,0.3349,0.3218,0.2954,0.3971,0.4861,0.3437,0.1882,0.094,0.2147,0.3366,0.4258,0.4053,0.324,0.2427,0.2485,0.3435,0.4258,0.4053,0.1616,-0.027,0.0067,-0.027,-0.0674,-0.1079,-0.1079,-0.1013,-0.1017,-0.1037,-0.1063,-0.1096,-0.1319,-0.1702,-0.2347,-0.2655,-0.3107,-0.3781,-0.3771,-0.3825,-0.3817,-0.3639,-0.3544,-0.3434,-0.2662,-0.2248,-0.2233,-0.2652,-0.3015,-0.3325,-0.3249,-0.3211,0.951,0.9855,1.0177,1.0507,1.0828,1.1158,1.1549,1.1622,1.1622,1.1622,1.1622,1.1622,1.1622,1.1622,1.1622,1.1622,1.1622,1.1622,1.1622,1.1373,1.1185,1.1185,1.087,1.0688,1.0688,1.0618,1.0624,1.0624,1.0231,0.9843,0.9518,0.8807,0.8231,0.7977,0.726,0.6872,0.6872,0.6548,0.642,0.642,0.642,0.6284,0.602,0.5954,0.5818,0.5617,0.5554,0.5425,0.5428,0.5428,0.5428,0.5428,0.5428,0.516,0.4758,0.4758,0.4489,0.4159,0.4498,0.4028,0.3224,0.3357,0.2822,0.195,0.1612,0.1882,0.2555,0.3372,0.3034,0.2154,0.1211,0.1413,0.182,0.1348,0.0809,0.0337,0.0605,0.0942,0.1348,0.155,-0.0471,-0.2221,-0.2018,-0.2218,-0.2485,-0.2621,-0.2418,-0.2284,-0.2418,-0.2443,-0.257,-0.2822,-0.2907,-0.3156,-0.3531,-0.3691,-0.3968,-0.4281,-0.4377,-0.4372,-0.4345,-0.4708,-0.4827,-0.4674,-0.3664,-0.3187,-0.3207,-0.3487,-0.3728,-0.3993,-0.4152,-0.4361,0.9401,0.9744,1.0108,1.0404,1.077,1.1203,1.1446,1.1564,1.1622,1.1622,1.1622,1.1622,1.1622,1.1622,1.1622,1.1622,1.1622,1.156,1.156,1.1247,1.1059,1.1059,1.0751,1.0624,1.0624,1.0624,1.0491,1.0364,0.9779,0.9326,0.9005,0.8037,0.7391,0.7195,0.6679,0.642,0.642,0.642,0.642,0.642,0.635,0.6218,0.5888,0.5822,0.5752,0.5554,0.5425,0.5428,0.5428,0.5428,0.5292,0.5093,0.5093,0.4758,0.4223,0.4223,0.4023,0.3761,0.4236,0.3429,0.2353,0.2622,0.1818,0.0741,0.0471,0.0202,0.0471,0.2629,0.324,0.2698,0.0337,-0.027,-0.0404,-0.0944,-0.1079,-0.1146,-0.1145,-0.1414,-0.1549,-0.1413,-0.2487,-0.336,-0.3224,-0.3489,-0.3756,-0.3758,-0.3487,-0.3351,-0.3551,-0.3551,-0.3685,-0.4004,-0.4097,-0.4272,-0.4643,-0.4751,-0.4953,-0.5228,-0.529,-0.5372,-0.5406,-0.5922,-0.6117,-0.5859,-0.5145,-0.4651,-0.4412,-0.4412,-0.4588,-0.4719,-0.5058,-0.537,0.9147,0.9539,0.9947,1.0071,1.0602,1.1077,1.1092,1.1402,1.1622,1.1622,1.1622,1.1622,1.1622,1.1622,1.1622,1.1622,1.1622,1.156,1.1373,1.1185,1.1059,1.087,1.0688,1.0624,1.0624,1.0624,1.0301,0.9582,0.9518,0.8941,0.7652,0.7521,0.7199,0.6482,0.6416,0.642,0.642,0.642,0.642,0.642,0.628,0.6083,0.5888,0.5686,0.5554,0.5425,0.5428,0.5428,0.5428,0.5428,0.4957,0.4353,0.4353,0.4156,0.3892,0.3892,0.3627,0.3429,0.4861,0.3507,0.1079,0.0404,0.0135,0.0067,0.0,0.0,0.0,0.0202,0.0202,0.0,-0.0809,-0.1012,-0.1079,-0.1079,-0.1079,-0.1482,-0.2757,-0.3092,-0.3226,-0.3625,-0.3825,-0.3692,-0.3284,-0.3215,-0.3284,-0.3487,-0.3487,-0.3551,-0.3678,-0.3678,-0.372,-0.383,-0.4124,-0.4544,-0.5312,-0.5722,-0.6376,-0.7308,-0.738,-0.7457,-0.7634,-0.7368,-0.7241,-0.7227,-0.7551,-0.7186,-0.609,-0.623,-0.6321,-0.6494,-0.6667,-0.7198,0.8969,0.9314,0.9734,0.9944,1.0377,1.0821,1.1026,1.1387,1.1622,1.1622,1.1622,1.1556,1.135,1.1483,1.1622,1.1622,1.1498,1.1365,1.1303,1.1052,1.087,1.0807,1.0681,1.0624,1.0624,1.0168,0.9779,0.9518,0.8683,0.8037,0.7521,0.7068,0.6679,0.642,0.642,0.642,0.642,0.642,0.642,0.642,0.628,0.6083,0.5888,0.5683,0.5554,0.5362,0.4891,0.4957,0.5362,0.4891,0.4556,0.4287,0.3751,0.3353,0.3019,0.3019,0.2487,0.1885,0.2153,0.1413,0.0674,0.2225,0.1482,0.0,0.0,0.0,-0.0067,-0.0539,-0.0674,-0.0674,-0.0742,-0.0742,-0.0944,-0.1816,-0.1882,-0.2149,-0.362,-0.3556,-0.322,-0.3418,-0.3956,-0.4292,-0.4156,-0.4553,-0.4954,-0.502,-0.502,-0.5084,-0.5279,-0.5276,-0.5403,-0.5628,-0.5786,-0.6033,-0.6553,-0.6592,-0.6843,-0.7333,-0.7333,-0.7359,-0.743,-0.7425,-0.7563,-0.7904,-0.8361,-0.825,-0.7381,-0.7832,-0.8215,-0.8577,-0.8514,-0.8888,0.8686,0.9075,0.9539,0.9653,1.0106,1.0552,1.0668,1.1085,1.1461,1.1461,1.1461,1.1333,1.1114,1.1165,1.1267,1.1316,1.1207,1.1119,1.1101,1.0926,1.0807,1.0744,1.053,1.0385,1.0225,0.9699,0.9231,0.8871,0.7972,0.0,0.7134,0.6679,0.642,0.642,0.642,0.642,0.642,0.642,0.642,0.642,0.6214,0.602,0.5888,0.562,0.5355,0.5024,0.4489,0.4556,0.4957,0.422,0.3818,0.3551,0.3151,0.2551,0.2017,0.2017,0.1481,0.0674,0.0404,0.0202,0.0337,0.2225,0.155,-0.0067,-0.027,-0.0337,-0.0472,-0.0809,-0.1012,-0.1012,-0.0742,-0.0943,-0.1345,-0.2149,-0.2683,-0.3218,-0.422,-0.402,-0.3751,-0.3949,-0.4553,-0.5024,-0.5024,-0.5491,-0.5954,-0.602,-0.602,-0.6086,-0.6214,-0.6346,-0.6461,-0.6654,-0.6788,-0.6984,-0.7246,-0.7255,-0.7302,-0.7441,-0.7697,-0.79,-0.8111,-0.825,-0.8662,-0.9278,-0.9685,-0.9694,-0.9371,-0.9355,-0.9536,-0.9962,-0.9875,-1.042,0.0,0.0,0.0,0.9242,0.9735,1.0215,0.9971,1.0502,1.107,1.1063,1.1063,1.1055,1.1048,1.0792,1.0617,1.0752,1.0756,1.0816,1.0815,1.08,1.0744,1.0624,1.0307,0.9927,0.9558,0.9226,0.8618,0.7637,0.7521,0.7134,0.6482,0.642,0.642,0.642,0.642,0.642,0.642,0.642,0.642,0.642,0.609,0.5888,0.5826,0.5491,0.4957,0.4287,0.422,0.422,0.4154,0.3485,0.2748,0.2147,0.2348,0.1883,0.1079,0.1079,0.0607,0.0,0.0,0.0,0.0,0.0,-0.0,-0.0135,-0.0877,-0.1079,-0.1012,-0.0607,-0.0809,-0.1079,-0.1146,-0.1817,-0.2417,-0.2214,-0.3418,-0.4625,-0.4625,-0.4625,-0.4824,-0.5484,-0.5752,-0.5892,-0.5892,-0.5892,-0.5954,-0.6214,-0.6214,-0.628,-0.642,-0.6613,-0.6675,-0.6675,-0.6974,-0.722,-0.7236,-0.7578,-0.7859,-0.7879,-0.8656,-0.9363,-0.9891,-1.0045,-1.0486,-1.1391,-1.1553,-1.18,-1.2173,-1.0795,-1.027,-1.0604,-1.0736,-1.185,0.8159,0.0,0.0,0.0,0.0,0.0,1.008,1.0427,1.0713,1.0595,1.0494,1.043,1.025,1.0079,0.9939,0.9798,1.0303,1.0625,1.0533,1.0608,1.0624,1.0624,1.0034,0.9629,0.9512,0.8559,0.8035,0.0,0.726,0.6876,0.7199,0.6679,0.642,0.642,0.642,0.642,0.642,0.642,0.642,0.642,0.609,0.562,0.5084,0.4752,0.422,0.3485,0.2948,0.2681,0.2681,0.248,0.228,0.208,0.1615,0.1146,0.0674,0.1012,0.0607,0.0,0.0,0.0,0.0,0.0,-0.0337,-0.0809,-0.1012,-0.1079,-0.1079,-0.0944,-0.1012,-0.1213,-0.168,-0.2014,-0.2482,-0.362,-0.4289,-0.4758,-0.5425,-0.5686,-0.5752,-0.5822,-0.5951,-0.6148,-0.6148,-0.6218,-0.635,-0.6544,-0.6544,-0.6609,-0.6749,-0.6815,-0.6811,-0.6811,-0.7113,-0.7468,-0.8034,-0.8563,-0.9168,-0.9701,-0.9971,-1.0325,-1.0741,-1.0539,-1.0862,-1.1868,-1.2206,-1.2898,-1.395,-1.2803,-1.2676,-1.3531,-1.438,-1.5027,0.0,0.0,0.0,0.0,0.0,0.0,0.9667,0.9931,1.0214,1.0094,1.0059,0.9946,0.9818,0.9622,0.943,0.9268,0.9831,1.0272,1.0282,1.0181,1.0168,1.0168,0.9421,0.8822,0.8672,0.7827,0.7362,0.7577,0.6872,0.658,0.6948,0.6561,0.6306,0.6306,0.6379,0.642,0.642,0.642,0.642,0.6416,0.5752,0.5216,0.4749,0.4151,0.3418,0.2748,0.228,0.1946,0.1678,0.1678,0.1679,0.1614,0.128,0.0944,0.0742,0.0674,0.0337,0.0,0.0,0.0,-0.0067,-0.0337,-0.0742,-0.1079,-0.1079,-0.1079,-0.1079,-0.1078,-0.1347,-0.1816,-0.2484,-0.2948,-0.3482,-0.442,-0.4954,-0.5418,-0.5888,-0.6152,-0.6214,-0.6086,-0.6152,-0.628,-0.628,-0.6416,-0.6548,-0.6675,-0.6741,-0.6811,-0.6881,-0.7077,-0.7209,-0.7209,-0.7768,-0.8394,-0.8954,-0.9445,-1.0036,-1.0725,-1.0989,-1.1216,-1.1594,-1.1706,-1.2224,-1.3361,-1.3562,-1.4356,-1.5678,-1.4375,-1.4318,-1.5325,-1.6042,-1.6645,0.0,0.0,0.0,0.0,0.9099,0.0,0.9071,0.9322,0.9666,0.9631,0.9624,0.9631,0.9624,0.9347,0.9106,0.9008,0.9432,0.9784,1.0027,0.9712,0.9518,0.9518,0.8617,0.7939,0.7632,0.7291,0.6931,0.6633,0.6498,0.6359,0.6215,0.6207,0.6215,0.624,0.6335,0.642,0.642,0.635,0.6284,0.6284,0.5216,0.4683,0.4547,0.3549,0.2681,0.2013,0.2013,0.1678,0.1076,0.1076,0.1077,0.1079,0.1079,0.1079,0.1012,0.027,0.0,0.0,0.0,-0.0067,-0.0202,-0.0877,-0.1079,-0.1079,-0.1079,-0.1146,-0.1212,-0.1344,-0.1946,-0.2683,-0.342,-0.4217,-0.4815,-0.4948,-0.5613,-0.6214,-0.6214,-0.635,-0.635,-0.628,-0.635,-0.6416,-0.6416,-0.6613,-0.6741,-0.6741,-0.6942,-0.7073,-0.7077,-0.7596,-0.7922,-0.7922,-0.8846,-0.9539,-0.9922,-1.0274,-1.0721,-1.1286,-1.1737,-1.2198,-1.2557,-1.3153,-1.4055,-1.5307,-1.5486,-1.612,-1.73,-1.5848,-1.558,-1.6379,-1.6738,-1.7463,0.0,0.0,0.0,0.877,0.9026,0.0,0.9062,0.915,0.9282,0.9145,0.9051,0.8998,0.9097,0.8996,0.8857,0.8857,0.8757,0.8959,0.9661,0.9593,0.9518,0.9518,0.8832,0.8372,0.8291,0.7742,0.753,0.7829,0.7168,0.6648,0.6203,0.6207,0.6277,0.6359,0.64,0.642,0.642,0.5951,0.5749,0.5749,0.4683,0.3813,0.3278,0.2613,0.1946,0.1276,0.1276,0.121,0.1076,0.1076,0.1077,0.1079,0.0742,0.0809,0.1012,0.027,0.0,0.0,0.0,-0.0404,-0.0877,-0.1079,-0.1079,-0.1079,-0.1079,-0.1481,-0.2082,-0.2817,-0.3153,-0.3485,-0.435,-0.4683,-0.5014,-0.5745,-0.6079,-0.6214,-0.635,-0.635,-0.6416,-0.6544,-0.6609,-0.6609,-0.6609,-0.6745,-0.6942,-0.7073,-0.7587,-0.7977,-0.8166,-0.8877,-0.939,-0.939,-0.9829,-1.0394,-1.1012,-1.1519,-1.2065,-1.2738,-1.2825,-1.3233,-1.4148,-1.414,-1.4754,-1.5972,-1.7052,-1.7876,-1.8466,-1.7999,-1.7822,-1.8034,-1.8736,-1.9431,0.8099,0.826,0.8506,0.8594,0.8693,0.0,0.0,0.8747,0.8702,0.8334,0.8203,0.8096,0.7824,0.7777,0.7723,0.7723,0.805,0.844,0.8865,0.8624,0.854,0.8924,0.8425,0.8102,0.849,0.7907,0.7431,0.7212,0.6712,0.6285,0.6072,0.608,0.6059,0.6152,0.6327,0.6375,0.6282,0.584,0.5617,0.5613,0.4146,0.3349,0.3149,0.2079,0.1478,0.1344,0.1143,0.1076,0.1076,0.1077,0.1078,0.1079,0.0674,0.0539,0.0539,0.0135,0.0,-0.0067,-0.0404,-0.0809,-0.1079,-0.1079,-0.1079,-0.1079,-0.1078,-0.1613,-0.2482,-0.3687,-0.4156,-0.4486,-0.5282,-0.5547,-0.5749,-0.6214,-0.6284,-0.635,-0.6482,-0.6548,-0.6741,-0.7256,-0.7386,-0.7451,-0.7386,-0.7456,-0.7717,-0.8161,-0.8619,-0.8941,-0.9134,-0.9703,-1.0085,-1.0142,-1.0719,-1.1316,-1.2013,-1.237,-1.3022,-1.4144,-1.3997,-1.4216,-1.4961,-1.5088,-1.5753,-1.6967,-1.8148,-1.9083,-1.983,-1.9935,-2.0056,-2.0149,-2.0193,-2.059,0.8115,0.8268,0.8321,0.8209,0.8209,0.8203,0.0,0.0,0.0,0.7444,0.7331,0.7176,0.6696,0.6588,0.6588,0.6588,0.7235,0.7767,0.7762,0.722,0.7221,0.826,0.7881,0.7782,0.8227,0.7742,0.7031,0.6278,0.5953,0.5864,0.5933,0.5937,0.5953,0.599,0.627,0.6282,0.6069,0.5683,0.5415,0.5286,0.3616,0.3015,0.3286,0.188,0.1344,0.1614,0.1277,0.1076,0.1076,0.1078,0.1079,0.0944,0.0742,0.0337,0.0,0.0,0.0,-0.0135,-0.0877,-0.128,-0.1482,-0.1415,-0.1414,-0.1548,-0.1746,-0.2281,-0.3084,-0.4489,-0.5087,-0.5484,-0.6083,-0.635,-0.642,-0.642,-0.6416,-0.6548,-0.6802,-0.6933,-0.719,-0.8091,-0.835,-0.8355,-0.8285,-0.8355,-0.8683,-0.9314,-0.9576,-0.9831,-1.0021,-1.0401,-1.0773,-1.0899,-1.16,-1.2367,-1.3076,-1.3232,-1.381,-1.5259,-1.4979,-1.4989,-1.5537,-1.6227,-1.7016,-1.7936,-1.9033,-2.0024,-2.0947,-2.1368,-2.168,-2.1868,-2.1381,-2.1631,0.7788,0.8062,0.8055,0.7408,0.745,0.7439,0.6789,0.0,0.6804,0.6696,0.0,0.6696,0.6588,0.0,0.0,0.6588,0.6282,0.6087,0.6212,0.576,0.6028,0.7708,0.7921,0.7798,0.7356,0.7135,0.673,0.6262,0.5831,0.5783,0.6162,0.6178,0.6193,0.6351,0.6396,0.6141,0.5654,0.514,0.4619,0.4161,0.3222,0.2753,0.2753,0.195,0.1547,0.1614,0.1277,0.1076,0.1076,0.1078,0.0877,0.0607,0.0944,0.0607,0.0,0.0,0.0,-0.0135,-0.0877,-0.1885,-0.2891,-0.2485,-0.2618,-0.3084,-0.3954,-0.4289,-0.4556,-0.5683,-0.6013,-0.6148,-0.635,-0.6416,-0.642,-0.642,-0.6548,-0.6802,-0.7447,-0.7707,-0.8091,-0.8988,-0.918,-0.918,-0.918,-0.9256,-0.9454,-0.9703,-1.0268,-1.0703,-1.0829,-1.16,-1.2174,-1.249,-1.2736,-1.3297,-1.44,-1.4257,-1.4463,-1.5331,-1.5097,-1.5264,-1.6155,-1.7783,-1.8656,-1.8596,-1.9764,-2.0616,-2.1078,-2.1477,-2.1884,-2.2262,-2.2335,-2.3037,0.7187,0.7187,0.7295,0.7402,0.7015,0.6681,0.6799,0.0,0.6263,0.0,0.0,0.0,0.0,0.0,0.0,0.0,0.5496,0.5631,0.5708,0.5892,0.6294,0.6968,0.0,0.0,0.6955,0.6884,0.6584,0.5899,0.5795,0.5835,0.599,0.6154,0.6244,0.6258,0.6029,0.5774,0.5488,0.4719,0.4225,0.3961,0.3088,0.282,0.2956,0.2017,0.1748,0.1884,0.1344,0.1076,0.1078,0.1079,0.1012,0.0674,-0.128,-0.1213,-0.0202,-0.1887,-0.2764,-0.31,-0.2693,-0.3025,-0.3558,-0.3086,-0.3015,-0.3351,-0.4289,-0.4622,-0.4951,-0.5947,-0.628,-0.635,-0.6416,-0.6482,-0.6544,-0.6544,-0.6679,-0.7003,-0.7842,-0.8037,-0.8484,-0.9767,-1.0078,-1.0262,-1.0654,-1.0458,-1.0465,-1.1038,-1.1358,-1.167,-1.1973,-1.2359,-1.285,-1.3571,-1.3683,-1.4054,-1.5059,-1.5117,-1.5498,-1.629,-1.6576,-1.7024,-1.7677,-1.8429,-1.9029,-1.9504,-2.0378,-2.1402,-2.2495,-2.3173,-2.3926,-2.4714,-2.3761,-2.3936,0.648,0.0,0.0,0.0,0.0,0.0,0.0,0.0,0.0,0.0,0.0,0.0,0.0,0.0,0.0,0.0,0.0,0.5109,0.5164,0.555,0.5985,0.6281,0.0,0.0,0.0,0.6424,0.6206,0.5703,0.5735,0.582,0.6026,0.6166,0.6168,0.6025,0.5752,0.5432,0.5006,0.4317,0.3894,0.3761,0.3157,0.2889,0.3023,0.2151,0.1884,0.2018,0.1345,0.1077,0.1079,0.0674,0.0472,0.0067,-0.2627,-0.2695,-0.1482,-0.31,-0.4322,-0.5068,-0.3974,-0.3763,-0.4023,-0.3885,-0.3882,-0.4018,-0.4821,-0.5084,-0.5345,-0.6079,-0.635,-0.642,-0.6482,-0.6613,-0.6741,-0.6741,-0.7003,-0.7461,-0.8296,-0.8683,-0.9198,-1.0541,-1.0982,-1.1226,-1.1802,-1.1476,-1.1351,-1.2058,-1.2243,-1.2436,-1.2805,-1.3042,-1.3511,-1.4382,-1.4712,-1.5193,-1.6093,-1.6362,-1.6757,-1.7446,-1.8061,-1.8602,-1.8992,-1.919,-1.9584,-2.027,-2.1225,-2.2258,-2.3472,-2.4609,-2.5569,-2.6393,-2.5218,-2.5287,0.0,0.0,0.0,0.5117,0.0,0.0,0.0,0.0,0.4079,0.0,0.0,0.0,0.0,0.0,0.0,0.0,0.0,0.0,0.0,0.4135,0.4519,0.5681,0.5454,0.5284,0.0,0.5314,0.5411,0.0,0.5584,0.5675,0.6375,0.6237,0.6033,0.5602,0.5613,0.5084,0.4023,0.4025,0.3761,0.3226,0.3226,0.3023,0.2686,0.2354,0.1951,0.1614,0.1277,0.1077,0.1011,-0.0471,-0.121,-0.1547,-0.2014,-0.3159,-0.4453,-0.2753,-0.3295,-0.4724,-0.3904,-0.3894,-0.442,-0.5282,-0.5547,-0.5617,-0.6013,-0.6145,-0.6214,-0.635,-0.642,-0.642,-0.6609,-0.6675,-0.6741,-0.6881,-0.7526,-0.8361,-0.9116,-0.9894,-1.0674,-1.1435,-1.1685,-1.1872,-1.2058,-1.2058,-1.212,-1.2243,-1.2552,-1.2805,-1.2981,-1.3683,-1.4382,-1.5031,-1.592,-1.6953,-1.8027,-1.8132,-1.8261,-1.8632,-1.8951,-1.9344,-1.9747,-2.0396,-2.0759,-2.0772,-2.2338,-2.3195,-2.3402,-2.5139,-2.605,-2.6214,-2.6594,-2.7354,0.0,0.0,0.5007,0.5218,0.0,0.0,0.0,0.0,0.0,0.0,0.0,0.0,0.0,0.0,0.0,0.0,0.0,0.0,0.0,0.4024,0.4187,0.4684,0.473,0.4826,0.5049,0.0,0.5254,0.5545,0.568,0.0,0.6059,0.5905,0.589,0.6148,0.5415,0.4885,0.4553,0.4159,0.3761,0.3226,0.3226,0.3023,0.2686,0.2354,0.1951,0.1547,0.0874,0.0336,-0.0135,-0.0807,-0.2017,-0.3366,-0.3493,-0.4033,-0.4645,-0.4033,-0.4436,-0.5183,-0.4903,-0.4957,-0.5216,-0.5481,-0.5683,-0.5818,-0.6148,-0.621,-0.6214,-0.635,-0.6482,-0.6609,-0.6675,-0.7195,-0.7717,-0.7717,-0.8425,-0.9262,-0.9964,-1.0408,-1.0912,-1.1615,-1.1926,-1.2367,-1.3151,-1.338,-1.3422,-1.3224,-1.3304,-1.3777,-1.4709,-1.5061,-1.5583,-1.6518,-1.7226,-1.7923,-1.8589,-1.9504,-2.0234,-2.0836,-2.0999,-2.1049,-2.1056,-2.1668,-2.1767,-2.1229,-2.3376,-2.4547,-2.4538,-2.6366,-2.7646,-2.8342,-2.8576,-2.8623,0.4128,0.4018,0.0,0.456,0.4122,0.0,0.4239,0.0,0.3802,0.0,0.0,0.0,0.0,0.0,0.0,0.0,0.0,0.0,0.0,0.3916,0.3971,0.3978,0.4249,0.4504,0.4777,0.4967,0.5152,0.5385,0.5668,0.5852,0.0,0.5875,0.5886,0.6083,0.5282,0.4683,0.4486,0.3959,0.356,0.3226,0.3226,0.2958,0.2487,0.2287,0.1817,0.1076,0.0403,-0.0336,-0.1143,-0.1611,-0.2753,-0.4308,-0.4367,-0.4567,-0.4703,-0.4703,-0.4903,-0.5302,-0.5428,-0.5554,-0.5617,-0.5749,-0.5881,-0.602,-0.6214,-0.628,-0.6284,-0.6482,-0.6806,-0.7064,-0.7195,-0.7907,-0.8613,-0.8683,-0.9262,-0.9964,-1.0478,-1.0912,-1.1288,-1.1802,-1.2453,-1.3103,-1.3765,-1.4423,-1.4809,-1.4594,-1.468,-1.5098,-1.6217,-1.6581,-1.7117,-1.8068,-1.8746,-1.9401,-1.9991,-2.0966,-2.1769,-2.2185,-2.2226,-2.2339,-2.2528,-2.2715,-2.2793,-2.2706,-2.4517,-2.558,-2.5869,-2.7639,-2.8857,-2.9556,-2.9777,-2.9789]}]]